<?xml version="1.0" encoding="UTF-8" standalone="no" ?>
<gpx xmlns="http://www.topografix.com/GPX/1/1" xmlns:xsi="http://www.w3.org/2001/XMLSchema-instance" xsi:schemaLocation="http://www.topografix.com/GPX/1/1 http://www.topografix.com/GPX/1/1/gpx.xsd" version="1.1" creator="VisuGPX - https://www.visugpx.com">
  <metadata>
    <name>St Girons Singles Lédar Col de Belein Moulis boucle - L'ORSALHER VTT</name>
    <desc><![CDATA[Parcours boucle.]]></desc>
  </metadata>
  <wpt lat="42.99174" lon="1.12777">
    <ele>457.9</ele>
    <name><![CDATA[Lédar Singles nouveau tronçon]]></name>
    <type><![CDATA[star]]></type>
  </wpt>
  <wpt lat="42.99614" lon="1.12773">
    <ele>436.1</ele>
    <name><![CDATA[Lédar Singles tronçon existant]]></name>
    <type><![CDATA[star]]></type>
  </wpt>
  <wpt lat="42.9952" lon="1.13054">
    <ele>443.8</ele>
    <name><![CDATA[Passage Privé !]]></name>
    <desc><![CDATA[ATTENTION ! Passage entre les habitations soit disant privé.]]></desc>
    <type><![CDATA[alarm]]></type>
  </wpt>
  <wpt lat="42.99539" lon="1.13113">
    <ele>438.3</ele>
    <name><![CDATA[Passage Privé !]]></name>
    <desc><![CDATA[ATTENTION ! Passage entre les habitations soit disant privé.]]></desc>
    <type><![CDATA[alarm]]></type>
  </wpt>
  <trk>
    <name><![CDATA[St Girons par les Singles de Lédar Col de Belein puis Moulis]]></name>
    <desc><![CDATA[Boucle]]></desc>
    <extensions>
      <line xmlns="http://www.topografix.com/GPX/gpx_style/0/2">
        <color>0008ff</color>
        <width>4</width>
          <extensions>
            <sens>1</sens>
          </extensions>
      </line>
    </extensions>
    <trkseg>
      <trkpt lat="42.98728" lon="1.13938">
        <ele>392.5</ele>
        <time>2022-10-21T14:09:22.000Z</time>
      </trkpt>
      <trkpt lat="42.98728" lon="1.13936">
        <ele>392.5</ele>
        <time>2022-10-21T14:09:23.000Z</time>
      </trkpt>
      <trkpt lat="42.98727" lon="1.13922">
        <ele>391</ele>
        <time>2022-10-21T14:09:28.000Z</time>
      </trkpt>
      <trkpt lat="42.98727" lon="1.13909">
        <ele>390.8</ele>
        <time>2022-10-21T14:09:31.000Z</time>
      </trkpt>
      <trkpt lat="42.98736" lon="1.13899">
        <ele>391</ele>
        <time>2022-10-21T14:09:34.000Z</time>
      </trkpt>
      <trkpt lat="42.98748" lon="1.13894">
        <ele>391.1</ele>
        <time>2022-10-21T14:09:37.000Z</time>
      </trkpt>
      <trkpt lat="42.9876" lon="1.13889">
        <ele>391.1</ele>
        <time>2022-10-21T14:09:40.000Z</time>
      </trkpt>
      <trkpt lat="42.98772" lon="1.13883">
        <ele>390.9</ele>
        <time>2022-10-21T14:09:43.000Z</time>
      </trkpt>
      <trkpt lat="42.98781" lon="1.1388">
        <ele>390.8</ele>
        <time>2022-10-21T14:09:45.000Z</time>
      </trkpt>
      <trkpt lat="42.9879" lon="1.13881">
        <ele>391.2</ele>
        <time>2022-10-21T14:09:47.000Z</time>
      </trkpt>
      <trkpt lat="42.98796" lon="1.1389">
        <ele>391.2</ele>
        <time>2022-10-21T14:09:49.000Z</time>
      </trkpt>
      <trkpt lat="42.98801" lon="1.13901">
        <ele>391.1</ele>
        <time>2022-10-21T14:09:51.000Z</time>
      </trkpt>
      <trkpt lat="42.98804" lon="1.13919">
        <ele>391.3</ele>
        <time>2022-10-21T14:09:54.000Z</time>
      </trkpt>
      <trkpt lat="42.98815" lon="1.13928">
        <ele>391.5</ele>
        <time>2022-10-21T14:09:57.000Z</time>
      </trkpt>
      <trkpt lat="42.98825" lon="1.13925">
        <ele>391.4</ele>
        <time>2022-10-21T14:09:59.000Z</time>
      </trkpt>
      <trkpt lat="42.98833" lon="1.13922">
        <ele>391.1</ele>
        <time>2022-10-21T14:10:01.000Z</time>
      </trkpt>
      <trkpt lat="42.98845" lon="1.13918">
        <ele>390.6</ele>
        <time>2022-10-21T14:10:04.000Z</time>
      </trkpt>
      <trkpt lat="42.98852" lon="1.1391">
        <ele>390.9</ele>
        <time>2022-10-21T14:10:07.000Z</time>
      </trkpt>
      <trkpt lat="42.98849" lon="1.13895">
        <ele>390.9</ele>
        <time>2022-10-21T14:10:11.000Z</time>
      </trkpt>
      <trkpt lat="42.98846" lon="1.13882">
        <ele>391.4</ele>
        <time>2022-10-21T14:10:14.000Z</time>
      </trkpt>
      <trkpt lat="42.98846" lon="1.13864">
        <ele>391.1</ele>
        <time>2022-10-21T14:10:17.000Z</time>
      </trkpt>
      <trkpt lat="42.98848" lon="1.1385">
        <ele>390.9</ele>
        <time>2022-10-21T14:10:20.000Z</time>
      </trkpt>
      <trkpt lat="42.98857" lon="1.13841">
        <ele>390.5</ele>
        <time>2022-10-21T14:10:24.000Z</time>
      </trkpt>
      <trkpt lat="42.98868" lon="1.13837">
        <ele>390</ele>
        <time>2022-10-21T14:10:27.000Z</time>
      </trkpt>
      <trkpt lat="42.9888" lon="1.13833">
        <ele>390.2</ele>
        <time>2022-10-21T14:10:30.000Z</time>
      </trkpt>
      <trkpt lat="42.98891" lon="1.13829">
        <ele>390</ele>
        <time>2022-10-21T14:10:33.000Z</time>
      </trkpt>
      <trkpt lat="42.98902" lon="1.13826">
        <ele>390.1</ele>
        <time>2022-10-21T14:10:36.000Z</time>
      </trkpt>
      <trkpt lat="42.98912" lon="1.13823">
        <ele>390.5</ele>
        <time>2022-10-21T14:10:39.000Z</time>
      </trkpt>
      <trkpt lat="42.98923" lon="1.13821">
        <ele>390.4</ele>
        <time>2022-10-21T14:10:42.000Z</time>
      </trkpt>
      <trkpt lat="42.98934" lon="1.13818">
        <ele>390.3</ele>
        <time>2022-10-21T14:10:45.000Z</time>
      </trkpt>
      <trkpt lat="42.98945" lon="1.13816">
        <ele>390</ele>
        <time>2022-10-21T14:10:48.000Z</time>
      </trkpt>
      <trkpt lat="42.98956" lon="1.13812">
        <ele>390.1</ele>
        <time>2022-10-21T14:10:51.000Z</time>
      </trkpt>
      <trkpt lat="42.98968" lon="1.13811">
        <ele>389.6</ele>
        <time>2022-10-21T14:10:54.000Z</time>
      </trkpt>
      <trkpt lat="42.98978" lon="1.13807">
        <ele>390.2</ele>
        <time>2022-10-21T14:10:57.000Z</time>
      </trkpt>
      <trkpt lat="42.98989" lon="1.13804">
        <ele>390.2</ele>
        <time>2022-10-21T14:11:00.000Z</time>
      </trkpt>
      <trkpt lat="42.99001" lon="1.13802">
        <ele>389.9</ele>
        <time>2022-10-21T14:11:03.000Z</time>
      </trkpt>
      <trkpt lat="42.99012" lon="1.13799">
        <ele>390</ele>
        <time>2022-10-21T14:11:06.000Z</time>
      </trkpt>
      <trkpt lat="42.99022" lon="1.13797">
        <ele>389.5</ele>
        <time>2022-10-21T14:11:09.000Z</time>
      </trkpt>
      <trkpt lat="42.99033" lon="1.13795">
        <ele>389.5</ele>
        <time>2022-10-21T14:11:12.000Z</time>
      </trkpt>
      <trkpt lat="42.99042" lon="1.13794">
        <ele>389.6</ele>
        <time>2022-10-21T14:11:15.000Z</time>
      </trkpt>
      <trkpt lat="42.99052" lon="1.13793">
        <ele>389.9</ele>
        <time>2022-10-21T14:11:18.000Z</time>
      </trkpt>
      <trkpt lat="42.99063" lon="1.13792">
        <ele>389.6</ele>
        <time>2022-10-21T14:11:21.000Z</time>
      </trkpt>
      <trkpt lat="42.99074" lon="1.1379">
        <ele>389.2</ele>
        <time>2022-10-21T14:11:24.000Z</time>
      </trkpt>
      <trkpt lat="42.99085" lon="1.13787">
        <ele>389.3</ele>
        <time>2022-10-21T14:11:27.000Z</time>
      </trkpt>
      <trkpt lat="42.99096" lon="1.13785">
        <ele>389.3</ele>
        <time>2022-10-21T14:11:30.000Z</time>
      </trkpt>
      <trkpt lat="42.99106" lon="1.13786">
        <ele>389</ele>
        <time>2022-10-21T14:11:33.000Z</time>
      </trkpt>
      <trkpt lat="42.99117" lon="1.13786">
        <ele>389</ele>
        <time>2022-10-21T14:11:36.000Z</time>
      </trkpt>
      <trkpt lat="42.99129" lon="1.13785">
        <ele>389.1</ele>
        <time>2022-10-21T14:11:39.000Z</time>
      </trkpt>
      <trkpt lat="42.99139" lon="1.13781">
        <ele>389</ele>
        <time>2022-10-21T14:11:42.000Z</time>
      </trkpt>
      <trkpt lat="42.9915" lon="1.13777">
        <ele>389.3</ele>
        <time>2022-10-21T14:11:45.000Z</time>
      </trkpt>
      <trkpt lat="42.99159" lon="1.13771">
        <ele>389.5</ele>
        <time>2022-10-21T14:11:48.000Z</time>
      </trkpt>
      <trkpt lat="42.99169" lon="1.13764">
        <ele>389.2</ele>
        <time>2022-10-21T14:11:51.000Z</time>
      </trkpt>
      <trkpt lat="42.99177" lon="1.13756">
        <ele>389</ele>
        <time>2022-10-21T14:11:54.000Z</time>
      </trkpt>
      <trkpt lat="42.99185" lon="1.13747">
        <ele>389.2</ele>
        <time>2022-10-21T14:11:57.000Z</time>
      </trkpt>
      <trkpt lat="42.99195" lon="1.13744">
        <ele>389.1</ele>
        <time>2022-10-21T14:12:00.000Z</time>
      </trkpt>
      <trkpt lat="42.99205" lon="1.13741">
        <ele>389.4</ele>
        <time>2022-10-21T14:12:03.000Z</time>
      </trkpt>
      <trkpt lat="42.99215" lon="1.13737">
        <ele>388.7</ele>
        <time>2022-10-21T14:12:06.000Z</time>
      </trkpt>
      <trkpt lat="42.99224" lon="1.13734">
        <ele>389.1</ele>
        <time>2022-10-21T14:12:09.000Z</time>
      </trkpt>
      <trkpt lat="42.99234" lon="1.1373">
        <ele>389.9</ele>
        <time>2022-10-21T14:12:12.000Z</time>
      </trkpt>
      <trkpt lat="42.99243" lon="1.13726">
        <ele>389.7</ele>
        <time>2022-10-21T14:12:15.000Z</time>
      </trkpt>
      <trkpt lat="42.99252" lon="1.13723">
        <ele>389.6</ele>
        <time>2022-10-21T14:12:18.000Z</time>
      </trkpt>
      <trkpt lat="42.99261" lon="1.1372">
        <ele>389.6</ele>
        <time>2022-10-21T14:12:21.000Z</time>
      </trkpt>
      <trkpt lat="42.9927" lon="1.13716">
        <ele>389.9</ele>
        <time>2022-10-21T14:12:24.000Z</time>
      </trkpt>
      <trkpt lat="42.9928" lon="1.13712">
        <ele>389.5</ele>
        <time>2022-10-21T14:12:27.000Z</time>
      </trkpt>
      <trkpt lat="42.99289" lon="1.13708">
        <ele>389.7</ele>
        <time>2022-10-21T14:12:30.000Z</time>
      </trkpt>
      <trkpt lat="42.993" lon="1.13704">
        <ele>389.8</ele>
        <time>2022-10-21T14:12:33.000Z</time>
      </trkpt>
      <trkpt lat="42.9931" lon="1.13699">
        <ele>390</ele>
        <time>2022-10-21T14:12:36.000Z</time>
      </trkpt>
      <trkpt lat="42.99321" lon="1.13694">
        <ele>389.6</ele>
        <time>2022-10-21T14:12:39.000Z</time>
      </trkpt>
      <trkpt lat="42.99332" lon="1.1369">
        <ele>389.1</ele>
        <time>2022-10-21T14:12:42.000Z</time>
      </trkpt>
      <trkpt lat="42.99342" lon="1.13687">
        <ele>389.7</ele>
        <time>2022-10-21T14:12:45.000Z</time>
      </trkpt>
      <trkpt lat="42.99353" lon="1.13684">
        <ele>389</ele>
        <time>2022-10-21T14:12:48.000Z</time>
      </trkpt>
      <trkpt lat="42.99364" lon="1.13681">
        <ele>389.1</ele>
        <time>2022-10-21T14:12:51.000Z</time>
      </trkpt>
      <trkpt lat="42.99374" lon="1.13677">
        <ele>388.9</ele>
        <time>2022-10-21T14:12:54.000Z</time>
      </trkpt>
      <trkpt lat="42.99385" lon="1.13673">
        <ele>389.2</ele>
        <time>2022-10-21T14:12:57.000Z</time>
      </trkpt>
      <trkpt lat="42.99395" lon="1.13669">
        <ele>388.3</ele>
        <time>2022-10-21T14:13:00.000Z</time>
      </trkpt>
      <trkpt lat="42.99405" lon="1.13665">
        <ele>388.6</ele>
        <time>2022-10-21T14:13:03.000Z</time>
      </trkpt>
      <trkpt lat="42.99415" lon="1.13661">
        <ele>389.2</ele>
        <time>2022-10-21T14:13:06.000Z</time>
      </trkpt>
      <trkpt lat="42.99426" lon="1.13658">
        <ele>388.3</ele>
        <time>2022-10-21T14:13:09.000Z</time>
      </trkpt>
      <trkpt lat="42.99436" lon="1.13655">
        <ele>388.6</ele>
        <time>2022-10-21T14:13:12.000Z</time>
      </trkpt>
      <trkpt lat="42.99446" lon="1.1365">
        <ele>388.7</ele>
        <time>2022-10-21T14:13:15.000Z</time>
      </trkpt>
      <trkpt lat="42.99457" lon="1.13646">
        <ele>388.7</ele>
        <time>2022-10-21T14:13:18.000Z</time>
      </trkpt>
      <trkpt lat="42.99467" lon="1.13643">
        <ele>388.3</ele>
        <time>2022-10-21T14:13:21.000Z</time>
      </trkpt>
      <trkpt lat="42.99478" lon="1.1364">
        <ele>388.2</ele>
        <time>2022-10-21T14:13:24.000Z</time>
      </trkpt>
      <trkpt lat="42.99489" lon="1.13637">
        <ele>388.7</ele>
        <time>2022-10-21T14:13:27.000Z</time>
      </trkpt>
      <trkpt lat="42.99499" lon="1.13634">
        <ele>388.3</ele>
        <time>2022-10-21T14:13:30.000Z</time>
      </trkpt>
      <trkpt lat="42.99509" lon="1.13632">
        <ele>388.3</ele>
        <time>2022-10-21T14:13:33.000Z</time>
      </trkpt>
      <trkpt lat="42.99519" lon="1.13629">
        <ele>388.1</ele>
        <time>2022-10-21T14:13:37.000Z</time>
      </trkpt>
      <trkpt lat="42.99529" lon="1.13626">
        <ele>387.9</ele>
        <time>2022-10-21T14:13:40.000Z</time>
      </trkpt>
      <trkpt lat="42.99539" lon="1.13623">
        <ele>388</ele>
        <time>2022-10-21T14:13:43.000Z</time>
      </trkpt>
      <trkpt lat="42.9955" lon="1.13621">
        <ele>387.4</ele>
        <time>2022-10-21T14:13:46.000Z</time>
      </trkpt>
      <trkpt lat="42.99561" lon="1.13619">
        <ele>388.1</ele>
        <time>2022-10-21T14:13:49.000Z</time>
      </trkpt>
      <trkpt lat="42.99572" lon="1.13618">
        <ele>387.6</ele>
        <time>2022-10-21T14:13:52.000Z</time>
      </trkpt>
      <trkpt lat="42.99582" lon="1.13616">
        <ele>387.8</ele>
        <time>2022-10-21T14:13:55.000Z</time>
      </trkpt>
      <trkpt lat="42.99591" lon="1.13614">
        <ele>388</ele>
        <time>2022-10-21T14:13:58.000Z</time>
      </trkpt>
      <trkpt lat="42.99602" lon="1.13612">
        <ele>388.1</ele>
        <time>2022-10-21T14:14:01.000Z</time>
      </trkpt>
      <trkpt lat="42.99613" lon="1.13609">
        <ele>387.7</ele>
        <time>2022-10-21T14:14:04.000Z</time>
      </trkpt>
      <trkpt lat="42.99624" lon="1.13607">
        <ele>388</ele>
        <time>2022-10-21T14:14:07.000Z</time>
      </trkpt>
      <trkpt lat="42.99634" lon="1.13603">
        <ele>387.7</ele>
        <time>2022-10-21T14:14:10.000Z</time>
      </trkpt>
      <trkpt lat="42.99645" lon="1.13599">
        <ele>387.5</ele>
        <time>2022-10-21T14:14:13.000Z</time>
      </trkpt>
      <trkpt lat="42.99655" lon="1.13592">
        <ele>387.4</ele>
        <time>2022-10-21T14:14:16.000Z</time>
      </trkpt>
      <trkpt lat="42.99666" lon="1.13588">
        <ele>387.3</ele>
        <time>2022-10-21T14:14:19.000Z</time>
      </trkpt>
      <trkpt lat="42.99676" lon="1.13583">
        <ele>386.9</ele>
        <time>2022-10-21T14:14:22.000Z</time>
      </trkpt>
      <trkpt lat="42.99686" lon="1.13579">
        <ele>387</ele>
        <time>2022-10-21T14:14:25.000Z</time>
      </trkpt>
      <trkpt lat="42.99697" lon="1.13574">
        <ele>387.5</ele>
        <time>2022-10-21T14:14:28.000Z</time>
      </trkpt>
      <trkpt lat="42.99707" lon="1.13569">
        <ele>387</ele>
        <time>2022-10-21T14:14:31.000Z</time>
      </trkpt>
      <trkpt lat="42.99717" lon="1.13565">
        <ele>387.2</ele>
        <time>2022-10-21T14:14:34.000Z</time>
      </trkpt>
      <trkpt lat="42.99727" lon="1.1356">
        <ele>386.8</ele>
        <time>2022-10-21T14:14:37.000Z</time>
      </trkpt>
      <trkpt lat="42.99737" lon="1.13555">
        <ele>386</ele>
        <time>2022-10-21T14:14:40.000Z</time>
      </trkpt>
      <trkpt lat="42.99748" lon="1.13549">
        <ele>386.2</ele>
        <time>2022-10-21T14:14:43.000Z</time>
      </trkpt>
      <trkpt lat="42.99758" lon="1.13543">
        <ele>386.7</ele>
        <time>2022-10-21T14:14:46.000Z</time>
      </trkpt>
      <trkpt lat="42.99768" lon="1.13538">
        <ele>386.7</ele>
        <time>2022-10-21T14:14:49.000Z</time>
      </trkpt>
      <trkpt lat="42.99777" lon="1.13533">
        <ele>386.1</ele>
        <time>2022-10-21T14:14:52.000Z</time>
      </trkpt>
      <trkpt lat="42.99786" lon="1.13527">
        <ele>386.3</ele>
        <time>2022-10-21T14:14:55.000Z</time>
      </trkpt>
      <trkpt lat="42.99796" lon="1.13523">
        <ele>386.4</ele>
        <time>2022-10-21T14:14:58.000Z</time>
      </trkpt>
      <trkpt lat="42.99806" lon="1.13518">
        <ele>386.1</ele>
        <time>2022-10-21T14:15:01.000Z</time>
      </trkpt>
      <trkpt lat="42.99816" lon="1.13513">
        <ele>386.2</ele>
        <time>2022-10-21T14:15:04.000Z</time>
      </trkpt>
      <trkpt lat="42.99826" lon="1.13508">
        <ele>385.8</ele>
        <time>2022-10-21T14:15:07.000Z</time>
      </trkpt>
      <trkpt lat="42.99837" lon="1.13503">
        <ele>386.1</ele>
        <time>2022-10-21T14:15:10.000Z</time>
      </trkpt>
      <trkpt lat="42.99847" lon="1.13498">
        <ele>385.7</ele>
        <time>2022-10-21T14:15:13.000Z</time>
      </trkpt>
      <trkpt lat="42.99857" lon="1.13494">
        <ele>385.6</ele>
        <time>2022-10-21T14:15:16.000Z</time>
      </trkpt>
      <trkpt lat="42.99867" lon="1.1349">
        <ele>385.9</ele>
        <time>2022-10-21T14:15:19.000Z</time>
      </trkpt>
      <trkpt lat="42.99878" lon="1.13487">
        <ele>385.7</ele>
        <time>2022-10-21T14:15:23.000Z</time>
      </trkpt>
      <trkpt lat="42.99889" lon="1.13483">
        <ele>386.1</ele>
        <time>2022-10-21T14:15:27.000Z</time>
      </trkpt>
      <trkpt lat="42.99898" lon="1.1348">
        <ele>385.3</ele>
        <time>2022-10-21T14:15:31.000Z</time>
      </trkpt>
      <trkpt lat="42.99908" lon="1.13478">
        <ele>385.3</ele>
        <time>2022-10-21T14:15:35.000Z</time>
      </trkpt>
      <trkpt lat="42.999" lon="1.13469">
        <ele>383.3</ele>
        <time>2022-10-21T14:15:46.000Z</time>
      </trkpt>
      <trkpt lat="42.99889" lon="1.1347">
        <ele>382.6</ele>
        <time>2022-10-21T14:15:49.000Z</time>
      </trkpt>
      <trkpt lat="42.99879" lon="1.13472">
        <ele>382.5</ele>
        <time>2022-10-21T14:15:52.000Z</time>
      </trkpt>
      <trkpt lat="42.9987" lon="1.13474">
        <ele>382.5</ele>
        <time>2022-10-21T14:15:55.000Z</time>
      </trkpt>
      <trkpt lat="42.99859" lon="1.13475">
        <ele>382.8</ele>
        <time>2022-10-21T14:15:59.000Z</time>
      </trkpt>
      <trkpt lat="42.9985" lon="1.1347">
        <ele>383.6</ele>
        <time>2022-10-21T14:16:03.000Z</time>
      </trkpt>
      <trkpt lat="42.99841" lon="1.13467">
        <ele>384.4</ele>
        <time>2022-10-21T14:16:07.000Z</time>
      </trkpt>
      <trkpt lat="42.99832" lon="1.13464">
        <ele>385.2</ele>
        <time>2022-10-21T14:16:11.000Z</time>
      </trkpt>
      <trkpt lat="42.99823" lon="1.1346">
        <ele>385.7</ele>
        <time>2022-10-21T14:16:15.000Z</time>
      </trkpt>
      <trkpt lat="42.99814" lon="1.13457">
        <ele>387</ele>
        <time>2022-10-21T14:16:19.000Z</time>
      </trkpt>
      <trkpt lat="42.99805" lon="1.13453">
        <ele>387.9</ele>
        <time>2022-10-21T14:16:23.000Z</time>
      </trkpt>
      <trkpt lat="42.99795" lon="1.13448">
        <ele>389.3</ele>
        <time>2022-10-21T14:16:28.000Z</time>
      </trkpt>
      <trkpt lat="42.99786" lon="1.13444">
        <ele>390.4</ele>
        <time>2022-10-21T14:16:33.000Z</time>
      </trkpt>
      <trkpt lat="42.99776" lon="1.13442">
        <ele>392.1</ele>
        <time>2022-10-21T14:16:39.000Z</time>
      </trkpt>
      <trkpt lat="42.99773" lon="1.13429">
        <ele>394.2</ele>
        <time>2022-10-21T14:16:46.000Z</time>
      </trkpt>
      <trkpt lat="42.99779" lon="1.13417">
        <ele>395.6</ele>
        <time>2022-10-21T14:16:52.000Z</time>
      </trkpt>
      <trkpt lat="42.99787" lon="1.1341">
        <ele>397.1</ele>
        <time>2022-10-21T14:16:58.000Z</time>
      </trkpt>
      <trkpt lat="42.9978" lon="1.13401">
        <ele>399.4</ele>
        <time>2022-10-21T14:17:13.000Z</time>
      </trkpt>
      <trkpt lat="42.99771" lon="1.13407">
        <ele>400.4</ele>
        <time>2022-10-21T14:17:20.000Z</time>
      </trkpt>
      <trkpt lat="42.99762" lon="1.13414">
        <ele>401.2</ele>
        <time>2022-10-21T14:17:26.000Z</time>
      </trkpt>
      <trkpt lat="42.99753" lon="1.13419">
        <ele>402.2</ele>
        <time>2022-10-21T14:17:32.000Z</time>
      </trkpt>
      <trkpt lat="42.99743" lon="1.1342">
        <ele>403.7</ele>
        <time>2022-10-21T14:17:38.000Z</time>
      </trkpt>
      <trkpt lat="42.99735" lon="1.13412">
        <ele>404.2</ele>
        <time>2022-10-21T14:17:44.000Z</time>
      </trkpt>
      <trkpt lat="42.99729" lon="1.13401">
        <ele>405</ele>
        <time>2022-10-21T14:17:50.000Z</time>
      </trkpt>
      <trkpt lat="42.99724" lon="1.1339">
        <ele>405.8</ele>
        <time>2022-10-21T14:17:55.000Z</time>
      </trkpt>
      <trkpt lat="42.99719" lon="1.13379">
        <ele>405.9</ele>
        <time>2022-10-21T14:18:00.000Z</time>
      </trkpt>
      <trkpt lat="42.99713" lon="1.13368">
        <ele>406.4</ele>
        <time>2022-10-21T14:18:05.000Z</time>
      </trkpt>
      <trkpt lat="42.99708" lon="1.13357">
        <ele>407.3</ele>
        <time>2022-10-21T14:18:10.000Z</time>
      </trkpt>
      <trkpt lat="42.99702" lon="1.13347">
        <ele>408</ele>
        <time>2022-10-21T14:18:15.000Z</time>
      </trkpt>
      <trkpt lat="42.99696" lon="1.13336">
        <ele>408.2</ele>
        <time>2022-10-21T14:18:20.000Z</time>
      </trkpt>
      <trkpt lat="42.9969" lon="1.13326">
        <ele>408.8</ele>
        <time>2022-10-21T14:18:25.000Z</time>
      </trkpt>
      <trkpt lat="42.99684" lon="1.13315">
        <ele>409.5</ele>
        <time>2022-10-21T14:18:30.000Z</time>
      </trkpt>
      <trkpt lat="42.99679" lon="1.13305">
        <ele>410.2</ele>
        <time>2022-10-21T14:18:35.000Z</time>
      </trkpt>
      <trkpt lat="42.99673" lon="1.13294">
        <ele>410.9</ele>
        <time>2022-10-21T14:18:40.000Z</time>
      </trkpt>
      <trkpt lat="42.99667" lon="1.13283">
        <ele>412.2</ele>
        <time>2022-10-21T14:18:45.000Z</time>
      </trkpt>
      <trkpt lat="42.99661" lon="1.13273">
        <ele>413.6</ele>
        <time>2022-10-21T14:18:50.000Z</time>
      </trkpt>
      <trkpt lat="42.99655" lon="1.13263">
        <ele>414.4</ele>
        <time>2022-10-21T14:18:55.000Z</time>
      </trkpt>
      <trkpt lat="42.9965" lon="1.13252">
        <ele>416</ele>
        <time>2022-10-21T14:19:00.000Z</time>
      </trkpt>
      <trkpt lat="42.99644" lon="1.13242">
        <ele>417.5</ele>
        <time>2022-10-21T14:19:05.000Z</time>
      </trkpt>
      <trkpt lat="42.99638" lon="1.13231">
        <ele>418.4</ele>
        <time>2022-10-21T14:19:10.000Z</time>
      </trkpt>
      <trkpt lat="42.99632" lon="1.13221">
        <ele>419.2</ele>
        <time>2022-10-21T14:19:15.000Z</time>
      </trkpt>
      <trkpt lat="42.99627" lon="1.13211">
        <ele>420.5</ele>
        <time>2022-10-21T14:19:20.000Z</time>
      </trkpt>
      <trkpt lat="42.99621" lon="1.13201">
        <ele>421.1</ele>
        <time>2022-10-21T14:19:25.000Z</time>
      </trkpt>
      <trkpt lat="42.99615" lon="1.13191">
        <ele>422</ele>
        <time>2022-10-21T14:19:30.000Z</time>
      </trkpt>
      <trkpt lat="42.9961" lon="1.1318">
        <ele>422.8</ele>
        <time>2022-10-21T14:19:35.000Z</time>
      </trkpt>
      <trkpt lat="42.99604" lon="1.13169">
        <ele>423.3</ele>
        <time>2022-10-21T14:19:40.000Z</time>
      </trkpt>
      <trkpt lat="42.99599" lon="1.13159">
        <ele>424.4</ele>
        <time>2022-10-21T14:19:45.000Z</time>
      </trkpt>
      <trkpt lat="42.9959" lon="1.13154">
        <ele>426</ele>
        <time>2022-10-21T14:19:51.000Z</time>
      </trkpt>
      <trkpt lat="42.99582" lon="1.13158">
        <ele>427.4</ele>
        <time>2022-10-21T14:19:57.000Z</time>
      </trkpt>
      <trkpt lat="42.99571" lon="1.13161">
        <ele>428.6</ele>
        <time>2022-10-21T14:20:04.000Z</time>
      </trkpt>
      <trkpt lat="42.99562" lon="1.13159">
        <ele>429.8</ele>
        <time>2022-10-21T14:20:10.000Z</time>
      </trkpt>
      <trkpt lat="42.99555" lon="1.13151">
        <ele>431.4</ele>
        <time>2022-10-21T14:20:16.000Z</time>
      </trkpt>
      <trkpt lat="42.99551" lon="1.13139">
        <ele>432.6</ele>
        <time>2022-10-21T14:20:22.000Z</time>
      </trkpt>
      <trkpt lat="42.99548" lon="1.13127">
        <ele>434.5</ele>
        <time>2022-10-21T14:20:28.000Z</time>
      </trkpt>
      <trkpt lat="42.9954" lon="1.1312">
        <ele>436.1</ele>
        <time>2022-10-21T14:20:34.000Z</time>
      </trkpt>
      <trkpt lat="42.99533" lon="1.13113">
        <ele>437.3</ele>
        <time>2022-10-21T14:20:40.000Z</time>
      </trkpt>
      <trkpt lat="42.99525" lon="1.13107">
        <ele>438.9</ele>
        <time>2022-10-21T14:20:46.000Z</time>
      </trkpt>
      <trkpt lat="42.99517" lon="1.13099">
        <ele>440.8</ele>
        <time>2022-10-21T14:20:53.000Z</time>
      </trkpt>
      <trkpt lat="42.9951" lon="1.13091">
        <ele>441.7</ele>
        <time>2022-10-21T14:20:59.000Z</time>
      </trkpt>
      <trkpt lat="42.99504" lon="1.13081">
        <ele>442.8</ele>
        <time>2022-10-21T14:21:06.000Z</time>
      </trkpt>
      <trkpt lat="42.99509" lon="1.13069">
        <ele>442.6</ele>
        <time>2022-10-21T14:21:12.000Z</time>
      </trkpt>
      <trkpt lat="42.99513" lon="1.13061">
        <ele>442.8</ele>
        <time>2022-10-21T14:21:18.000Z</time>
      </trkpt>
      <trkpt lat="42.99515" lon="1.1306">
        <ele>442.7</ele>
        <time>2022-10-21T14:21:33.000Z</time>
      </trkpt>
      <trkpt lat="42.99514" lon="1.1306">
        <ele>442.7</ele>
        <time>2022-10-21T14:21:35.000Z</time>
      </trkpt>
      <trkpt lat="42.99515" lon="1.1306">
        <ele>442.8</ele>
        <time>2022-10-21T14:21:37.000Z</time>
      </trkpt>
      <trkpt lat="42.9952" lon="1.13049">
        <ele>443.2</ele>
        <time>2022-10-21T14:21:46.000Z</time>
      </trkpt>
      <trkpt lat="42.99528" lon="1.1304">
        <ele>443.3</ele>
        <time>2022-10-21T14:21:52.000Z</time>
      </trkpt>
      <trkpt lat="42.99534" lon="1.1303">
        <ele>442.9</ele>
        <time>2022-10-21T14:22:01.000Z</time>
      </trkpt>
      <trkpt lat="42.99541" lon="1.13017">
        <ele>442.4</ele>
        <time>2022-10-21T14:22:07.000Z</time>
      </trkpt>
      <trkpt lat="42.99551" lon="1.13008">
        <ele>441.4</ele>
        <time>2022-10-21T14:22:11.000Z</time>
      </trkpt>
      <trkpt lat="42.9956" lon="1.13001">
        <ele>441</ele>
        <time>2022-10-21T14:22:14.000Z</time>
      </trkpt>
      <trkpt lat="42.9957" lon="1.12994">
        <ele>441</ele>
        <time>2022-10-21T14:22:18.000Z</time>
      </trkpt>
      <trkpt lat="42.9958" lon="1.1299">
        <ele>440.9</ele>
        <time>2022-10-21T14:22:23.000Z</time>
      </trkpt>
      <trkpt lat="42.99589" lon="1.12984">
        <ele>441.7</ele>
        <time>2022-10-21T14:22:28.000Z</time>
      </trkpt>
      <trkpt lat="42.99596" lon="1.12992">
        <ele>440.7</ele>
        <time>2022-10-21T14:22:34.000Z</time>
      </trkpt>
      <trkpt lat="42.99606" lon="1.12997">
        <ele>440.9</ele>
        <time>2022-10-21T14:22:39.000Z</time>
      </trkpt>
      <trkpt lat="42.99614" lon="1.13003">
        <ele>442.1</ele>
        <time>2022-10-21T14:22:44.000Z</time>
      </trkpt>
      <trkpt lat="42.99622" lon="1.13011">
        <ele>442.3</ele>
        <time>2022-10-21T14:22:49.000Z</time>
      </trkpt>
      <trkpt lat="42.9963" lon="1.13017">
        <ele>443.3</ele>
        <time>2022-10-21T14:22:56.000Z</time>
      </trkpt>
      <trkpt lat="42.99639" lon="1.13022">
        <ele>444.2</ele>
        <time>2022-10-21T14:23:01.000Z</time>
      </trkpt>
      <trkpt lat="42.99648" lon="1.13024">
        <ele>445.1</ele>
        <time>2022-10-21T14:23:07.000Z</time>
      </trkpt>
      <trkpt lat="42.99658" lon="1.13023">
        <ele>445.1</ele>
        <time>2022-10-21T14:23:13.000Z</time>
      </trkpt>
      <trkpt lat="42.99667" lon="1.1302">
        <ele>445.1</ele>
        <time>2022-10-21T14:23:18.000Z</time>
      </trkpt>
      <trkpt lat="42.99677" lon="1.13015">
        <ele>444.9</ele>
        <time>2022-10-21T14:23:23.000Z</time>
      </trkpt>
      <trkpt lat="42.99683" lon="1.13005">
        <ele>445.4</ele>
        <time>2022-10-21T14:23:27.000Z</time>
      </trkpt>
      <trkpt lat="42.99688" lon="1.12992">
        <ele>445.5</ele>
        <time>2022-10-21T14:23:32.000Z</time>
      </trkpt>
      <trkpt lat="42.9969" lon="1.12987">
        <ele>445.5</ele>
        <time>2022-10-21T14:23:36.000Z</time>
      </trkpt>
      <trkpt lat="42.9969" lon="1.12986">
        <ele>445.9</ele>
        <time>2022-10-21T14:23:42.000Z</time>
      </trkpt>
      <trkpt lat="42.99691" lon="1.12985">
        <ele>446</ele>
        <time>2022-10-21T14:23:43.000Z</time>
      </trkpt>
      <trkpt lat="42.9969" lon="1.12982">
        <ele>445.5</ele>
        <time>2022-10-21T14:23:52.000Z</time>
      </trkpt>
      <trkpt lat="42.9969" lon="1.12967">
        <ele>446</ele>
        <time>2022-10-21T14:24:01.000Z</time>
      </trkpt>
      <trkpt lat="42.99691" lon="1.12954">
        <ele>446.1</ele>
        <time>2022-10-21T14:24:05.000Z</time>
      </trkpt>
      <trkpt lat="42.99685" lon="1.12945">
        <ele>446</ele>
        <time>2022-10-21T14:24:10.000Z</time>
      </trkpt>
      <trkpt lat="42.99675" lon="1.12941">
        <ele>446.8</ele>
        <time>2022-10-21T14:24:15.000Z</time>
      </trkpt>
      <trkpt lat="42.99667" lon="1.12936">
        <ele>448.2</ele>
        <time>2022-10-21T14:24:20.000Z</time>
      </trkpt>
      <trkpt lat="42.99658" lon="1.12931">
        <ele>448.3</ele>
        <time>2022-10-21T14:24:25.000Z</time>
      </trkpt>
      <trkpt lat="42.99647" lon="1.12925">
        <ele>448.8</ele>
        <time>2022-10-21T14:24:30.000Z</time>
      </trkpt>
      <trkpt lat="42.99637" lon="1.1292">
        <ele>449.6</ele>
        <time>2022-10-21T14:24:34.000Z</time>
      </trkpt>
      <trkpt lat="42.99628" lon="1.12915">
        <ele>449</ele>
        <time>2022-10-21T14:24:37.000Z</time>
      </trkpt>
      <trkpt lat="42.9962" lon="1.12911">
        <ele>449.2</ele>
        <time>2022-10-21T14:24:40.000Z</time>
      </trkpt>
      <trkpt lat="42.9961" lon="1.12905">
        <ele>448.8</ele>
        <time>2022-10-21T14:24:43.000Z</time>
      </trkpt>
      <trkpt lat="42.99599" lon="1.12899">
        <ele>448.7</ele>
        <time>2022-10-21T14:24:46.000Z</time>
      </trkpt>
      <trkpt lat="42.9959" lon="1.12891">
        <ele>449.4</ele>
        <time>2022-10-21T14:24:49.000Z</time>
      </trkpt>
      <trkpt lat="42.99584" lon="1.12881">
        <ele>449.6</ele>
        <time>2022-10-21T14:24:52.000Z</time>
      </trkpt>
      <trkpt lat="42.99579" lon="1.1287">
        <ele>449.4</ele>
        <time>2022-10-21T14:24:55.000Z</time>
      </trkpt>
      <trkpt lat="42.99568" lon="1.12867">
        <ele>449.7</ele>
        <time>2022-10-21T14:24:59.000Z</time>
      </trkpt>
      <trkpt lat="42.99559" lon="1.12866">
        <ele>449.8</ele>
        <time>2022-10-21T14:25:02.000Z</time>
      </trkpt>
      <trkpt lat="42.99548" lon="1.12862">
        <ele>450.6</ele>
        <time>2022-10-21T14:25:06.000Z</time>
      </trkpt>
      <trkpt lat="42.99542" lon="1.12851">
        <ele>451.1</ele>
        <time>2022-10-21T14:25:11.000Z</time>
      </trkpt>
      <trkpt lat="42.99551" lon="1.12838">
        <ele>450.6</ele>
        <time>2022-10-21T14:25:15.000Z</time>
      </trkpt>
      <trkpt lat="42.99558" lon="1.1283">
        <ele>449.2</ele>
        <time>2022-10-21T14:25:17.000Z</time>
      </trkpt>
      <trkpt lat="42.99566" lon="1.1282">
        <ele>447.8</ele>
        <time>2022-10-21T14:25:19.000Z</time>
      </trkpt>
      <trkpt lat="42.99574" lon="1.1281">
        <ele>446.1</ele>
        <time>2022-10-21T14:25:21.000Z</time>
      </trkpt>
      <trkpt lat="42.99583" lon="1.128">
        <ele>443.4</ele>
        <time>2022-10-21T14:25:23.000Z</time>
      </trkpt>
      <trkpt lat="42.99593" lon="1.1279">
        <ele>441.8</ele>
        <time>2022-10-21T14:25:25.000Z</time>
      </trkpt>
      <trkpt lat="42.99602" lon="1.12781">
        <ele>439.1</ele>
        <time>2022-10-21T14:25:27.000Z</time>
      </trkpt>
      <trkpt lat="42.99613" lon="1.12774">
        <ele>435.2</ele>
        <time>2022-10-21T14:25:30.000Z</time>
      </trkpt>
      <trkpt lat="42.99609" lon="1.12762">
        <ele>434.4</ele>
        <time>2022-10-21T14:25:37.000Z</time>
      </trkpt>
      <trkpt lat="42.996" lon="1.12753">
        <ele>434.8</ele>
        <time>2022-10-21T14:25:41.000Z</time>
      </trkpt>
      <trkpt lat="42.9959" lon="1.12745">
        <ele>435.7</ele>
        <time>2022-10-21T14:25:45.000Z</time>
      </trkpt>
      <trkpt lat="42.99581" lon="1.12742">
        <ele>437.3</ele>
        <time>2022-10-21T14:25:49.000Z</time>
      </trkpt>
      <trkpt lat="42.99572" lon="1.12737">
        <ele>437.4</ele>
        <time>2022-10-21T14:25:53.000Z</time>
      </trkpt>
      <trkpt lat="42.99563" lon="1.12733">
        <ele>438.6</ele>
        <time>2022-10-21T14:25:57.000Z</time>
      </trkpt>
      <trkpt lat="42.99555" lon="1.12728">
        <ele>439.4</ele>
        <time>2022-10-21T14:26:02.000Z</time>
      </trkpt>
      <trkpt lat="42.99544" lon="1.12732">
        <ele>441.1</ele>
        <time>2022-10-21T14:26:08.000Z</time>
      </trkpt>
      <trkpt lat="42.99534" lon="1.12735">
        <ele>442.7</ele>
        <time>2022-10-21T14:26:14.000Z</time>
      </trkpt>
      <trkpt lat="42.99524" lon="1.12734">
        <ele>444.2</ele>
        <time>2022-10-21T14:26:19.000Z</time>
      </trkpt>
      <trkpt lat="42.99514" lon="1.12731">
        <ele>444.4</ele>
        <time>2022-10-21T14:26:24.000Z</time>
      </trkpt>
      <trkpt lat="42.99507" lon="1.12724">
        <ele>445.5</ele>
        <time>2022-10-21T14:26:29.000Z</time>
      </trkpt>
      <trkpt lat="42.99497" lon="1.12721">
        <ele>446.2</ele>
        <time>2022-10-21T14:26:35.000Z</time>
      </trkpt>
      <trkpt lat="42.99487" lon="1.12717">
        <ele>446.1</ele>
        <time>2022-10-21T14:26:40.000Z</time>
      </trkpt>
      <trkpt lat="42.99479" lon="1.12713">
        <ele>445.3</ele>
        <time>2022-10-21T14:26:43.000Z</time>
      </trkpt>
      <trkpt lat="42.9947" lon="1.12707">
        <ele>445.2</ele>
        <time>2022-10-21T14:26:46.000Z</time>
      </trkpt>
      <trkpt lat="42.9946" lon="1.12703">
        <ele>445</ele>
        <time>2022-10-21T14:26:49.000Z</time>
      </trkpt>
      <trkpt lat="42.99451" lon="1.12699">
        <ele>444.3</ele>
        <time>2022-10-21T14:26:52.000Z</time>
      </trkpt>
      <trkpt lat="42.99442" lon="1.12696">
        <ele>444.8</ele>
        <time>2022-10-21T14:26:56.000Z</time>
      </trkpt>
      <trkpt lat="42.99431" lon="1.12693">
        <ele>444.9</ele>
        <time>2022-10-21T14:27:01.000Z</time>
      </trkpt>
      <trkpt lat="42.99422" lon="1.12692">
        <ele>445.1</ele>
        <time>2022-10-21T14:27:05.000Z</time>
      </trkpt>
      <trkpt lat="42.99413" lon="1.12692">
        <ele>445.1</ele>
        <time>2022-10-21T14:27:09.000Z</time>
      </trkpt>
      <trkpt lat="42.99402" lon="1.1269">
        <ele>445.2</ele>
        <time>2022-10-21T14:27:13.000Z</time>
      </trkpt>
      <trkpt lat="42.99393" lon="1.12689">
        <ele>445.2</ele>
        <time>2022-10-21T14:27:17.000Z</time>
      </trkpt>
      <trkpt lat="42.99383" lon="1.1269">
        <ele>445.5</ele>
        <time>2022-10-21T14:27:21.000Z</time>
      </trkpt>
      <trkpt lat="42.99373" lon="1.12689">
        <ele>445.7</ele>
        <time>2022-10-21T14:27:25.000Z</time>
      </trkpt>
      <trkpt lat="42.99362" lon="1.12689">
        <ele>445.6</ele>
        <time>2022-10-21T14:27:29.000Z</time>
      </trkpt>
      <trkpt lat="42.99351" lon="1.12689">
        <ele>445.5</ele>
        <time>2022-10-21T14:27:33.000Z</time>
      </trkpt>
      <trkpt lat="42.9934" lon="1.1269">
        <ele>445.6</ele>
        <time>2022-10-21T14:27:37.000Z</time>
      </trkpt>
      <trkpt lat="42.99328" lon="1.12693">
        <ele>446.6</ele>
        <time>2022-10-21T14:27:41.000Z</time>
      </trkpt>
      <trkpt lat="42.99318" lon="1.12696">
        <ele>447.7</ele>
        <time>2022-10-21T14:27:45.000Z</time>
      </trkpt>
      <trkpt lat="42.99308" lon="1.12695">
        <ele>448.1</ele>
        <time>2022-10-21T14:27:49.000Z</time>
      </trkpt>
      <trkpt lat="42.99297" lon="1.12693">
        <ele>448.4</ele>
        <time>2022-10-21T14:27:53.000Z</time>
      </trkpt>
      <trkpt lat="42.99288" lon="1.12695">
        <ele>448.5</ele>
        <time>2022-10-21T14:27:57.000Z</time>
      </trkpt>
      <trkpt lat="42.99279" lon="1.12696">
        <ele>448.9</ele>
        <time>2022-10-21T14:28:01.000Z</time>
      </trkpt>
      <trkpt lat="42.9927" lon="1.12698">
        <ele>448.6</ele>
        <time>2022-10-21T14:28:05.000Z</time>
      </trkpt>
      <trkpt lat="42.99261" lon="1.12702">
        <ele>449.6</ele>
        <time>2022-10-21T14:28:09.000Z</time>
      </trkpt>
      <trkpt lat="42.99251" lon="1.12709">
        <ele>449.5</ele>
        <time>2022-10-21T14:28:13.000Z</time>
      </trkpt>
      <trkpt lat="42.99241" lon="1.12716">
        <ele>450.1</ele>
        <time>2022-10-21T14:28:17.000Z</time>
      </trkpt>
      <trkpt lat="42.9923" lon="1.1272">
        <ele>449.6</ele>
        <time>2022-10-21T14:28:22.000Z</time>
      </trkpt>
      <trkpt lat="42.99222" lon="1.12726">
        <ele>450.1</ele>
        <time>2022-10-21T14:28:25.000Z</time>
      </trkpt>
      <trkpt lat="42.99212" lon="1.12732">
        <ele>450.1</ele>
        <time>2022-10-21T14:28:30.000Z</time>
      </trkpt>
      <trkpt lat="42.99204" lon="1.12741">
        <ele>450.5</ele>
        <time>2022-10-21T14:28:34.000Z</time>
      </trkpt>
      <trkpt lat="42.99198" lon="1.12751">
        <ele>451.1</ele>
        <time>2022-10-21T14:28:38.000Z</time>
      </trkpt>
      <trkpt lat="42.99192" lon="1.12763">
        <ele>452.6</ele>
        <time>2022-10-21T14:28:43.000Z</time>
      </trkpt>
      <trkpt lat="42.99185" lon="1.12773">
        <ele>453.3</ele>
        <time>2022-10-21T14:28:48.000Z</time>
      </trkpt>
      <trkpt lat="42.99179" lon="1.12782">
        <ele>453.9</ele>
        <time>2022-10-21T14:28:54.000Z</time>
      </trkpt>
      <trkpt lat="42.9917" lon="1.12778">
        <ele>454.2</ele>
        <time>2022-10-21T14:29:03.000Z</time>
      </trkpt>
      <trkpt lat="42.99167" lon="1.12766">
        <ele>453.1</ele>
        <time>2022-10-21T14:29:08.000Z</time>
      </trkpt>
      <trkpt lat="42.99162" lon="1.12754">
        <ele>452</ele>
        <time>2022-10-21T14:29:12.000Z</time>
      </trkpt>
      <trkpt lat="42.99154" lon="1.12746">
        <ele>453.4</ele>
        <time>2022-10-21T14:29:18.000Z</time>
      </trkpt>
      <trkpt lat="42.99144" lon="1.12743">
        <ele>454.3</ele>
        <time>2022-10-21T14:29:25.000Z</time>
      </trkpt>
      <trkpt lat="42.99134" lon="1.12743">
        <ele>455.6</ele>
        <time>2022-10-21T14:29:31.000Z</time>
      </trkpt>
      <trkpt lat="42.99124" lon="1.1274">
        <ele>457.9</ele>
        <time>2022-10-21T14:29:39.000Z</time>
      </trkpt>
      <trkpt lat="42.99116" lon="1.12734">
        <ele>459.3</ele>
        <time>2022-10-21T14:29:45.000Z</time>
      </trkpt>
      <trkpt lat="42.99108" lon="1.12725">
        <ele>460.8</ele>
        <time>2022-10-21T14:29:52.000Z</time>
      </trkpt>
      <trkpt lat="42.99099" lon="1.12725">
        <ele>462.9</ele>
        <time>2022-10-21T14:29:59.000Z</time>
      </trkpt>
      <trkpt lat="42.9909" lon="1.12727">
        <ele>464.7</ele>
        <time>2022-10-21T14:30:05.000Z</time>
      </trkpt>
      <trkpt lat="42.99081" lon="1.12725">
        <ele>466.1</ele>
        <time>2022-10-21T14:30:11.000Z</time>
      </trkpt>
      <trkpt lat="42.99072" lon="1.12722">
        <ele>467.7</ele>
        <time>2022-10-21T14:30:17.000Z</time>
      </trkpt>
      <trkpt lat="42.99062" lon="1.12721">
        <ele>469.1</ele>
        <time>2022-10-21T14:30:23.000Z</time>
      </trkpt>
      <trkpt lat="42.99054" lon="1.12714">
        <ele>469.6</ele>
        <time>2022-10-21T14:30:29.000Z</time>
      </trkpt>
      <trkpt lat="42.99047" lon="1.12705">
        <ele>470.5</ele>
        <time>2022-10-21T14:30:35.000Z</time>
      </trkpt>
      <trkpt lat="42.99038" lon="1.12696">
        <ele>470.9</ele>
        <time>2022-10-21T14:30:41.000Z</time>
      </trkpt>
      <trkpt lat="42.9903" lon="1.12686">
        <ele>470.8</ele>
        <time>2022-10-21T14:30:46.000Z</time>
      </trkpt>
      <trkpt lat="42.99019" lon="1.12679">
        <ele>470.7</ele>
        <time>2022-10-21T14:30:50.000Z</time>
      </trkpt>
      <trkpt lat="42.99009" lon="1.12672">
        <ele>469.8</ele>
        <time>2022-10-21T14:30:54.000Z</time>
      </trkpt>
      <trkpt lat="42.98999" lon="1.12666">
        <ele>469.9</ele>
        <time>2022-10-21T14:30:59.000Z</time>
      </trkpt>
      <trkpt lat="42.9899" lon="1.12664">
        <ele>470.3</ele>
        <time>2022-10-21T14:31:04.000Z</time>
      </trkpt>
      <trkpt lat="42.98987" lon="1.12651">
        <ele>470.3</ele>
        <time>2022-10-21T14:31:11.000Z</time>
      </trkpt>
      <trkpt lat="42.98987" lon="1.12638">
        <ele>470.6</ele>
        <time>2022-10-21T14:31:16.000Z</time>
      </trkpt>
      <trkpt lat="42.98981" lon="1.12628">
        <ele>470.7</ele>
        <time>2022-10-21T14:31:20.000Z</time>
      </trkpt>
      <trkpt lat="42.98977" lon="1.12616">
        <ele>470.1</ele>
        <time>2022-10-21T14:31:24.000Z</time>
      </trkpt>
      <trkpt lat="42.98981" lon="1.12605">
        <ele>468.4</ele>
        <time>2022-10-21T14:31:28.000Z</time>
      </trkpt>
      <trkpt lat="42.98988" lon="1.12592">
        <ele>465.6</ele>
        <time>2022-10-21T14:31:32.000Z</time>
      </trkpt>
      <trkpt lat="42.98989" lon="1.12578">
        <ele>463</ele>
        <time>2022-10-21T14:31:37.000Z</time>
      </trkpt>
      <trkpt lat="42.98982" lon="1.12567">
        <ele>461.1</ele>
        <time>2022-10-21T14:31:41.000Z</time>
      </trkpt>
      <trkpt lat="42.98972" lon="1.12558">
        <ele>461.3</ele>
        <time>2022-10-21T14:31:44.000Z</time>
      </trkpt>
      <trkpt lat="42.98963" lon="1.12555">
        <ele>460.7</ele>
        <time>2022-10-21T14:31:48.000Z</time>
      </trkpt>
      <trkpt lat="42.98954" lon="1.12548">
        <ele>460.6</ele>
        <time>2022-10-21T14:31:52.000Z</time>
      </trkpt>
      <trkpt lat="42.98946" lon="1.12542">
        <ele>460.4</ele>
        <time>2022-10-21T14:31:55.000Z</time>
      </trkpt>
      <trkpt lat="42.98937" lon="1.12535">
        <ele>459.1</ele>
        <time>2022-10-21T14:31:58.000Z</time>
      </trkpt>
      <trkpt lat="42.98928" lon="1.12534">
        <ele>458.6</ele>
        <time>2022-10-21T14:32:01.000Z</time>
      </trkpt>
      <trkpt lat="42.98918" lon="1.12531">
        <ele>458</ele>
        <time>2022-10-21T14:32:05.000Z</time>
      </trkpt>
      <trkpt lat="42.9891" lon="1.12521">
        <ele>457.2</ele>
        <time>2022-10-21T14:32:09.000Z</time>
      </trkpt>
      <trkpt lat="42.989" lon="1.12518">
        <ele>457.1</ele>
        <time>2022-10-21T14:32:13.000Z</time>
      </trkpt>
      <trkpt lat="42.98889" lon="1.12515">
        <ele>458.1</ele>
        <time>2022-10-21T14:32:18.000Z</time>
      </trkpt>
      <trkpt lat="42.98879" lon="1.12512">
        <ele>459.6</ele>
        <time>2022-10-21T14:32:23.000Z</time>
      </trkpt>
      <trkpt lat="42.98872" lon="1.125">
        <ele>460.7</ele>
        <time>2022-10-21T14:32:29.000Z</time>
      </trkpt>
      <trkpt lat="42.98868" lon="1.12488">
        <ele>460</ele>
        <time>2022-10-21T14:32:33.000Z</time>
      </trkpt>
      <trkpt lat="42.98861" lon="1.1248">
        <ele>460.6</ele>
        <time>2022-10-21T14:32:39.000Z</time>
      </trkpt>
      <trkpt lat="42.98851" lon="1.12475">
        <ele>460.9</ele>
        <time>2022-10-21T14:32:44.000Z</time>
      </trkpt>
      <trkpt lat="42.98843" lon="1.12469">
        <ele>461.2</ele>
        <time>2022-10-21T14:32:48.000Z</time>
      </trkpt>
      <trkpt lat="42.98834" lon="1.12463">
        <ele>461.5</ele>
        <time>2022-10-21T14:32:53.000Z</time>
      </trkpt>
      <trkpt lat="42.98823" lon="1.12458">
        <ele>461.9</ele>
        <time>2022-10-21T14:32:58.000Z</time>
      </trkpt>
      <trkpt lat="42.98812" lon="1.12458">
        <ele>463.1</ele>
        <time>2022-10-21T14:33:04.000Z</time>
      </trkpt>
      <trkpt lat="42.98802" lon="1.12454">
        <ele>463.4</ele>
        <time>2022-10-21T14:33:08.000Z</time>
      </trkpt>
      <trkpt lat="42.9879" lon="1.12448">
        <ele>461.5</ele>
        <time>2022-10-21T14:33:12.000Z</time>
      </trkpt>
      <trkpt lat="42.98781" lon="1.12447">
        <ele>460.7</ele>
        <time>2022-10-21T14:33:14.000Z</time>
      </trkpt>
      <trkpt lat="42.9877" lon="1.12449">
        <ele>461.5</ele>
        <time>2022-10-21T14:33:18.000Z</time>
      </trkpt>
      <trkpt lat="42.98759" lon="1.12449">
        <ele>461.8</ele>
        <time>2022-10-21T14:33:23.000Z</time>
      </trkpt>
      <trkpt lat="42.98747" lon="1.12446">
        <ele>460.8</ele>
        <time>2022-10-21T14:33:26.000Z</time>
      </trkpt>
      <trkpt lat="42.98737" lon="1.12444">
        <ele>460.5</ele>
        <time>2022-10-21T14:33:29.000Z</time>
      </trkpt>
      <trkpt lat="42.98727" lon="1.12451">
        <ele>460.8</ele>
        <time>2022-10-21T14:33:34.000Z</time>
      </trkpt>
      <trkpt lat="42.98718" lon="1.12457">
        <ele>461.4</ele>
        <time>2022-10-21T14:33:39.000Z</time>
      </trkpt>
      <trkpt lat="42.98706" lon="1.12458">
        <ele>461.6</ele>
        <time>2022-10-21T14:33:42.000Z</time>
      </trkpt>
      <trkpt lat="42.98694" lon="1.12456">
        <ele>461.4</ele>
        <time>2022-10-21T14:33:45.000Z</time>
      </trkpt>
      <trkpt lat="42.98683" lon="1.12454">
        <ele>461.4</ele>
        <time>2022-10-21T14:33:49.000Z</time>
      </trkpt>
      <trkpt lat="42.98673" lon="1.12449">
        <ele>461.3</ele>
        <time>2022-10-21T14:33:55.000Z</time>
      </trkpt>
      <trkpt lat="42.98666" lon="1.12438">
        <ele>460.4</ele>
        <time>2022-10-21T14:33:59.000Z</time>
      </trkpt>
      <trkpt lat="42.9866" lon="1.12425">
        <ele>460.7</ele>
        <time>2022-10-21T14:34:03.000Z</time>
      </trkpt>
      <trkpt lat="42.98655" lon="1.12414">
        <ele>459.6</ele>
        <time>2022-10-21T14:34:07.000Z</time>
      </trkpt>
      <trkpt lat="42.98653" lon="1.12402">
        <ele>459.2</ele>
        <time>2022-10-21T14:34:11.000Z</time>
      </trkpt>
      <trkpt lat="42.98647" lon="1.12392">
        <ele>458.7</ele>
        <time>2022-10-21T14:34:16.000Z</time>
      </trkpt>
      <trkpt lat="42.98638" lon="1.12384">
        <ele>459.1</ele>
        <time>2022-10-21T14:34:20.000Z</time>
      </trkpt>
      <trkpt lat="42.98629" lon="1.12377">
        <ele>459</ele>
        <time>2022-10-21T14:34:25.000Z</time>
      </trkpt>
      <trkpt lat="42.98619" lon="1.12371">
        <ele>459.7</ele>
        <time>2022-10-21T14:34:29.000Z</time>
      </trkpt>
      <trkpt lat="42.9861" lon="1.12361">
        <ele>459.7</ele>
        <time>2022-10-21T14:34:33.000Z</time>
      </trkpt>
      <trkpt lat="42.98601" lon="1.12351">
        <ele>459.2</ele>
        <time>2022-10-21T14:34:37.000Z</time>
      </trkpt>
      <trkpt lat="42.98592" lon="1.12345">
        <ele>458.9</ele>
        <time>2022-10-21T14:34:41.000Z</time>
      </trkpt>
      <trkpt lat="42.98583" lon="1.12341">
        <ele>459.8</ele>
        <time>2022-10-21T14:34:45.000Z</time>
      </trkpt>
      <trkpt lat="42.98573" lon="1.1234">
        <ele>460.7</ele>
        <time>2022-10-21T14:34:50.000Z</time>
      </trkpt>
      <trkpt lat="42.98562" lon="1.12341">
        <ele>460.7</ele>
        <time>2022-10-21T14:34:55.000Z</time>
      </trkpt>
      <trkpt lat="42.98555" lon="1.12349">
        <ele>461.9</ele>
        <time>2022-10-21T14:35:00.000Z</time>
      </trkpt>
      <trkpt lat="42.98545" lon="1.12345">
        <ele>460.9</ele>
        <time>2022-10-21T14:35:07.000Z</time>
      </trkpt>
      <trkpt lat="42.98537" lon="1.12335">
        <ele>457.6</ele>
        <time>2022-10-21T14:35:11.000Z</time>
      </trkpt>
      <trkpt lat="42.98528" lon="1.12333">
        <ele>457.1</ele>
        <time>2022-10-21T14:35:16.000Z</time>
      </trkpt>
      <trkpt lat="42.98518" lon="1.1233">
        <ele>457</ele>
        <time>2022-10-21T14:35:20.000Z</time>
      </trkpt>
      <trkpt lat="42.98508" lon="1.12328">
        <ele>456</ele>
        <time>2022-10-21T14:35:24.000Z</time>
      </trkpt>
      <trkpt lat="42.98497" lon="1.12321">
        <ele>454.1</ele>
        <time>2022-10-21T14:35:28.000Z</time>
      </trkpt>
      <trkpt lat="42.98487" lon="1.12323">
        <ele>453.4</ele>
        <time>2022-10-21T14:35:32.000Z</time>
      </trkpt>
      <trkpt lat="42.98483" lon="1.1231">
        <ele>452.7</ele>
        <time>2022-10-21T14:35:38.000Z</time>
      </trkpt>
      <trkpt lat="42.98492" lon="1.12304">
        <ele>451.7</ele>
        <time>2022-10-21T14:35:45.000Z</time>
      </trkpt>
      <trkpt lat="42.98484" lon="1.12294">
        <ele>451.1</ele>
        <time>2022-10-21T14:35:51.000Z</time>
      </trkpt>
      <trkpt lat="42.98476" lon="1.12285">
        <ele>451.5</ele>
        <time>2022-10-21T14:35:55.000Z</time>
      </trkpt>
      <trkpt lat="42.98469" lon="1.12276">
        <ele>453.1</ele>
        <time>2022-10-21T14:35:59.000Z</time>
      </trkpt>
      <trkpt lat="42.98461" lon="1.1227">
        <ele>455.5</ele>
        <time>2022-10-21T14:36:06.000Z</time>
      </trkpt>
      <trkpt lat="42.98452" lon="1.12261">
        <ele>457.2</ele>
        <time>2022-10-21T14:36:12.000Z</time>
      </trkpt>
      <trkpt lat="42.98442" lon="1.12262">
        <ele>457.7</ele>
        <time>2022-10-21T14:36:17.000Z</time>
      </trkpt>
      <trkpt lat="42.98433" lon="1.12257">
        <ele>458.9</ele>
        <time>2022-10-21T14:36:22.000Z</time>
      </trkpt>
      <trkpt lat="42.98424" lon="1.12249">
        <ele>459.1</ele>
        <time>2022-10-21T14:36:27.000Z</time>
      </trkpt>
      <trkpt lat="42.98417" lon="1.1224">
        <ele>460.2</ele>
        <time>2022-10-21T14:36:31.000Z</time>
      </trkpt>
      <trkpt lat="42.98408" lon="1.12231">
        <ele>460.8</ele>
        <time>2022-10-21T14:36:36.000Z</time>
      </trkpt>
      <trkpt lat="42.98399" lon="1.12224">
        <ele>461.2</ele>
        <time>2022-10-21T14:36:41.000Z</time>
      </trkpt>
      <trkpt lat="42.98393" lon="1.12213">
        <ele>461.9</ele>
        <time>2022-10-21T14:36:45.000Z</time>
      </trkpt>
      <trkpt lat="42.98389" lon="1.12202">
        <ele>462.4</ele>
        <time>2022-10-21T14:36:49.000Z</time>
      </trkpt>
      <trkpt lat="42.98382" lon="1.1219">
        <ele>463.4</ele>
        <time>2022-10-21T14:36:54.000Z</time>
      </trkpt>
      <trkpt lat="42.98373" lon="1.12183">
        <ele>464.2</ele>
        <time>2022-10-21T14:36:59.000Z</time>
      </trkpt>
      <trkpt lat="42.98363" lon="1.12179">
        <ele>464.4</ele>
        <time>2022-10-21T14:37:04.000Z</time>
      </trkpt>
      <trkpt lat="42.98354" lon="1.12175">
        <ele>464.8</ele>
        <time>2022-10-21T14:37:08.000Z</time>
      </trkpt>
      <trkpt lat="42.98345" lon="1.1217">
        <ele>464.2</ele>
        <time>2022-10-21T14:37:12.000Z</time>
      </trkpt>
      <trkpt lat="42.98336" lon="1.12161">
        <ele>462.7</ele>
        <time>2022-10-21T14:37:15.000Z</time>
      </trkpt>
      <trkpt lat="42.98327" lon="1.12156">
        <ele>461.7</ele>
        <time>2022-10-21T14:37:18.000Z</time>
      </trkpt>
      <trkpt lat="42.98322" lon="1.12167">
        <ele>462.7</ele>
        <time>2022-10-21T14:37:23.000Z</time>
      </trkpt>
      <trkpt lat="42.9832" lon="1.1218">
        <ele>463.6</ele>
        <time>2022-10-21T14:37:27.000Z</time>
      </trkpt>
      <trkpt lat="42.98318" lon="1.12193">
        <ele>464.8</ele>
        <time>2022-10-21T14:37:31.000Z</time>
      </trkpt>
      <trkpt lat="42.98318" lon="1.12206">
        <ele>466</ele>
        <time>2022-10-21T14:37:36.000Z</time>
      </trkpt>
      <trkpt lat="42.98318" lon="1.1222">
        <ele>466.9</ele>
        <time>2022-10-21T14:37:41.000Z</time>
      </trkpt>
      <trkpt lat="42.98315" lon="1.12235">
        <ele>466.5</ele>
        <time>2022-10-21T14:37:46.000Z</time>
      </trkpt>
      <trkpt lat="42.9831" lon="1.12246">
        <ele>465.5</ele>
        <time>2022-10-21T14:37:49.000Z</time>
      </trkpt>
      <trkpt lat="42.98303" lon="1.12258">
        <ele>463.8</ele>
        <time>2022-10-21T14:37:53.000Z</time>
      </trkpt>
      <trkpt lat="42.98295" lon="1.12268">
        <ele>463.2</ele>
        <time>2022-10-21T14:37:57.000Z</time>
      </trkpt>
      <trkpt lat="42.98287" lon="1.12276">
        <ele>461.8</ele>
        <time>2022-10-21T14:38:00.000Z</time>
      </trkpt>
      <trkpt lat="42.98277" lon="1.12283">
        <ele>459.6</ele>
        <time>2022-10-21T14:38:03.000Z</time>
      </trkpt>
      <trkpt lat="42.98267" lon="1.12296">
        <ele>459.1</ele>
        <time>2022-10-21T14:38:06.000Z</time>
      </trkpt>
      <trkpt lat="42.9826" lon="1.1231">
        <ele>459.7</ele>
        <time>2022-10-21T14:38:09.000Z</time>
      </trkpt>
      <trkpt lat="42.98253" lon="1.1232">
        <ele>459.4</ele>
        <time>2022-10-21T14:38:12.000Z</time>
      </trkpt>
      <trkpt lat="42.98247" lon="1.12331">
        <ele>460</ele>
        <time>2022-10-21T14:38:17.000Z</time>
      </trkpt>
      <trkpt lat="42.9824" lon="1.12342">
        <ele>459.7</ele>
        <time>2022-10-21T14:38:22.000Z</time>
      </trkpt>
      <trkpt lat="42.98233" lon="1.12354">
        <ele>458.5</ele>
        <time>2022-10-21T14:38:27.000Z</time>
      </trkpt>
      <trkpt lat="42.98226" lon="1.12364">
        <ele>457.5</ele>
        <time>2022-10-21T14:38:34.000Z</time>
      </trkpt>
      <trkpt lat="42.98217" lon="1.12362">
        <ele>457.1</ele>
        <time>2022-10-21T14:38:39.000Z</time>
      </trkpt>
      <trkpt lat="42.98207" lon="1.12359">
        <ele>457.1</ele>
        <time>2022-10-21T14:38:45.000Z</time>
      </trkpt>
      <trkpt lat="42.98199" lon="1.12364">
        <ele>455.8</ele>
        <time>2022-10-21T14:38:51.000Z</time>
      </trkpt>
      <trkpt lat="42.98189" lon="1.12362">
        <ele>457</ele>
        <time>2022-10-21T14:38:57.000Z</time>
      </trkpt>
      <trkpt lat="42.98179" lon="1.1236">
        <ele>456.9</ele>
        <time>2022-10-21T14:39:02.000Z</time>
      </trkpt>
      <trkpt lat="42.98171" lon="1.12354">
        <ele>457.3</ele>
        <time>2022-10-21T14:39:06.000Z</time>
      </trkpt>
      <trkpt lat="42.98166" lon="1.12341">
        <ele>458.9</ele>
        <time>2022-10-21T14:39:12.000Z</time>
      </trkpt>
      <trkpt lat="42.98162" lon="1.12329">
        <ele>461.2</ele>
        <time>2022-10-21T14:39:18.000Z</time>
      </trkpt>
      <trkpt lat="42.98158" lon="1.12316">
        <ele>462.3</ele>
        <time>2022-10-21T14:39:25.000Z</time>
      </trkpt>
      <trkpt lat="42.98153" lon="1.12304">
        <ele>462.5</ele>
        <time>2022-10-21T14:39:33.000Z</time>
      </trkpt>
      <trkpt lat="42.98145" lon="1.12296">
        <ele>462.8</ele>
        <time>2022-10-21T14:39:40.000Z</time>
      </trkpt>
      <trkpt lat="42.98139" lon="1.12286">
        <ele>463</ele>
        <time>2022-10-21T14:39:46.000Z</time>
      </trkpt>
      <trkpt lat="42.98131" lon="1.12279">
        <ele>463.7</ele>
        <time>2022-10-21T14:39:52.000Z</time>
      </trkpt>
      <trkpt lat="42.98122" lon="1.12281">
        <ele>464.3</ele>
        <time>2022-10-21T14:39:59.000Z</time>
      </trkpt>
      <trkpt lat="42.98122" lon="1.12282">
        <ele>464.6</ele>
        <time>2022-10-21T14:40:01.000Z</time>
      </trkpt>
      <trkpt lat="42.98122" lon="1.12283">
        <ele>464.7</ele>
        <time>2022-10-21T14:40:05.000Z</time>
      </trkpt>
      <trkpt lat="42.98121" lon="1.12283">
        <ele>463.9</ele>
        <time>2022-10-21T14:40:15.000Z</time>
      </trkpt>
      <trkpt lat="42.98116" lon="1.12293">
        <ele>463.6</ele>
        <time>2022-10-21T14:40:24.000Z</time>
      </trkpt>
      <trkpt lat="42.98107" lon="1.12291">
        <ele>461.8</ele>
        <time>2022-10-21T14:40:34.000Z</time>
      </trkpt>
      <trkpt lat="42.98097" lon="1.12287">
        <ele>459.8</ele>
        <time>2022-10-21T14:40:44.000Z</time>
      </trkpt>
      <trkpt lat="42.98088" lon="1.12281">
        <ele>457.4</ele>
        <time>2022-10-21T14:40:51.000Z</time>
      </trkpt>
      <trkpt lat="42.98078" lon="1.1228">
        <ele>456.7</ele>
        <time>2022-10-21T14:40:56.000Z</time>
      </trkpt>
      <trkpt lat="42.9807" lon="1.12286">
        <ele>456.8</ele>
        <time>2022-10-21T14:41:02.000Z</time>
      </trkpt>
      <trkpt lat="42.98063" lon="1.12293">
        <ele>457.5</ele>
        <time>2022-10-21T14:41:09.000Z</time>
      </trkpt>
      <trkpt lat="42.98053" lon="1.12291">
        <ele>456.7</ele>
        <time>2022-10-21T14:41:20.000Z</time>
      </trkpt>
      <trkpt lat="42.98044" lon="1.12286">
        <ele>456.5</ele>
        <time>2022-10-21T14:41:25.000Z</time>
      </trkpt>
      <trkpt lat="42.98035" lon="1.12283">
        <ele>456.2</ele>
        <time>2022-10-21T14:41:34.000Z</time>
      </trkpt>
      <trkpt lat="42.98034" lon="1.12282">
        <ele>455.4</ele>
        <time>2022-10-21T14:41:39.000Z</time>
      </trkpt>
      <trkpt lat="42.98032" lon="1.12282">
        <ele>456.2</ele>
        <time>2022-10-21T14:41:48.000Z</time>
      </trkpt>
      <trkpt lat="42.9803" lon="1.12283">
        <ele>456.2</ele>
        <time>2022-10-21T14:41:59.000Z</time>
      </trkpt>
      <trkpt lat="42.98023" lon="1.12291">
        <ele>453.7</ele>
        <time>2022-10-21T14:42:08.000Z</time>
      </trkpt>
      <trkpt lat="42.98019" lon="1.12304">
        <ele>451.3</ele>
        <time>2022-10-21T14:42:14.000Z</time>
      </trkpt>
      <trkpt lat="42.98011" lon="1.1231">
        <ele>448.8</ele>
        <time>2022-10-21T14:42:19.000Z</time>
      </trkpt>
      <trkpt lat="42.98006" lon="1.1232">
        <ele>446.3</ele>
        <time>2022-10-21T14:42:26.000Z</time>
      </trkpt>
      <trkpt lat="42.98004" lon="1.12322">
        <ele>445.2</ele>
        <time>2022-10-21T14:42:39.000Z</time>
      </trkpt>
      <trkpt lat="42.97994" lon="1.12328">
        <ele>442.1</ele>
        <time>2022-10-21T14:42:50.000Z</time>
      </trkpt>
      <trkpt lat="42.97985" lon="1.12331">
        <ele>439.9</ele>
        <time>2022-10-21T14:42:55.000Z</time>
      </trkpt>
      <trkpt lat="42.97976" lon="1.12328">
        <ele>438.9</ele>
        <time>2022-10-21T14:42:59.000Z</time>
      </trkpt>
      <trkpt lat="42.97965" lon="1.12326">
        <ele>436</ele>
        <time>2022-10-21T14:43:04.000Z</time>
      </trkpt>
      <trkpt lat="42.97957" lon="1.12321">
        <ele>434.8</ele>
        <time>2022-10-21T14:43:08.000Z</time>
      </trkpt>
      <trkpt lat="42.97947" lon="1.12316">
        <ele>433.4</ele>
        <time>2022-10-21T14:43:12.000Z</time>
      </trkpt>
      <trkpt lat="42.97936" lon="1.12314">
        <ele>431.7</ele>
        <time>2022-10-21T14:43:16.000Z</time>
      </trkpt>
      <trkpt lat="42.97927" lon="1.12314">
        <ele>430.7</ele>
        <time>2022-10-21T14:43:19.000Z</time>
      </trkpt>
      <trkpt lat="42.97918" lon="1.12318">
        <ele>428.1</ele>
        <time>2022-10-21T14:43:24.000Z</time>
      </trkpt>
      <trkpt lat="42.97908" lon="1.12318">
        <ele>425.3</ele>
        <time>2022-10-21T14:43:32.000Z</time>
      </trkpt>
      <trkpt lat="42.97899" lon="1.12326">
        <ele>422.8</ele>
        <time>2022-10-21T14:43:37.000Z</time>
      </trkpt>
      <trkpt lat="42.9789" lon="1.12329">
        <ele>421.5</ele>
        <time>2022-10-21T14:43:42.000Z</time>
      </trkpt>
      <trkpt lat="42.97881" lon="1.12324">
        <ele>419.4</ele>
        <time>2022-10-21T14:43:47.000Z</time>
      </trkpt>
      <trkpt lat="42.97873" lon="1.12317">
        <ele>417.6</ele>
        <time>2022-10-21T14:43:52.000Z</time>
      </trkpt>
      <trkpt lat="42.97869" lon="1.12323">
        <ele>414.9</ele>
        <time>2022-10-21T14:44:07.000Z</time>
      </trkpt>
      <trkpt lat="42.97841" lon="1.12245">
        <ele>417.7</ele>
      </trkpt>
      <trkpt lat="42.97832" lon="1.12226">
        <ele>417.8</ele>
      </trkpt>
      <trkpt lat="42.97862" lon="1.12212">
        <ele>421.4</ele>
      </trkpt>
      <trkpt lat="42.97865" lon="1.12211">
        <ele>423.2</ele>
        <time>2022-10-21T14:55:56.000Z</time>
      </trkpt>
      <trkpt lat="42.97867" lon="1.12209">
        <ele>423.5</ele>
        <time>2022-10-21T14:55:57.000Z</time>
      </trkpt>
      <trkpt lat="42.97875" lon="1.12204">
        <ele>424.7</ele>
        <time>2022-10-21T14:56:01.000Z</time>
      </trkpt>
      <trkpt lat="42.97886" lon="1.122">
        <ele>426.4</ele>
        <time>2022-10-21T14:56:05.000Z</time>
      </trkpt>
      <trkpt lat="42.9789" lon="1.12198">
        <ele>427.2</ele>
        <time>2022-10-21T14:56:09.000Z</time>
      </trkpt>
      <trkpt lat="42.97898" lon="1.12188">
        <ele>431.9</ele>
        <time>2022-10-21T15:02:05.000Z</time>
      </trkpt>
      <trkpt lat="42.97909" lon="1.12181">
        <ele>432.9</ele>
        <time>2022-10-21T15:02:09.000Z</time>
      </trkpt>
      <trkpt lat="42.9792" lon="1.12175">
        <ele>433.5</ele>
        <time>2022-10-21T15:02:13.000Z</time>
      </trkpt>
      <trkpt lat="42.97929" lon="1.1217">
        <ele>434</ele>
        <time>2022-10-21T15:02:16.000Z</time>
      </trkpt>
      <trkpt lat="42.9794" lon="1.12165">
        <ele>434.3</ele>
        <time>2022-10-21T15:02:19.000Z</time>
      </trkpt>
      <trkpt lat="42.97952" lon="1.12162">
        <ele>435.1</ele>
        <time>2022-10-21T15:02:22.000Z</time>
      </trkpt>
      <trkpt lat="42.97964" lon="1.12156">
        <ele>435.5</ele>
        <time>2022-10-21T15:02:25.000Z</time>
      </trkpt>
      <trkpt lat="42.97974" lon="1.12148">
        <ele>436.2</ele>
        <time>2022-10-21T15:02:28.000Z</time>
      </trkpt>
      <trkpt lat="42.97983" lon="1.1214">
        <ele>436.6</ele>
        <time>2022-10-21T15:02:31.000Z</time>
      </trkpt>
      <trkpt lat="42.97992" lon="1.12131">
        <ele>437.8</ele>
        <time>2022-10-21T15:02:34.000Z</time>
      </trkpt>
      <trkpt lat="42.98" lon="1.12122">
        <ele>437.7</ele>
        <time>2022-10-21T15:02:37.000Z</time>
      </trkpt>
      <trkpt lat="42.98007" lon="1.12113">
        <ele>437.9</ele>
        <time>2022-10-21T15:02:40.000Z</time>
      </trkpt>
      <trkpt lat="42.98015" lon="1.12106">
        <ele>438.7</ele>
        <time>2022-10-21T15:02:43.000Z</time>
      </trkpt>
      <trkpt lat="42.98024" lon="1.12097">
        <ele>439.3</ele>
        <time>2022-10-21T15:02:46.000Z</time>
      </trkpt>
      <trkpt lat="42.98032" lon="1.12086">
        <ele>439.7</ele>
        <time>2022-10-21T15:02:49.000Z</time>
      </trkpt>
      <trkpt lat="42.98036" lon="1.12073">
        <ele>440.1</ele>
        <time>2022-10-21T15:02:52.000Z</time>
      </trkpt>
      <trkpt lat="42.98035" lon="1.12058">
        <ele>440.6</ele>
        <time>2022-10-21T15:02:55.000Z</time>
      </trkpt>
      <trkpt lat="42.98034" lon="1.12041">
        <ele>439.8</ele>
        <time>2022-10-21T15:02:58.000Z</time>
      </trkpt>
      <trkpt lat="42.98034" lon="1.12039">
        <ele>439.4</ele>
        <time>2022-10-21T15:03:01.000Z</time>
      </trkpt>
      <trkpt lat="42.98034" lon="1.12038">
        <ele>439.5</ele>
        <time>2022-10-21T15:03:21.000Z</time>
      </trkpt>
      <trkpt lat="42.98031" lon="1.12026">
        <ele>438.7</ele>
        <time>2022-10-21T15:03:25.000Z</time>
      </trkpt>
      <trkpt lat="42.98031" lon="1.12009">
        <ele>438.6</ele>
        <time>2022-10-21T15:03:28.000Z</time>
      </trkpt>
      <trkpt lat="42.98036" lon="1.11998">
        <ele>438</ele>
        <time>2022-10-21T15:03:30.000Z</time>
      </trkpt>
      <trkpt lat="42.98041" lon="1.11988">
        <ele>437.7</ele>
        <time>2022-10-21T15:03:32.000Z</time>
      </trkpt>
      <trkpt lat="42.98049" lon="1.11974">
        <ele>438.3</ele>
        <time>2022-10-21T15:03:35.000Z</time>
      </trkpt>
      <trkpt lat="42.98052" lon="1.1196">
        <ele>438.4</ele>
        <time>2022-10-21T15:03:38.000Z</time>
      </trkpt>
      <trkpt lat="42.98053" lon="1.11946">
        <ele>439.2</ele>
        <time>2022-10-21T15:03:41.000Z</time>
      </trkpt>
      <trkpt lat="42.98052" lon="1.11932">
        <ele>440.1</ele>
        <time>2022-10-21T15:03:44.000Z</time>
      </trkpt>
      <trkpt lat="42.98051" lon="1.11917">
        <ele>440.6</ele>
        <time>2022-10-21T15:03:47.000Z</time>
      </trkpt>
      <trkpt lat="42.9805" lon="1.11903">
        <ele>441.6</ele>
        <time>2022-10-21T15:03:50.000Z</time>
      </trkpt>
      <trkpt lat="42.98053" lon="1.11889">
        <ele>442.8</ele>
        <time>2022-10-21T15:03:53.000Z</time>
      </trkpt>
      <trkpt lat="42.98056" lon="1.11877">
        <ele>444.1</ele>
        <time>2022-10-21T15:03:56.000Z</time>
      </trkpt>
      <trkpt lat="42.98062" lon="1.11866">
        <ele>445.1</ele>
        <time>2022-10-21T15:03:59.000Z</time>
      </trkpt>
      <trkpt lat="42.98068" lon="1.11858">
        <ele>446.1</ele>
        <time>2022-10-21T15:04:02.000Z</time>
      </trkpt>
      <trkpt lat="42.98076" lon="1.1185">
        <ele>447.1</ele>
        <time>2022-10-21T15:04:05.000Z</time>
      </trkpt>
      <trkpt lat="42.98083" lon="1.11842">
        <ele>447.9</ele>
        <time>2022-10-21T15:04:08.000Z</time>
      </trkpt>
      <trkpt lat="42.9809" lon="1.11835">
        <ele>448.6</ele>
        <time>2022-10-21T15:04:11.000Z</time>
      </trkpt>
      <trkpt lat="42.98098" lon="1.11828">
        <ele>449.6</ele>
        <time>2022-10-21T15:04:14.000Z</time>
      </trkpt>
      <trkpt lat="42.98107" lon="1.11819">
        <ele>450.5</ele>
        <time>2022-10-21T15:04:18.000Z</time>
      </trkpt>
      <trkpt lat="42.98117" lon="1.1181">
        <ele>451.1</ele>
        <time>2022-10-21T15:04:22.000Z</time>
      </trkpt>
      <trkpt lat="42.98126" lon="1.11801">
        <ele>452.4</ele>
        <time>2022-10-21T15:04:26.000Z</time>
      </trkpt>
      <trkpt lat="42.98134" lon="1.11793">
        <ele>452.8</ele>
        <time>2022-10-21T15:04:29.000Z</time>
      </trkpt>
      <trkpt lat="42.98143" lon="1.11786">
        <ele>453.3</ele>
        <time>2022-10-21T15:04:32.000Z</time>
      </trkpt>
      <trkpt lat="42.98151" lon="1.11779">
        <ele>453.7</ele>
        <time>2022-10-21T15:04:35.000Z</time>
      </trkpt>
      <trkpt lat="42.98158" lon="1.1177">
        <ele>454.1</ele>
        <time>2022-10-21T15:04:38.000Z</time>
      </trkpt>
      <trkpt lat="42.98165" lon="1.11761">
        <ele>454.2</ele>
        <time>2022-10-21T15:04:41.000Z</time>
      </trkpt>
      <trkpt lat="42.98171" lon="1.1175">
        <ele>454.8</ele>
        <time>2022-10-21T15:04:44.000Z</time>
      </trkpt>
      <trkpt lat="42.98175" lon="1.11738">
        <ele>455.3</ele>
        <time>2022-10-21T15:04:47.000Z</time>
      </trkpt>
      <trkpt lat="42.9818" lon="1.11727">
        <ele>455.8</ele>
        <time>2022-10-21T15:04:50.000Z</time>
      </trkpt>
      <trkpt lat="42.98184" lon="1.11715">
        <ele>456.2</ele>
        <time>2022-10-21T15:04:53.000Z</time>
      </trkpt>
      <trkpt lat="42.98189" lon="1.11704">
        <ele>456.6</ele>
        <time>2022-10-21T15:04:56.000Z</time>
      </trkpt>
      <trkpt lat="42.98194" lon="1.11691">
        <ele>457.3</ele>
        <time>2022-10-21T15:04:59.000Z</time>
      </trkpt>
      <trkpt lat="42.982" lon="1.11678">
        <ele>457</ele>
        <time>2022-10-21T15:05:02.000Z</time>
      </trkpt>
      <trkpt lat="42.98207" lon="1.11664">
        <ele>456.8</ele>
        <time>2022-10-21T15:05:05.000Z</time>
      </trkpt>
      <trkpt lat="42.98214" lon="1.1165">
        <ele>456.9</ele>
        <time>2022-10-21T15:05:08.000Z</time>
      </trkpt>
      <trkpt lat="42.98221" lon="1.11635">
        <ele>456.7</ele>
        <time>2022-10-21T15:05:11.000Z</time>
      </trkpt>
      <trkpt lat="42.98227" lon="1.11621">
        <ele>457</ele>
        <time>2022-10-21T15:05:14.000Z</time>
      </trkpt>
      <trkpt lat="42.98233" lon="1.11608">
        <ele>456.8</ele>
        <time>2022-10-21T15:05:17.000Z</time>
      </trkpt>
      <trkpt lat="42.98239" lon="1.11595">
        <ele>457</ele>
        <time>2022-10-21T15:05:20.000Z</time>
      </trkpt>
      <trkpt lat="42.98245" lon="1.11584">
        <ele>457.3</ele>
        <time>2022-10-21T15:05:23.000Z</time>
      </trkpt>
      <trkpt lat="42.98252" lon="1.11572">
        <ele>457.6</ele>
        <time>2022-10-21T15:05:26.000Z</time>
      </trkpt>
      <trkpt lat="42.98258" lon="1.11559">
        <ele>458.1</ele>
        <time>2022-10-21T15:05:29.000Z</time>
      </trkpt>
      <trkpt lat="42.98263" lon="1.11548">
        <ele>458.5</ele>
        <time>2022-10-21T15:05:32.000Z</time>
      </trkpt>
      <trkpt lat="42.98269" lon="1.11536">
        <ele>458.7</ele>
        <time>2022-10-21T15:05:35.000Z</time>
      </trkpt>
      <trkpt lat="42.98274" lon="1.11524">
        <ele>459.6</ele>
        <time>2022-10-21T15:05:38.000Z</time>
      </trkpt>
      <trkpt lat="42.9828" lon="1.11513">
        <ele>459.9</ele>
        <time>2022-10-21T15:05:41.000Z</time>
      </trkpt>
      <trkpt lat="42.98285" lon="1.11502">
        <ele>460.2</ele>
        <time>2022-10-21T15:05:44.000Z</time>
      </trkpt>
      <trkpt lat="42.98288" lon="1.11486">
        <ele>460.9</ele>
        <time>2022-10-21T15:05:48.000Z</time>
      </trkpt>
      <trkpt lat="42.98289" lon="1.11469">
        <ele>461.7</ele>
        <time>2022-10-21T15:05:52.000Z</time>
      </trkpt>
      <trkpt lat="42.98288" lon="1.11456">
        <ele>461.5</ele>
        <time>2022-10-21T15:05:55.000Z</time>
      </trkpt>
      <trkpt lat="42.98285" lon="1.11441">
        <ele>461.4</ele>
        <time>2022-10-21T15:05:58.000Z</time>
      </trkpt>
      <trkpt lat="42.98283" lon="1.11425">
        <ele>461.3</ele>
        <time>2022-10-21T15:06:01.000Z</time>
      </trkpt>
      <trkpt lat="42.98281" lon="1.11407">
        <ele>461.5</ele>
        <time>2022-10-21T15:06:04.000Z</time>
      </trkpt>
      <trkpt lat="42.9828" lon="1.1139">
        <ele>461.5</ele>
        <time>2022-10-21T15:06:07.000Z</time>
      </trkpt>
      <trkpt lat="42.98279" lon="1.11372">
        <ele>461.5</ele>
        <time>2022-10-21T15:06:10.000Z</time>
      </trkpt>
      <trkpt lat="42.98279" lon="1.11356">
        <ele>461.3</ele>
        <time>2022-10-21T15:06:13.000Z</time>
      </trkpt>
      <trkpt lat="42.9828" lon="1.1134">
        <ele>461.5</ele>
        <time>2022-10-21T15:06:16.000Z</time>
      </trkpt>
      <trkpt lat="42.9828" lon="1.11324">
        <ele>461.8</ele>
        <time>2022-10-21T15:06:19.000Z</time>
      </trkpt>
      <trkpt lat="42.98281" lon="1.11309">
        <ele>462.1</ele>
        <time>2022-10-21T15:06:22.000Z</time>
      </trkpt>
      <trkpt lat="42.98282" lon="1.11294">
        <ele>462.3</ele>
        <time>2022-10-21T15:06:25.000Z</time>
      </trkpt>
      <trkpt lat="42.98283" lon="1.11279">
        <ele>462</ele>
        <time>2022-10-21T15:06:28.000Z</time>
      </trkpt>
      <trkpt lat="42.98285" lon="1.11264">
        <ele>462.5</ele>
        <time>2022-10-21T15:06:31.000Z</time>
      </trkpt>
      <trkpt lat="42.98288" lon="1.1125">
        <ele>463.3</ele>
        <time>2022-10-21T15:06:34.000Z</time>
      </trkpt>
      <trkpt lat="42.98292" lon="1.11236">
        <ele>463.4</ele>
        <time>2022-10-21T15:06:37.000Z</time>
      </trkpt>
      <trkpt lat="42.98297" lon="1.11221">
        <ele>463.3</ele>
        <time>2022-10-21T15:06:40.000Z</time>
      </trkpt>
      <trkpt lat="42.98301" lon="1.1121">
        <ele>462.9</ele>
        <time>2022-10-21T15:06:42.000Z</time>
      </trkpt>
      <trkpt lat="42.98305" lon="1.11197">
        <ele>462.2</ele>
        <time>2022-10-21T15:06:44.000Z</time>
      </trkpt>
      <trkpt lat="42.9831" lon="1.11183">
        <ele>461.2</ele>
        <time>2022-10-21T15:06:46.000Z</time>
      </trkpt>
      <trkpt lat="42.98316" lon="1.11167">
        <ele>459.9</ele>
        <time>2022-10-21T15:06:48.000Z</time>
      </trkpt>
      <trkpt lat="42.98321" lon="1.11152">
        <ele>459.4</ele>
        <time>2022-10-21T15:06:50.000Z</time>
      </trkpt>
      <trkpt lat="42.98326" lon="1.11135">
        <ele>458.6</ele>
        <time>2022-10-21T15:06:52.000Z</time>
      </trkpt>
      <trkpt lat="42.98329" lon="1.11117">
        <ele>457.8</ele>
        <time>2022-10-21T15:06:54.000Z</time>
      </trkpt>
      <trkpt lat="42.98332" lon="1.11097">
        <ele>456.5</ele>
        <time>2022-10-21T15:06:56.000Z</time>
      </trkpt>
      <trkpt lat="42.98336" lon="1.11079">
        <ele>454.9</ele>
        <time>2022-10-21T15:06:58.000Z</time>
      </trkpt>
      <trkpt lat="42.98347" lon="1.11068">
        <ele>453</ele>
        <time>2022-10-21T15:07:00.000Z</time>
      </trkpt>
      <trkpt lat="42.98365" lon="1.11066">
        <ele>450.5</ele>
        <time>2022-10-21T15:07:02.000Z</time>
      </trkpt>
      <trkpt lat="42.98375" lon="1.11068">
        <ele>449.2</ele>
        <time>2022-10-21T15:07:03.000Z</time>
      </trkpt>
      <trkpt lat="42.98386" lon="1.11072">
        <ele>448.1</ele>
        <time>2022-10-21T15:07:04.000Z</time>
      </trkpt>
      <trkpt lat="42.98396" lon="1.11078">
        <ele>447</ele>
        <time>2022-10-21T15:07:05.000Z</time>
      </trkpt>
      <trkpt lat="42.98407" lon="1.11084">
        <ele>446.1</ele>
        <time>2022-10-21T15:07:06.000Z</time>
      </trkpt>
      <trkpt lat="42.98417" lon="1.11089">
        <ele>445.3</ele>
        <time>2022-10-21T15:07:07.000Z</time>
      </trkpt>
      <trkpt lat="42.98426" lon="1.11093">
        <ele>443.6</ele>
        <time>2022-10-21T15:07:08.000Z</time>
      </trkpt>
      <trkpt lat="42.98443" lon="1.11101">
        <ele>441.7</ele>
        <time>2022-10-21T15:07:10.000Z</time>
      </trkpt>
      <trkpt lat="42.98452" lon="1.11104">
        <ele>440.9</ele>
        <time>2022-10-21T15:07:11.000Z</time>
      </trkpt>
      <trkpt lat="42.9846" lon="1.11108">
        <ele>440</ele>
        <time>2022-10-21T15:07:12.000Z</time>
      </trkpt>
      <trkpt lat="42.98476" lon="1.11114">
        <ele>438.3</ele>
        <time>2022-10-21T15:07:14.000Z</time>
      </trkpt>
      <trkpt lat="42.98492" lon="1.11119">
        <ele>436.8</ele>
        <time>2022-10-21T15:07:16.000Z</time>
      </trkpt>
      <trkpt lat="42.98509" lon="1.11124">
        <ele>433.5</ele>
        <time>2022-10-21T15:07:18.000Z</time>
      </trkpt>
      <trkpt lat="42.98524" lon="1.11128">
        <ele>431.5</ele>
        <time>2022-10-21T15:07:20.000Z</time>
      </trkpt>
      <trkpt lat="42.98536" lon="1.1113">
        <ele>429.9</ele>
        <time>2022-10-21T15:07:22.000Z</time>
      </trkpt>
      <trkpt lat="42.98546" lon="1.11128">
        <ele>428.9</ele>
        <time>2022-10-21T15:07:24.000Z</time>
      </trkpt>
      <trkpt lat="42.98552" lon="1.11118">
        <ele>427.8</ele>
        <time>2022-10-21T15:07:26.000Z</time>
      </trkpt>
      <trkpt lat="42.98552" lon="1.11103">
        <ele>427.1</ele>
        <time>2022-10-21T15:07:28.000Z</time>
      </trkpt>
      <trkpt lat="42.98544" lon="1.11088">
        <ele>426.6</ele>
        <time>2022-10-21T15:07:30.000Z</time>
      </trkpt>
      <trkpt lat="42.98536" lon="1.11073">
        <ele>426</ele>
        <time>2022-10-21T15:07:32.000Z</time>
      </trkpt>
      <trkpt lat="42.9853" lon="1.11058">
        <ele>425.5</ele>
        <time>2022-10-21T15:07:34.000Z</time>
      </trkpt>
      <trkpt lat="42.98525" lon="1.11042">
        <ele>424.9</ele>
        <time>2022-10-21T15:07:36.000Z</time>
      </trkpt>
      <trkpt lat="42.98521" lon="1.11027">
        <ele>425.1</ele>
        <time>2022-10-21T15:07:38.000Z</time>
      </trkpt>
      <trkpt lat="42.98517" lon="1.11015">
        <ele>425.4</ele>
        <time>2022-10-21T15:07:40.000Z</time>
      </trkpt>
      <trkpt lat="42.98515" lon="1.11001">
        <ele>425.5</ele>
        <time>2022-10-21T15:07:43.000Z</time>
      </trkpt>
      <trkpt lat="42.98517" lon="1.10984">
        <ele>425.2</ele>
        <time>2022-10-21T15:07:46.000Z</time>
      </trkpt>
      <trkpt lat="42.98519" lon="1.10966">
        <ele>425.1</ele>
        <time>2022-10-21T15:07:49.000Z</time>
      </trkpt>
      <trkpt lat="42.9852" lon="1.10952">
        <ele>424.7</ele>
        <time>2022-10-21T15:07:51.000Z</time>
      </trkpt>
      <trkpt lat="42.98521" lon="1.10938">
        <ele>424.3</ele>
        <time>2022-10-21T15:07:53.000Z</time>
      </trkpt>
      <trkpt lat="42.98521" lon="1.10923">
        <ele>423.9</ele>
        <time>2022-10-21T15:07:55.000Z</time>
      </trkpt>
      <trkpt lat="42.98523" lon="1.10909">
        <ele>423.5</ele>
        <time>2022-10-21T15:07:57.000Z</time>
      </trkpt>
      <trkpt lat="42.9853" lon="1.109">
        <ele>423.5</ele>
        <time>2022-10-21T15:07:59.000Z</time>
      </trkpt>
      <trkpt lat="42.98543" lon="1.10897">
        <ele>424.2</ele>
        <time>2022-10-21T15:08:02.000Z</time>
      </trkpt>
      <trkpt lat="42.98552" lon="1.10895">
        <ele>425.1</ele>
        <time>2022-10-21T15:08:05.000Z</time>
      </trkpt>
      <trkpt lat="42.98562" lon="1.10889">
        <ele>426.2</ele>
        <time>2022-10-21T15:08:09.000Z</time>
      </trkpt>
      <trkpt lat="42.9857" lon="1.10879">
        <ele>427.5</ele>
        <time>2022-10-21T15:08:13.000Z</time>
      </trkpt>
      <trkpt lat="42.98577" lon="1.10868">
        <ele>428.2</ele>
        <time>2022-10-21T15:08:17.000Z</time>
      </trkpt>
      <trkpt lat="42.98584" lon="1.10857">
        <ele>429.5</ele>
        <time>2022-10-21T15:08:21.000Z</time>
      </trkpt>
      <trkpt lat="42.98588" lon="1.10844">
        <ele>430.1</ele>
        <time>2022-10-21T15:08:25.000Z</time>
      </trkpt>
      <trkpt lat="42.98594" lon="1.10833">
        <ele>430.8</ele>
        <time>2022-10-21T15:08:29.000Z</time>
      </trkpt>
      <trkpt lat="42.98602" lon="1.10827">
        <ele>430.9</ele>
        <time>2022-10-21T15:08:32.000Z</time>
      </trkpt>
      <trkpt lat="42.98612" lon="1.10827">
        <ele>430.7</ele>
        <time>2022-10-21T15:08:35.000Z</time>
      </trkpt>
      <trkpt lat="42.9862" lon="1.10833">
        <ele>430.7</ele>
        <time>2022-10-21T15:08:38.000Z</time>
      </trkpt>
      <trkpt lat="42.98628" lon="1.1084">
        <ele>430.8</ele>
        <time>2022-10-21T15:08:41.000Z</time>
      </trkpt>
      <trkpt lat="42.98638" lon="1.10842">
        <ele>431.8</ele>
        <time>2022-10-21T15:08:45.000Z</time>
      </trkpt>
      <trkpt lat="42.98646" lon="1.10833">
        <ele>433.1</ele>
        <time>2022-10-21T15:08:50.000Z</time>
      </trkpt>
      <trkpt lat="42.98653" lon="1.10826">
        <ele>434.4</ele>
        <time>2022-10-21T15:08:55.000Z</time>
      </trkpt>
      <trkpt lat="42.98662" lon="1.10818">
        <ele>435.8</ele>
        <time>2022-10-21T15:09:00.000Z</time>
      </trkpt>
      <trkpt lat="42.9867" lon="1.10811">
        <ele>437.5</ele>
        <time>2022-10-21T15:09:05.000Z</time>
      </trkpt>
      <trkpt lat="42.98678" lon="1.10803">
        <ele>438.6</ele>
        <time>2022-10-21T15:09:10.000Z</time>
      </trkpt>
      <trkpt lat="42.98686" lon="1.10795">
        <ele>439.5</ele>
        <time>2022-10-21T15:09:15.000Z</time>
      </trkpt>
      <trkpt lat="42.98693" lon="1.10787">
        <ele>440.8</ele>
        <time>2022-10-21T15:09:19.000Z</time>
      </trkpt>
      <trkpt lat="42.98702" lon="1.10779">
        <ele>442</ele>
        <time>2022-10-21T15:09:24.000Z</time>
      </trkpt>
      <trkpt lat="42.98709" lon="1.10772">
        <ele>443.8</ele>
        <time>2022-10-21T15:09:29.000Z</time>
      </trkpt>
      <trkpt lat="42.98718" lon="1.10764">
        <ele>444.8</ele>
        <time>2022-10-21T15:09:35.000Z</time>
      </trkpt>
      <trkpt lat="42.98725" lon="1.10754">
        <ele>446.2</ele>
        <time>2022-10-21T15:09:41.000Z</time>
      </trkpt>
      <trkpt lat="42.9873" lon="1.10743">
        <ele>447.5</ele>
        <time>2022-10-21T15:09:47.000Z</time>
      </trkpt>
      <trkpt lat="42.98734" lon="1.10731">
        <ele>449.3</ele>
        <time>2022-10-21T15:09:54.000Z</time>
      </trkpt>
      <trkpt lat="42.98739" lon="1.1072">
        <ele>451.1</ele>
        <time>2022-10-21T15:10:01.000Z</time>
      </trkpt>
      <trkpt lat="42.98743" lon="1.10707">
        <ele>452.8</ele>
        <time>2022-10-21T15:10:08.000Z</time>
      </trkpt>
      <trkpt lat="42.98747" lon="1.10696">
        <ele>453.9</ele>
        <time>2022-10-21T15:10:14.000Z</time>
      </trkpt>
      <trkpt lat="42.98751" lon="1.10683">
        <ele>455.3</ele>
        <time>2022-10-21T15:10:21.000Z</time>
      </trkpt>
      <trkpt lat="42.98754" lon="1.10671">
        <ele>457</ele>
        <time>2022-10-21T15:10:27.000Z</time>
      </trkpt>
      <trkpt lat="42.98758" lon="1.10659">
        <ele>458.2</ele>
        <time>2022-10-21T15:10:33.000Z</time>
      </trkpt>
      <trkpt lat="42.9876" lon="1.10646">
        <ele>459.3</ele>
        <time>2022-10-21T15:10:39.000Z</time>
      </trkpt>
      <trkpt lat="42.98762" lon="1.10633">
        <ele>460</ele>
        <time>2022-10-21T15:10:44.000Z</time>
      </trkpt>
      <trkpt lat="42.98765" lon="1.1062">
        <ele>460.9</ele>
        <time>2022-10-21T15:10:49.000Z</time>
      </trkpt>
      <trkpt lat="42.9877" lon="1.10607">
        <ele>461.6</ele>
        <time>2022-10-21T15:10:54.000Z</time>
      </trkpt>
      <trkpt lat="42.98775" lon="1.10593">
        <ele>461.8</ele>
        <time>2022-10-21T15:10:59.000Z</time>
      </trkpt>
      <trkpt lat="42.9878" lon="1.1058">
        <ele>462.3</ele>
        <time>2022-10-21T15:11:04.000Z</time>
      </trkpt>
      <trkpt lat="42.98785" lon="1.10567">
        <ele>462.8</ele>
        <time>2022-10-21T15:11:09.000Z</time>
      </trkpt>
      <trkpt lat="42.98789" lon="1.10554">
        <ele>463.3</ele>
        <time>2022-10-21T15:11:14.000Z</time>
      </trkpt>
      <trkpt lat="42.98794" lon="1.10543">
        <ele>463.7</ele>
        <time>2022-10-21T15:11:18.000Z</time>
      </trkpt>
      <trkpt lat="42.98799" lon="1.10529">
        <ele>464.5</ele>
        <time>2022-10-21T15:11:23.000Z</time>
      </trkpt>
      <trkpt lat="42.98804" lon="1.10517">
        <ele>465</ele>
        <time>2022-10-21T15:11:28.000Z</time>
      </trkpt>
      <trkpt lat="42.98809" lon="1.10503">
        <ele>465.6</ele>
        <time>2022-10-21T15:11:33.000Z</time>
      </trkpt>
      <trkpt lat="42.98814" lon="1.1049">
        <ele>466</ele>
        <time>2022-10-21T15:11:38.000Z</time>
      </trkpt>
      <trkpt lat="42.98819" lon="1.10477">
        <ele>466.5</ele>
        <time>2022-10-21T15:11:43.000Z</time>
      </trkpt>
      <trkpt lat="42.98823" lon="1.10466">
        <ele>466.6</ele>
        <time>2022-10-21T15:11:47.000Z</time>
      </trkpt>
      <trkpt lat="42.98827" lon="1.10453">
        <ele>466.9</ele>
        <time>2022-10-21T15:11:51.000Z</time>
      </trkpt>
      <trkpt lat="42.98831" lon="1.10441">
        <ele>467</ele>
        <time>2022-10-21T15:11:55.000Z</time>
      </trkpt>
      <trkpt lat="42.98836" lon="1.10428">
        <ele>467.5</ele>
        <time>2022-10-21T15:11:59.000Z</time>
      </trkpt>
      <trkpt lat="42.9884" lon="1.10415">
        <ele>467.6</ele>
        <time>2022-10-21T15:12:03.000Z</time>
      </trkpt>
      <trkpt lat="42.98845" lon="1.10403">
        <ele>467.6</ele>
        <time>2022-10-21T15:12:07.000Z</time>
      </trkpt>
      <trkpt lat="42.98849" lon="1.10392">
        <ele>468.1</ele>
        <time>2022-10-21T15:12:11.000Z</time>
      </trkpt>
      <trkpt lat="42.98852" lon="1.1038">
        <ele>468.5</ele>
        <time>2022-10-21T15:12:15.000Z</time>
      </trkpt>
      <trkpt lat="42.98858" lon="1.1037">
        <ele>469</ele>
        <time>2022-10-21T15:12:19.000Z</time>
      </trkpt>
      <trkpt lat="42.98864" lon="1.10357">
        <ele>468.4</ele>
        <time>2022-10-21T15:12:23.000Z</time>
      </trkpt>
      <trkpt lat="42.98864" lon="1.10343">
        <ele>468.2</ele>
        <time>2022-10-21T15:12:26.000Z</time>
      </trkpt>
      <trkpt lat="42.9886" lon="1.10329">
        <ele>469</ele>
        <time>2022-10-21T15:12:30.000Z</time>
      </trkpt>
      <trkpt lat="42.98857" lon="1.10315">
        <ele>470.1</ele>
        <time>2022-10-21T15:12:35.000Z</time>
      </trkpt>
      <trkpt lat="42.98854" lon="1.103">
        <ele>471.3</ele>
        <time>2022-10-21T15:12:40.000Z</time>
      </trkpt>
      <trkpt lat="42.98852" lon="1.10286">
        <ele>472.2</ele>
        <time>2022-10-21T15:12:45.000Z</time>
      </trkpt>
      <trkpt lat="42.9885" lon="1.10273">
        <ele>473.2</ele>
        <time>2022-10-21T15:12:50.000Z</time>
      </trkpt>
      <trkpt lat="42.98846" lon="1.10261">
        <ele>474.5</ele>
        <time>2022-10-21T15:12:55.000Z</time>
      </trkpt>
      <trkpt lat="42.98844" lon="1.10247">
        <ele>476.3</ele>
        <time>2022-10-21T15:13:01.000Z</time>
      </trkpt>
      <trkpt lat="42.98842" lon="1.10234">
        <ele>477.8</ele>
        <time>2022-10-21T15:13:07.000Z</time>
      </trkpt>
      <trkpt lat="42.9884" lon="1.10221">
        <ele>479.6</ele>
        <time>2022-10-21T15:13:13.000Z</time>
      </trkpt>
      <trkpt lat="42.98839" lon="1.10207">
        <ele>481.3</ele>
        <time>2022-10-21T15:13:20.000Z</time>
      </trkpt>
      <trkpt lat="42.9884" lon="1.10194">
        <ele>483.3</ele>
        <time>2022-10-21T15:13:27.000Z</time>
      </trkpt>
      <trkpt lat="42.98842" lon="1.10181">
        <ele>485.6</ele>
        <time>2022-10-21T15:13:34.000Z</time>
      </trkpt>
      <trkpt lat="42.98847" lon="1.10168">
        <ele>487.8</ele>
        <time>2022-10-21T15:13:41.000Z</time>
      </trkpt>
      <trkpt lat="42.9885" lon="1.10155">
        <ele>489.9</ele>
        <time>2022-10-21T15:13:48.000Z</time>
      </trkpt>
      <trkpt lat="42.98855" lon="1.10144">
        <ele>492.2</ele>
        <time>2022-10-21T15:13:55.000Z</time>
      </trkpt>
      <trkpt lat="42.9886" lon="1.10132">
        <ele>494.1</ele>
        <time>2022-10-21T15:14:01.000Z</time>
      </trkpt>
      <trkpt lat="42.98864" lon="1.10121">
        <ele>495.8</ele>
        <time>2022-10-21T15:14:07.000Z</time>
      </trkpt>
      <trkpt lat="42.9887" lon="1.10109">
        <ele>497.3</ele>
        <time>2022-10-21T15:14:14.000Z</time>
      </trkpt>
      <trkpt lat="42.98875" lon="1.101">
        <ele>499</ele>
        <time>2022-10-21T15:14:20.000Z</time>
      </trkpt>
      <trkpt lat="42.98883" lon="1.10091">
        <ele>500</ele>
        <time>2022-10-21T15:14:25.000Z</time>
      </trkpt>
      <trkpt lat="42.98888" lon="1.10078">
        <ele>501</ele>
        <time>2022-10-21T15:14:31.000Z</time>
      </trkpt>
      <trkpt lat="42.98893" lon="1.10066">
        <ele>503</ele>
        <time>2022-10-21T15:14:36.000Z</time>
      </trkpt>
      <trkpt lat="42.98897" lon="1.10055">
        <ele>504.7</ele>
        <time>2022-10-21T15:14:41.000Z</time>
      </trkpt>
      <trkpt lat="42.98904" lon="1.10043">
        <ele>505.8</ele>
        <time>2022-10-21T15:14:47.000Z</time>
      </trkpt>
      <trkpt lat="42.9891" lon="1.10033">
        <ele>507.1</ele>
        <time>2022-10-21T15:14:53.000Z</time>
      </trkpt>
      <trkpt lat="42.98917" lon="1.10023">
        <ele>507.7</ele>
        <time>2022-10-21T15:14:58.000Z</time>
      </trkpt>
      <trkpt lat="42.98924" lon="1.10013">
        <ele>508.9</ele>
        <time>2022-10-21T15:15:04.000Z</time>
      </trkpt>
      <trkpt lat="42.98931" lon="1.10005">
        <ele>509.3</ele>
        <time>2022-10-21T15:15:09.000Z</time>
      </trkpt>
      <trkpt lat="42.98938" lon="1.09996">
        <ele>509.3</ele>
        <time>2022-10-21T15:15:14.000Z</time>
      </trkpt>
      <trkpt lat="42.98945" lon="1.09985">
        <ele>509.2</ele>
        <time>2022-10-21T15:15:19.000Z</time>
      </trkpt>
      <trkpt lat="42.98951" lon="1.09973">
        <ele>509.4</ele>
        <time>2022-10-21T15:15:24.000Z</time>
      </trkpt>
      <trkpt lat="42.98953" lon="1.0996">
        <ele>510.3</ele>
        <time>2022-10-21T15:15:29.000Z</time>
      </trkpt>
      <trkpt lat="42.98954" lon="1.09946">
        <ele>511.5</ele>
        <time>2022-10-21T15:15:35.000Z</time>
      </trkpt>
      <trkpt lat="42.98962" lon="1.09937">
        <ele>512.4</ele>
        <time>2022-10-21T15:15:41.000Z</time>
      </trkpt>
      <trkpt lat="42.98968" lon="1.09926">
        <ele>513.1</ele>
        <time>2022-10-21T15:15:47.000Z</time>
      </trkpt>
      <trkpt lat="42.98975" lon="1.09915">
        <ele>515.3</ele>
        <time>2022-10-21T15:15:53.000Z</time>
      </trkpt>
      <trkpt lat="42.98983" lon="1.09906">
        <ele>516.8</ele>
        <time>2022-10-21T15:15:58.000Z</time>
      </trkpt>
      <trkpt lat="42.98989" lon="1.09897">
        <ele>518.9</ele>
        <time>2022-10-21T15:16:03.000Z</time>
      </trkpt>
      <trkpt lat="42.98994" lon="1.09884">
        <ele>520.8</ele>
        <time>2022-10-21T15:16:09.000Z</time>
      </trkpt>
      <trkpt lat="42.98999" lon="1.09872">
        <ele>521.7</ele>
        <time>2022-10-21T15:16:15.000Z</time>
      </trkpt>
      <trkpt lat="42.99003" lon="1.09859">
        <ele>521.9</ele>
        <time>2022-10-21T15:16:20.000Z</time>
      </trkpt>
      <trkpt lat="42.99004" lon="1.09846">
        <ele>521.4</ele>
        <time>2022-10-21T15:16:23.000Z</time>
      </trkpt>
      <trkpt lat="42.99002" lon="1.09831">
        <ele>521.3</ele>
        <time>2022-10-21T15:16:26.000Z</time>
      </trkpt>
      <trkpt lat="42.98996" lon="1.09821">
        <ele>521.8</ele>
        <time>2022-10-21T15:16:30.000Z</time>
      </trkpt>
      <trkpt lat="42.98988" lon="1.09813">
        <ele>522.4</ele>
        <time>2022-10-21T15:16:34.000Z</time>
      </trkpt>
      <trkpt lat="42.98981" lon="1.09805">
        <ele>522.8</ele>
        <time>2022-10-21T15:16:38.000Z</time>
      </trkpt>
      <trkpt lat="42.98973" lon="1.09797">
        <ele>523</ele>
        <time>2022-10-21T15:16:42.000Z</time>
      </trkpt>
      <trkpt lat="42.98965" lon="1.09788">
        <ele>523.7</ele>
        <time>2022-10-21T15:16:47.000Z</time>
      </trkpt>
      <trkpt lat="42.98959" lon="1.09777">
        <ele>524</ele>
        <time>2022-10-21T15:16:51.000Z</time>
      </trkpt>
      <trkpt lat="42.98956" lon="1.09765">
        <ele>524.2</ele>
        <time>2022-10-21T15:16:55.000Z</time>
      </trkpt>
      <trkpt lat="42.98952" lon="1.09753">
        <ele>524.7</ele>
        <time>2022-10-21T15:16:59.000Z</time>
      </trkpt>
      <trkpt lat="42.98949" lon="1.0974">
        <ele>526.2</ele>
        <time>2022-10-21T15:17:03.000Z</time>
      </trkpt>
      <trkpt lat="42.98945" lon="1.09725">
        <ele>526.8</ele>
        <time>2022-10-21T15:17:08.000Z</time>
      </trkpt>
      <trkpt lat="42.98942" lon="1.0971">
        <ele>528</ele>
        <time>2022-10-21T15:17:13.000Z</time>
      </trkpt>
      <trkpt lat="42.9894" lon="1.09696">
        <ele>529.3</ele>
        <time>2022-10-21T15:17:18.000Z</time>
      </trkpt>
      <trkpt lat="42.9894" lon="1.09683">
        <ele>530.8</ele>
        <time>2022-10-21T15:17:23.000Z</time>
      </trkpt>
      <trkpt lat="42.9894" lon="1.09669">
        <ele>532</ele>
        <time>2022-10-21T15:17:28.000Z</time>
      </trkpt>
      <trkpt lat="42.98938" lon="1.09654">
        <ele>534.1</ele>
        <time>2022-10-21T15:17:33.000Z</time>
      </trkpt>
      <trkpt lat="42.98939" lon="1.0964">
        <ele>535.4</ele>
        <time>2022-10-21T15:17:38.000Z</time>
      </trkpt>
      <trkpt lat="42.98937" lon="1.09626">
        <ele>536.8</ele>
        <time>2022-10-21T15:17:43.000Z</time>
      </trkpt>
      <trkpt lat="42.98933" lon="1.09614">
        <ele>537.4</ele>
        <time>2022-10-21T15:17:47.000Z</time>
      </trkpt>
      <trkpt lat="42.98929" lon="1.09601">
        <ele>537.3</ele>
        <time>2022-10-21T15:17:52.000Z</time>
      </trkpt>
      <trkpt lat="42.98923" lon="1.09589">
        <ele>537.5</ele>
        <time>2022-10-21T15:17:56.000Z</time>
      </trkpt>
      <trkpt lat="42.98917" lon="1.09579">
        <ele>537.9</ele>
        <time>2022-10-21T15:18:00.000Z</time>
      </trkpt>
      <trkpt lat="42.98912" lon="1.09568">
        <ele>537.5</ele>
        <time>2022-10-21T15:18:04.000Z</time>
      </trkpt>
      <trkpt lat="42.98906" lon="1.09555">
        <ele>539</ele>
        <time>2022-10-21T15:18:09.000Z</time>
      </trkpt>
      <trkpt lat="42.98899" lon="1.09543">
        <ele>539.6</ele>
        <time>2022-10-21T15:18:14.000Z</time>
      </trkpt>
      <trkpt lat="42.98893" lon="1.09531">
        <ele>540.6</ele>
        <time>2022-10-21T15:18:18.000Z</time>
      </trkpt>
      <trkpt lat="42.98886" lon="1.09521">
        <ele>540.8</ele>
        <time>2022-10-21T15:18:22.000Z</time>
      </trkpt>
      <trkpt lat="42.9888" lon="1.0951">
        <ele>541.2</ele>
        <time>2022-10-21T15:18:26.000Z</time>
      </trkpt>
      <trkpt lat="42.98873" lon="1.09501">
        <ele>541.5</ele>
        <time>2022-10-21T15:18:30.000Z</time>
      </trkpt>
      <trkpt lat="42.98867" lon="1.09492">
        <ele>542.2</ele>
        <time>2022-10-21T15:18:34.000Z</time>
      </trkpt>
      <trkpt lat="42.98859" lon="1.09481">
        <ele>543.1</ele>
        <time>2022-10-21T15:18:39.000Z</time>
      </trkpt>
      <trkpt lat="42.98851" lon="1.09473">
        <ele>544.6</ele>
        <time>2022-10-21T15:18:44.000Z</time>
      </trkpt>
      <trkpt lat="42.98842" lon="1.09467">
        <ele>545.2</ele>
        <time>2022-10-21T15:18:49.000Z</time>
      </trkpt>
      <trkpt lat="42.98833" lon="1.09461">
        <ele>546.3</ele>
        <time>2022-10-21T15:18:54.000Z</time>
      </trkpt>
      <trkpt lat="42.98823" lon="1.09459">
        <ele>547.5</ele>
        <time>2022-10-21T15:19:00.000Z</time>
      </trkpt>
      <trkpt lat="42.98813" lon="1.09457">
        <ele>547.7</ele>
        <time>2022-10-21T15:19:05.000Z</time>
      </trkpt>
      <trkpt lat="42.98804" lon="1.09455">
        <ele>548</ele>
        <time>2022-10-21T15:19:09.000Z</time>
      </trkpt>
      <trkpt lat="42.98794" lon="1.09452">
        <ele>548</ele>
        <time>2022-10-21T15:19:13.000Z</time>
      </trkpt>
      <trkpt lat="42.98785" lon="1.09447">
        <ele>548.2</ele>
        <time>2022-10-21T15:19:17.000Z</time>
      </trkpt>
      <trkpt lat="42.98778" lon="1.09439">
        <ele>549.1</ele>
        <time>2022-10-21T15:19:21.000Z</time>
      </trkpt>
      <trkpt lat="42.98768" lon="1.09429">
        <ele>549.8</ele>
        <time>2022-10-21T15:19:26.000Z</time>
      </trkpt>
      <trkpt lat="42.9876" lon="1.09419">
        <ele>549.7</ele>
        <time>2022-10-21T15:19:30.000Z</time>
      </trkpt>
      <trkpt lat="42.98753" lon="1.09408">
        <ele>549.5</ele>
        <time>2022-10-21T15:19:34.000Z</time>
      </trkpt>
      <trkpt lat="42.98748" lon="1.09397">
        <ele>549.7</ele>
        <time>2022-10-21T15:19:39.000Z</time>
      </trkpt>
      <trkpt lat="42.98747" lon="1.09382">
        <ele>549.7</ele>
        <time>2022-10-21T15:19:44.000Z</time>
      </trkpt>
      <trkpt lat="42.98752" lon="1.09368">
        <ele>550.2</ele>
        <time>2022-10-21T15:19:49.000Z</time>
      </trkpt>
      <trkpt lat="42.98756" lon="1.09356">
        <ele>550.5</ele>
        <time>2022-10-21T15:19:53.000Z</time>
      </trkpt>
      <trkpt lat="42.98762" lon="1.09344">
        <ele>550.9</ele>
        <time>2022-10-21T15:19:57.000Z</time>
      </trkpt>
      <trkpt lat="42.9877" lon="1.09338">
        <ele>552.1</ele>
        <time>2022-10-21T15:20:01.000Z</time>
      </trkpt>
      <trkpt lat="42.98779" lon="1.09335">
        <ele>552.5</ele>
        <time>2022-10-21T15:20:05.000Z</time>
      </trkpt>
      <trkpt lat="42.98791" lon="1.09334">
        <ele>552.1</ele>
        <time>2022-10-21T15:20:09.000Z</time>
      </trkpt>
      <trkpt lat="42.98803" lon="1.09331">
        <ele>552.6</ele>
        <time>2022-10-21T15:20:13.000Z</time>
      </trkpt>
      <trkpt lat="42.98812" lon="1.09327">
        <ele>553.9</ele>
        <time>2022-10-21T15:20:17.000Z</time>
      </trkpt>
      <trkpt lat="42.98822" lon="1.09324">
        <ele>554.4</ele>
        <time>2022-10-21T15:20:21.000Z</time>
      </trkpt>
      <trkpt lat="42.98832" lon="1.09319">
        <ele>555.1</ele>
        <time>2022-10-21T15:20:25.000Z</time>
      </trkpt>
      <trkpt lat="42.98841" lon="1.09314">
        <ele>555.3</ele>
        <time>2022-10-21T15:20:29.000Z</time>
      </trkpt>
      <trkpt lat="42.98851" lon="1.09308">
        <ele>555.8</ele>
        <time>2022-10-21T15:20:33.000Z</time>
      </trkpt>
      <trkpt lat="42.9886" lon="1.09302">
        <ele>556.5</ele>
        <time>2022-10-21T15:20:37.000Z</time>
      </trkpt>
      <trkpt lat="42.98871" lon="1.09296">
        <ele>555.9</ele>
        <time>2022-10-21T15:20:41.000Z</time>
      </trkpt>
      <trkpt lat="42.98879" lon="1.09292">
        <ele>556.1</ele>
        <time>2022-10-21T15:20:44.000Z</time>
      </trkpt>
      <trkpt lat="42.98889" lon="1.09287">
        <ele>558.3</ele>
        <time>2022-10-21T15:20:48.000Z</time>
      </trkpt>
      <trkpt lat="42.98899" lon="1.09284">
        <ele>559.2</ele>
        <time>2022-10-21T15:20:53.000Z</time>
      </trkpt>
      <trkpt lat="42.98909" lon="1.09281">
        <ele>559</ele>
        <time>2022-10-21T15:20:57.000Z</time>
      </trkpt>
      <trkpt lat="42.98919" lon="1.09278">
        <ele>559.8</ele>
        <time>2022-10-21T15:21:01.000Z</time>
      </trkpt>
      <trkpt lat="42.98929" lon="1.09277">
        <ele>560.2</ele>
        <time>2022-10-21T15:21:05.000Z</time>
      </trkpt>
      <trkpt lat="42.98938" lon="1.09276">
        <ele>561.4</ele>
        <time>2022-10-21T15:21:09.000Z</time>
      </trkpt>
      <trkpt lat="42.98948" lon="1.09274">
        <ele>561.1</ele>
        <time>2022-10-21T15:21:13.000Z</time>
      </trkpt>
      <trkpt lat="42.98958" lon="1.09271">
        <ele>561.3</ele>
        <time>2022-10-21T15:21:17.000Z</time>
      </trkpt>
      <trkpt lat="42.98968" lon="1.09269">
        <ele>561.5</ele>
        <time>2022-10-21T15:21:21.000Z</time>
      </trkpt>
      <trkpt lat="42.98978" lon="1.09267">
        <ele>561.5</ele>
        <time>2022-10-21T15:21:25.000Z</time>
      </trkpt>
      <trkpt lat="42.98988" lon="1.09267">
        <ele>561.9</ele>
        <time>2022-10-21T15:21:29.000Z</time>
      </trkpt>
      <trkpt lat="42.98998" lon="1.09266">
        <ele>562.6</ele>
        <time>2022-10-21T15:21:33.000Z</time>
      </trkpt>
      <trkpt lat="42.99009" lon="1.09265">
        <ele>561.6</ele>
        <time>2022-10-21T15:21:37.000Z</time>
      </trkpt>
      <trkpt lat="42.99019" lon="1.09264">
        <ele>562.5</ele>
        <time>2022-10-21T15:21:41.000Z</time>
      </trkpt>
      <trkpt lat="42.99029" lon="1.09264">
        <ele>564.2</ele>
        <time>2022-10-21T15:21:45.000Z</time>
      </trkpt>
      <trkpt lat="42.99039" lon="1.09266">
        <ele>565.5</ele>
        <time>2022-10-21T15:21:50.000Z</time>
      </trkpt>
      <trkpt lat="42.9905" lon="1.09271">
        <ele>566.3</ele>
        <time>2022-10-21T15:21:55.000Z</time>
      </trkpt>
      <trkpt lat="42.99059" lon="1.09278">
        <ele>566.7</ele>
        <time>2022-10-21T15:22:00.000Z</time>
      </trkpt>
      <trkpt lat="42.99067" lon="1.09284">
        <ele>567.6</ele>
        <time>2022-10-21T15:22:05.000Z</time>
      </trkpt>
      <trkpt lat="42.99076" lon="1.0929">
        <ele>568.4</ele>
        <time>2022-10-21T15:22:09.000Z</time>
      </trkpt>
      <trkpt lat="42.99085" lon="1.09296">
        <ele>570.2</ele>
        <time>2022-10-21T15:22:14.000Z</time>
      </trkpt>
      <trkpt lat="42.99096" lon="1.09297">
        <ele>571.3</ele>
        <time>2022-10-21T15:22:19.000Z</time>
      </trkpt>
      <trkpt lat="42.99105" lon="1.09296">
        <ele>571.4</ele>
        <time>2022-10-21T15:22:23.000Z</time>
      </trkpt>
      <trkpt lat="42.99115" lon="1.09295">
        <ele>571.9</ele>
        <time>2022-10-21T15:22:27.000Z</time>
      </trkpt>
      <trkpt lat="42.99124" lon="1.09289">
        <ele>571.5</ele>
        <time>2022-10-21T15:22:31.000Z</time>
      </trkpt>
      <trkpt lat="42.99132" lon="1.09282">
        <ele>571.8</ele>
        <time>2022-10-21T15:22:34.000Z</time>
      </trkpt>
      <trkpt lat="42.99141" lon="1.09276">
        <ele>572.6</ele>
        <time>2022-10-21T15:22:37.000Z</time>
      </trkpt>
      <trkpt lat="42.99151" lon="1.09268">
        <ele>572.3</ele>
        <time>2022-10-21T15:22:41.000Z</time>
      </trkpt>
      <trkpt lat="42.9916" lon="1.09258">
        <ele>572.5</ele>
        <time>2022-10-21T15:22:45.000Z</time>
      </trkpt>
      <trkpt lat="42.99169" lon="1.09249">
        <ele>572.9</ele>
        <time>2022-10-21T15:22:49.000Z</time>
      </trkpt>
      <trkpt lat="42.99175" lon="1.0924">
        <ele>573.4</ele>
        <time>2022-10-21T15:22:52.000Z</time>
      </trkpt>
      <trkpt lat="42.99182" lon="1.09228">
        <ele>574</ele>
        <time>2022-10-21T15:22:56.000Z</time>
      </trkpt>
      <trkpt lat="42.99188" lon="1.09217">
        <ele>574.3</ele>
        <time>2022-10-21T15:23:00.000Z</time>
      </trkpt>
      <trkpt lat="42.99194" lon="1.09205">
        <ele>575</ele>
        <time>2022-10-21T15:23:04.000Z</time>
      </trkpt>
      <trkpt lat="42.99199" lon="1.09194">
        <ele>575.5</ele>
        <time>2022-10-21T15:23:08.000Z</time>
      </trkpt>
      <trkpt lat="42.99204" lon="1.09181">
        <ele>575.3</ele>
        <time>2022-10-21T15:23:12.000Z</time>
      </trkpt>
      <trkpt lat="42.99206" lon="1.09168">
        <ele>576.4</ele>
        <time>2022-10-21T15:23:16.000Z</time>
      </trkpt>
      <trkpt lat="42.99208" lon="1.09155">
        <ele>577.1</ele>
        <time>2022-10-21T15:23:21.000Z</time>
      </trkpt>
      <trkpt lat="42.99212" lon="1.09141">
        <ele>578.1</ele>
        <time>2022-10-21T15:23:26.000Z</time>
      </trkpt>
      <trkpt lat="42.99213" lon="1.09129">
        <ele>578.4</ele>
        <time>2022-10-21T15:23:30.000Z</time>
      </trkpt>
      <trkpt lat="42.99213" lon="1.09114">
        <ele>579.6</ele>
        <time>2022-10-21T15:23:35.000Z</time>
      </trkpt>
      <trkpt lat="42.99211" lon="1.09102">
        <ele>580.7</ele>
        <time>2022-10-21T15:23:40.000Z</time>
      </trkpt>
      <trkpt lat="42.99211" lon="1.09089">
        <ele>581.5</ele>
        <time>2022-10-21T15:23:45.000Z</time>
      </trkpt>
      <trkpt lat="42.99212" lon="1.09076">
        <ele>582.7</ele>
        <time>2022-10-21T15:23:50.000Z</time>
      </trkpt>
      <trkpt lat="42.99203" lon="1.0908">
        <ele>584.6</ele>
        <time>2022-10-21T15:23:58.000Z</time>
      </trkpt>
      <trkpt lat="42.99197" lon="1.0909">
        <ele>585.2</ele>
        <time>2022-10-21T15:24:03.000Z</time>
      </trkpt>
      <trkpt lat="42.99191" lon="1.091">
        <ele>586.6</ele>
        <time>2022-10-21T15:24:09.000Z</time>
      </trkpt>
      <trkpt lat="42.99184" lon="1.09108">
        <ele>587.6</ele>
        <time>2022-10-21T15:24:15.000Z</time>
      </trkpt>
      <trkpt lat="42.99176" lon="1.09117">
        <ele>589.1</ele>
        <time>2022-10-21T15:24:22.000Z</time>
      </trkpt>
      <trkpt lat="42.99167" lon="1.09124">
        <ele>590.8</ele>
        <time>2022-10-21T15:24:29.000Z</time>
      </trkpt>
      <trkpt lat="42.99159" lon="1.0913">
        <ele>591.9</ele>
        <time>2022-10-21T15:24:36.000Z</time>
      </trkpt>
      <trkpt lat="42.99149" lon="1.09134">
        <ele>593.6</ele>
        <time>2022-10-21T15:24:43.000Z</time>
      </trkpt>
      <trkpt lat="42.99144" lon="1.09124">
        <ele>595.4</ele>
        <time>2022-10-21T15:24:51.000Z</time>
      </trkpt>
      <trkpt lat="42.99146" lon="1.09111">
        <ele>597.3</ele>
        <time>2022-10-21T15:24:58.000Z</time>
      </trkpt>
      <trkpt lat="42.99148" lon="1.09097">
        <ele>599.2</ele>
        <time>2022-10-21T15:25:05.000Z</time>
      </trkpt>
      <trkpt lat="42.99149" lon="1.09084">
        <ele>601.1</ele>
        <time>2022-10-21T15:25:12.000Z</time>
      </trkpt>
      <trkpt lat="42.99152" lon="1.09071">
        <ele>602.6</ele>
        <time>2022-10-21T15:25:19.000Z</time>
      </trkpt>
      <trkpt lat="42.99155" lon="1.09057">
        <ele>602.9</ele>
        <time>2022-10-21T15:25:25.000Z</time>
      </trkpt>
      <trkpt lat="42.99156" lon="1.09042">
        <ele>603</ele>
        <time>2022-10-21T15:25:30.000Z</time>
      </trkpt>
      <trkpt lat="42.99155" lon="1.09029">
        <ele>603.4</ele>
        <time>2022-10-21T15:25:34.000Z</time>
      </trkpt>
      <trkpt lat="42.99155" lon="1.09017">
        <ele>603.5</ele>
        <time>2022-10-21T15:25:38.000Z</time>
      </trkpt>
      <trkpt lat="42.99152" lon="1.09002">
        <ele>603.7</ele>
        <time>2022-10-21T15:25:43.000Z</time>
      </trkpt>
      <trkpt lat="42.99151" lon="1.0899">
        <ele>603.5</ele>
        <time>2022-10-21T15:25:47.000Z</time>
      </trkpt>
      <trkpt lat="42.99148" lon="1.08977">
        <ele>603.9</ele>
        <time>2022-10-21T15:25:51.000Z</time>
      </trkpt>
      <trkpt lat="42.99145" lon="1.08964">
        <ele>604.2</ele>
        <time>2022-10-21T15:25:56.000Z</time>
      </trkpt>
      <trkpt lat="42.99141" lon="1.08952">
        <ele>604.4</ele>
        <time>2022-10-21T15:26:00.000Z</time>
      </trkpt>
      <trkpt lat="42.99138" lon="1.0894">
        <ele>603.9</ele>
        <time>2022-10-21T15:26:04.000Z</time>
      </trkpt>
      <trkpt lat="42.99133" lon="1.08928">
        <ele>604.2</ele>
        <time>2022-10-21T15:26:08.000Z</time>
      </trkpt>
      <trkpt lat="42.99129" lon="1.08917">
        <ele>604.4</ele>
        <time>2022-10-21T15:26:12.000Z</time>
      </trkpt>
      <trkpt lat="42.99125" lon="1.08906">
        <ele>604.3</ele>
        <time>2022-10-21T15:26:16.000Z</time>
      </trkpt>
      <trkpt lat="42.99119" lon="1.08895">
        <ele>604.6</ele>
        <time>2022-10-21T15:26:21.000Z</time>
      </trkpt>
      <trkpt lat="42.99114" lon="1.08883">
        <ele>604.4</ele>
        <time>2022-10-21T15:26:25.000Z</time>
      </trkpt>
      <trkpt lat="42.99109" lon="1.08871">
        <ele>604.3</ele>
        <time>2022-10-21T15:26:30.000Z</time>
      </trkpt>
      <trkpt lat="42.99103" lon="1.08861">
        <ele>603.1</ele>
        <time>2022-10-21T15:26:34.000Z</time>
      </trkpt>
      <trkpt lat="42.99096" lon="1.08849">
        <ele>603.2</ele>
        <time>2022-10-21T15:26:38.000Z</time>
      </trkpt>
      <trkpt lat="42.99091" lon="1.08838">
        <ele>603.7</ele>
        <time>2022-10-21T15:26:41.000Z</time>
      </trkpt>
      <trkpt lat="42.99084" lon="1.08828">
        <ele>603.4</ele>
        <time>2022-10-21T15:26:44.000Z</time>
      </trkpt>
      <trkpt lat="42.99079" lon="1.08816">
        <ele>603.5</ele>
        <time>2022-10-21T15:26:47.000Z</time>
      </trkpt>
      <trkpt lat="42.99072" lon="1.08805">
        <ele>604</ele>
        <time>2022-10-21T15:26:50.000Z</time>
      </trkpt>
      <trkpt lat="42.99065" lon="1.08795">
        <ele>604.8</ele>
        <time>2022-10-21T15:26:53.000Z</time>
      </trkpt>
      <trkpt lat="42.9906" lon="1.08785">
        <ele>605.3</ele>
        <time>2022-10-21T15:26:56.000Z</time>
      </trkpt>
      <trkpt lat="42.99053" lon="1.08777">
        <ele>605.6</ele>
        <time>2022-10-21T15:26:59.000Z</time>
      </trkpt>
      <trkpt lat="42.99046" lon="1.08768">
        <ele>605.5</ele>
        <time>2022-10-21T15:27:02.000Z</time>
      </trkpt>
      <trkpt lat="42.99039" lon="1.0876">
        <ele>605.7</ele>
        <time>2022-10-21T15:27:05.000Z</time>
      </trkpt>
      <trkpt lat="42.99028" lon="1.08756">
        <ele>606.8</ele>
        <time>2022-10-21T15:27:09.000Z</time>
      </trkpt>
      <trkpt lat="42.99017" lon="1.08756">
        <ele>607.4</ele>
        <time>2022-10-21T15:27:13.000Z</time>
      </trkpt>
      <trkpt lat="42.99007" lon="1.08758">
        <ele>607.9</ele>
        <time>2022-10-21T15:27:17.000Z</time>
      </trkpt>
      <trkpt lat="42.98998" lon="1.08761">
        <ele>609</ele>
        <time>2022-10-21T15:27:21.000Z</time>
      </trkpt>
      <trkpt lat="42.98988" lon="1.08764">
        <ele>609.8</ele>
        <time>2022-10-21T15:27:25.000Z</time>
      </trkpt>
      <trkpt lat="42.98978" lon="1.08763">
        <ele>610.8</ele>
        <time>2022-10-21T15:27:29.000Z</time>
      </trkpt>
      <trkpt lat="42.98968" lon="1.08767">
        <ele>611.6</ele>
        <time>2022-10-21T15:27:33.000Z</time>
      </trkpt>
      <trkpt lat="42.98957" lon="1.08768">
        <ele>612.2</ele>
        <time>2022-10-21T15:27:37.000Z</time>
      </trkpt>
      <trkpt lat="42.98948" lon="1.08768">
        <ele>613.1</ele>
        <time>2022-10-21T15:27:41.000Z</time>
      </trkpt>
      <trkpt lat="42.98938" lon="1.0877">
        <ele>613.6</ele>
        <time>2022-10-21T15:27:45.000Z</time>
      </trkpt>
      <trkpt lat="42.98927" lon="1.08772">
        <ele>614.7</ele>
        <time>2022-10-21T15:27:49.000Z</time>
      </trkpt>
      <trkpt lat="42.98917" lon="1.08775">
        <ele>615.6</ele>
        <time>2022-10-21T15:27:53.000Z</time>
      </trkpt>
      <trkpt lat="42.98907" lon="1.08777">
        <ele>616.4</ele>
        <time>2022-10-21T15:27:57.000Z</time>
      </trkpt>
      <trkpt lat="42.98897" lon="1.08779">
        <ele>617.5</ele>
        <time>2022-10-21T15:28:01.000Z</time>
      </trkpt>
      <trkpt lat="42.98887" lon="1.08783">
        <ele>618.1</ele>
        <time>2022-10-21T15:28:05.000Z</time>
      </trkpt>
      <trkpt lat="42.98878" lon="1.08786">
        <ele>618.3</ele>
        <time>2022-10-21T15:28:09.000Z</time>
      </trkpt>
      <trkpt lat="42.98868" lon="1.0879">
        <ele>619.6</ele>
        <time>2022-10-21T15:28:14.000Z</time>
      </trkpt>
      <trkpt lat="42.98858" lon="1.08793">
        <ele>620</ele>
        <time>2022-10-21T15:28:19.000Z</time>
      </trkpt>
      <trkpt lat="42.98848" lon="1.08797">
        <ele>621.4</ele>
        <time>2022-10-21T15:28:24.000Z</time>
      </trkpt>
      <trkpt lat="42.98839" lon="1.088">
        <ele>623.2</ele>
        <time>2022-10-21T15:28:30.000Z</time>
      </trkpt>
      <trkpt lat="42.98829" lon="1.08801">
        <ele>625.8</ele>
        <time>2022-10-21T15:28:37.000Z</time>
      </trkpt>
      <trkpt lat="42.98818" lon="1.08799">
        <ele>627.6</ele>
        <time>2022-10-21T15:28:43.000Z</time>
      </trkpt>
      <trkpt lat="42.98809" lon="1.08794">
        <ele>629.4</ele>
        <time>2022-10-21T15:28:49.000Z</time>
      </trkpt>
      <trkpt lat="42.988" lon="1.08792">
        <ele>630.7</ele>
        <time>2022-10-21T15:28:55.000Z</time>
      </trkpt>
      <trkpt lat="42.9879" lon="1.08793">
        <ele>632.9</ele>
        <time>2022-10-21T15:29:02.000Z</time>
      </trkpt>
      <trkpt lat="42.98781" lon="1.08797">
        <ele>634.9</ele>
        <time>2022-10-21T15:29:08.000Z</time>
      </trkpt>
      <trkpt lat="42.98772" lon="1.088">
        <ele>635.8</ele>
        <time>2022-10-21T15:29:14.000Z</time>
      </trkpt>
      <trkpt lat="42.98763" lon="1.08803">
        <ele>637.3</ele>
        <time>2022-10-21T15:29:20.000Z</time>
      </trkpt>
      <trkpt lat="42.98753" lon="1.08804">
        <ele>638.1</ele>
        <time>2022-10-21T15:29:26.000Z</time>
      </trkpt>
      <trkpt lat="42.98743" lon="1.08803">
        <ele>638.5</ele>
        <time>2022-10-21T15:29:32.000Z</time>
      </trkpt>
      <trkpt lat="42.98734" lon="1.08801">
        <ele>638.8</ele>
        <time>2022-10-21T15:29:37.000Z</time>
      </trkpt>
      <trkpt lat="42.98724" lon="1.088">
        <ele>639.1</ele>
        <time>2022-10-21T15:29:42.000Z</time>
      </trkpt>
      <trkpt lat="42.98714" lon="1.08801">
        <ele>640.4</ele>
        <time>2022-10-21T15:29:47.000Z</time>
      </trkpt>
      <trkpt lat="42.98704" lon="1.088">
        <ele>640.3</ele>
        <time>2022-10-21T15:29:52.000Z</time>
      </trkpt>
      <trkpt lat="42.98693" lon="1.08799">
        <ele>641.2</ele>
        <time>2022-10-21T15:29:57.000Z</time>
      </trkpt>
      <trkpt lat="42.98683" lon="1.08799">
        <ele>642.5</ele>
        <time>2022-10-21T15:30:02.000Z</time>
      </trkpt>
      <trkpt lat="42.98673" lon="1.08799">
        <ele>643.1</ele>
        <time>2022-10-21T15:30:07.000Z</time>
      </trkpt>
      <trkpt lat="42.98662" lon="1.08798">
        <ele>644.3</ele>
        <time>2022-10-21T15:30:12.000Z</time>
      </trkpt>
      <trkpt lat="42.98653" lon="1.08797">
        <ele>645.3</ele>
        <time>2022-10-21T15:30:17.000Z</time>
      </trkpt>
      <trkpt lat="42.98643" lon="1.08794">
        <ele>646.1</ele>
        <time>2022-10-21T15:30:22.000Z</time>
      </trkpt>
      <trkpt lat="42.98634" lon="1.08791">
        <ele>646.9</ele>
        <time>2022-10-21T15:30:27.000Z</time>
      </trkpt>
      <trkpt lat="42.98624" lon="1.08787">
        <ele>648.1</ele>
        <time>2022-10-21T15:30:32.000Z</time>
      </trkpt>
      <trkpt lat="42.98615" lon="1.08781">
        <ele>648.6</ele>
        <time>2022-10-21T15:30:37.000Z</time>
      </trkpt>
      <trkpt lat="42.98605" lon="1.08774">
        <ele>649</ele>
        <time>2022-10-21T15:30:42.000Z</time>
      </trkpt>
      <trkpt lat="42.98596" lon="1.08768">
        <ele>649.1</ele>
        <time>2022-10-21T15:30:46.000Z</time>
      </trkpt>
      <trkpt lat="42.98587" lon="1.08762">
        <ele>649.6</ele>
        <time>2022-10-21T15:30:50.000Z</time>
      </trkpt>
      <trkpt lat="42.98579" lon="1.08757">
        <ele>649.7</ele>
        <time>2022-10-21T15:30:54.000Z</time>
      </trkpt>
      <trkpt lat="42.9857" lon="1.08752">
        <ele>650.4</ele>
        <time>2022-10-21T15:30:58.000Z</time>
      </trkpt>
      <trkpt lat="42.98562" lon="1.08748">
        <ele>650.2</ele>
        <time>2022-10-21T15:31:02.000Z</time>
      </trkpt>
      <trkpt lat="42.98553" lon="1.08743">
        <ele>650.5</ele>
        <time>2022-10-21T15:31:06.000Z</time>
      </trkpt>
      <trkpt lat="42.98544" lon="1.08738">
        <ele>649.9</ele>
        <time>2022-10-21T15:31:10.000Z</time>
      </trkpt>
      <trkpt lat="42.98534" lon="1.08733">
        <ele>650.5</ele>
        <time>2022-10-21T15:31:14.000Z</time>
      </trkpt>
      <trkpt lat="42.98524" lon="1.08731">
        <ele>650.5</ele>
        <time>2022-10-21T15:31:18.000Z</time>
      </trkpt>
      <trkpt lat="42.98515" lon="1.08732">
        <ele>650.6</ele>
        <time>2022-10-21T15:31:22.000Z</time>
      </trkpt>
      <trkpt lat="42.98506" lon="1.08739">
        <ele>650.4</ele>
        <time>2022-10-21T15:31:26.000Z</time>
      </trkpt>
      <trkpt lat="42.98498" lon="1.08748">
        <ele>651.1</ele>
        <time>2022-10-21T15:31:30.000Z</time>
      </trkpt>
      <trkpt lat="42.98491" lon="1.08758">
        <ele>651</ele>
        <time>2022-10-21T15:31:34.000Z</time>
      </trkpt>
      <trkpt lat="42.98487" lon="1.0877">
        <ele>651.1</ele>
        <time>2022-10-21T15:31:38.000Z</time>
      </trkpt>
      <trkpt lat="42.98481" lon="1.08781">
        <ele>651.5</ele>
        <time>2022-10-21T15:31:42.000Z</time>
      </trkpt>
      <trkpt lat="42.98475" lon="1.08792">
        <ele>651.9</ele>
        <time>2022-10-21T15:31:46.000Z</time>
      </trkpt>
      <trkpt lat="42.98469" lon="1.08804">
        <ele>652.1</ele>
        <time>2022-10-21T15:31:50.000Z</time>
      </trkpt>
      <trkpt lat="42.98464" lon="1.08816">
        <ele>652.5</ele>
        <time>2022-10-21T15:31:54.000Z</time>
      </trkpt>
      <trkpt lat="42.98459" lon="1.08827">
        <ele>653.1</ele>
        <time>2022-10-21T15:31:58.000Z</time>
      </trkpt>
      <trkpt lat="42.98452" lon="1.08838">
        <ele>653.2</ele>
        <time>2022-10-21T15:32:02.000Z</time>
      </trkpt>
      <trkpt lat="42.98445" lon="1.08849">
        <ele>653.5</ele>
        <time>2022-10-21T15:32:06.000Z</time>
      </trkpt>
      <trkpt lat="42.98437" lon="1.08859">
        <ele>653.9</ele>
        <time>2022-10-21T15:32:10.000Z</time>
      </trkpt>
      <trkpt lat="42.98429" lon="1.0887">
        <ele>654.2</ele>
        <time>2022-10-21T15:32:14.000Z</time>
      </trkpt>
      <trkpt lat="42.98422" lon="1.08879">
        <ele>653.8</ele>
        <time>2022-10-21T15:32:17.000Z</time>
      </trkpt>
      <trkpt lat="42.98415" lon="1.08887">
        <ele>653.1</ele>
        <time>2022-10-21T15:32:20.000Z</time>
      </trkpt>
      <trkpt lat="42.98405" lon="1.08892">
        <ele>653.4</ele>
        <time>2022-10-21T15:32:23.000Z</time>
      </trkpt>
      <trkpt lat="42.98396" lon="1.08891">
        <ele>653.2</ele>
        <time>2022-10-21T15:32:26.000Z</time>
      </trkpt>
      <trkpt lat="42.98388" lon="1.08883">
        <ele>652.4</ele>
        <time>2022-10-21T15:32:29.000Z</time>
      </trkpt>
      <trkpt lat="42.9838" lon="1.08876">
        <ele>652.8</ele>
        <time>2022-10-21T15:32:33.000Z</time>
      </trkpt>
      <trkpt lat="42.98375" lon="1.08864">
        <ele>652.8</ele>
        <time>2022-10-21T15:32:37.000Z</time>
      </trkpt>
      <trkpt lat="42.98369" lon="1.08853">
        <ele>653.1</ele>
        <time>2022-10-21T15:32:41.000Z</time>
      </trkpt>
      <trkpt lat="42.98362" lon="1.08845">
        <ele>653.3</ele>
        <time>2022-10-21T15:32:45.000Z</time>
      </trkpt>
      <trkpt lat="42.98354" lon="1.08837">
        <ele>653.7</ele>
        <time>2022-10-21T15:32:49.000Z</time>
      </trkpt>
      <trkpt lat="42.98345" lon="1.08829">
        <ele>653.6</ele>
        <time>2022-10-21T15:32:54.000Z</time>
      </trkpt>
      <trkpt lat="42.98338" lon="1.0882">
        <ele>653.7</ele>
        <time>2022-10-21T15:32:58.000Z</time>
      </trkpt>
      <trkpt lat="42.98331" lon="1.08809">
        <ele>653.9</ele>
        <time>2022-10-21T15:33:02.000Z</time>
      </trkpt>
      <trkpt lat="42.98325" lon="1.08798">
        <ele>654</ele>
        <time>2022-10-21T15:33:07.000Z</time>
      </trkpt>
      <trkpt lat="42.98319" lon="1.08787">
        <ele>653.9</ele>
        <time>2022-10-21T15:33:12.000Z</time>
      </trkpt>
      <trkpt lat="42.98315" lon="1.08774">
        <ele>654.3</ele>
        <time>2022-10-21T15:33:17.000Z</time>
      </trkpt>
      <trkpt lat="42.98312" lon="1.0876">
        <ele>654.9</ele>
        <time>2022-10-21T15:33:22.000Z</time>
      </trkpt>
      <trkpt lat="42.98307" lon="1.08748">
        <ele>655</ele>
        <time>2022-10-21T15:33:27.000Z</time>
      </trkpt>
      <trkpt lat="42.98301" lon="1.08738">
        <ele>655.9</ele>
        <time>2022-10-21T15:33:32.000Z</time>
      </trkpt>
      <trkpt lat="42.98297" lon="1.08726">
        <ele>657</ele>
        <time>2022-10-21T15:33:38.000Z</time>
      </trkpt>
      <trkpt lat="42.98305" lon="1.08717">
        <ele>657</ele>
        <time>2022-10-21T15:33:47.000Z</time>
      </trkpt>
      <trkpt lat="42.98308" lon="1.08704">
        <ele>656.3</ele>
        <time>2022-10-21T15:33:53.000Z</time>
      </trkpt>
      <trkpt lat="42.98313" lon="1.08693">
        <ele>656.5</ele>
        <time>2022-10-21T15:34:00.000Z</time>
      </trkpt>
      <trkpt lat="42.98316" lon="1.08681">
        <ele>655.7</ele>
        <time>2022-10-21T15:34:06.000Z</time>
      </trkpt>
      <trkpt lat="42.9831" lon="1.0867">
        <ele>657.6</ele>
        <time>2022-10-21T15:34:11.000Z</time>
      </trkpt>
      <trkpt lat="42.98307" lon="1.08656">
        <ele>658.9</ele>
        <time>2022-10-21T15:34:17.000Z</time>
      </trkpt>
      <trkpt lat="42.98307" lon="1.08643">
        <ele>659.9</ele>
        <time>2022-10-21T15:34:22.000Z</time>
      </trkpt>
      <trkpt lat="42.98308" lon="1.0863">
        <ele>660.9</ele>
        <time>2022-10-21T15:34:27.000Z</time>
      </trkpt>
      <trkpt lat="42.98306" lon="1.08615">
        <ele>662.8</ele>
        <time>2022-10-21T15:34:33.000Z</time>
      </trkpt>
      <trkpt lat="42.98304" lon="1.08603">
        <ele>664.9</ele>
        <time>2022-10-21T15:34:38.000Z</time>
      </trkpt>
      <trkpt lat="42.98301" lon="1.08588">
        <ele>666.5</ele>
        <time>2022-10-21T15:34:44.000Z</time>
      </trkpt>
      <trkpt lat="42.98298" lon="1.08576">
        <ele>668.7</ele>
        <time>2022-10-21T15:34:49.000Z</time>
      </trkpt>
      <trkpt lat="42.98294" lon="1.08564">
        <ele>670.3</ele>
        <time>2022-10-21T15:34:54.000Z</time>
      </trkpt>
      <trkpt lat="42.9829" lon="1.08551">
        <ele>671.4</ele>
        <time>2022-10-21T15:35:00.000Z</time>
      </trkpt>
      <trkpt lat="42.98285" lon="1.0854">
        <ele>672.8</ele>
        <time>2022-10-21T15:35:05.000Z</time>
      </trkpt>
      <trkpt lat="42.98279" lon="1.08529">
        <ele>674.2</ele>
        <time>2022-10-21T15:35:10.000Z</time>
      </trkpt>
      <trkpt lat="42.98276" lon="1.08517">
        <ele>674.5</ele>
        <time>2022-10-21T15:35:15.000Z</time>
      </trkpt>
      <trkpt lat="42.98269" lon="1.08508">
        <ele>675.6</ele>
        <time>2022-10-21T15:35:21.000Z</time>
      </trkpt>
      <trkpt lat="42.98261" lon="1.08498">
        <ele>676.7</ele>
        <time>2022-10-21T15:35:27.000Z</time>
      </trkpt>
      <trkpt lat="42.98253" lon="1.08492">
        <ele>677.7</ele>
        <time>2022-10-21T15:35:32.000Z</time>
      </trkpt>
      <trkpt lat="42.98246" lon="1.08484">
        <ele>678</ele>
        <time>2022-10-21T15:35:37.000Z</time>
      </trkpt>
      <trkpt lat="42.98238" lon="1.08475">
        <ele>678.5</ele>
        <time>2022-10-21T15:35:42.000Z</time>
      </trkpt>
      <trkpt lat="42.98231" lon="1.08465">
        <ele>678.5</ele>
        <time>2022-10-21T15:35:47.000Z</time>
      </trkpt>
      <trkpt lat="42.98225" lon="1.08456">
        <ele>678.1</ele>
        <time>2022-10-21T15:35:52.000Z</time>
      </trkpt>
      <trkpt lat="42.98218" lon="1.08445">
        <ele>677.9</ele>
        <time>2022-10-21T15:35:58.000Z</time>
      </trkpt>
      <trkpt lat="42.98211" lon="1.08433">
        <ele>678.1</ele>
        <time>2022-10-21T15:36:03.000Z</time>
      </trkpt>
      <trkpt lat="42.98201" lon="1.08432">
        <ele>678</ele>
        <time>2022-10-21T15:36:09.000Z</time>
      </trkpt>
      <trkpt lat="42.98193" lon="1.08424">
        <ele>678.3</ele>
        <time>2022-10-21T15:36:14.000Z</time>
      </trkpt>
      <trkpt lat="42.98186" lon="1.08412">
        <ele>679</ele>
        <time>2022-10-21T15:36:19.000Z</time>
      </trkpt>
      <trkpt lat="42.9818" lon="1.08401">
        <ele>679.5</ele>
        <time>2022-10-21T15:36:24.000Z</time>
      </trkpt>
      <trkpt lat="42.98176" lon="1.08389">
        <ele>680.5</ele>
        <time>2022-10-21T15:36:29.000Z</time>
      </trkpt>
      <trkpt lat="42.98172" lon="1.08375">
        <ele>681.4</ele>
        <time>2022-10-21T15:36:34.000Z</time>
      </trkpt>
      <trkpt lat="42.98167" lon="1.08362">
        <ele>683.1</ele>
        <time>2022-10-21T15:36:39.000Z</time>
      </trkpt>
      <trkpt lat="42.98162" lon="1.08349">
        <ele>684.7</ele>
        <time>2022-10-21T15:36:43.000Z</time>
      </trkpt>
      <trkpt lat="42.98157" lon="1.08339">
        <ele>686.5</ele>
        <time>2022-10-21T15:36:47.000Z</time>
      </trkpt>
      <trkpt lat="42.98151" lon="1.08326">
        <ele>689.5</ele>
        <time>2022-10-21T15:36:52.000Z</time>
      </trkpt>
      <trkpt lat="42.98148" lon="1.08313">
        <ele>691.3</ele>
        <time>2022-10-21T15:36:57.000Z</time>
      </trkpt>
      <trkpt lat="42.98141" lon="1.08302">
        <ele>693.8</ele>
        <time>2022-10-21T15:37:01.000Z</time>
      </trkpt>
      <trkpt lat="42.98132" lon="1.08294">
        <ele>696.9</ele>
        <time>2022-10-21T15:37:07.000Z</time>
      </trkpt>
      <trkpt lat="42.98126" lon="1.08289">
        <ele>699.7</ele>
        <time>2022-10-21T15:37:15.000Z</time>
      </trkpt>
      <trkpt lat="42.98125" lon="1.08288">
        <ele>700.5</ele>
        <time>2022-10-21T15:37:27.000Z</time>
      </trkpt>
      <trkpt lat="42.98123" lon="1.08287">
        <ele>700.7</ele>
        <time>2022-10-21T15:37:34.000Z</time>
      </trkpt>
      <trkpt lat="42.98122" lon="1.08287">
        <ele>700.4</ele>
        <time>2022-10-21T15:37:39.000Z</time>
      </trkpt>
      <trkpt lat="42.98122" lon="1.08286">
        <ele>700.2</ele>
        <time>2022-10-21T15:38:17.000Z</time>
      </trkpt>
      <trkpt lat="42.98121" lon="1.08285">
        <ele>700.7</ele>
        <time>2022-10-21T15:38:20.000Z</time>
      </trkpt>
      <trkpt lat="42.98121" lon="1.08284">
        <ele>700.7</ele>
        <time>2022-10-21T15:38:27.000Z</time>
      </trkpt>
      <trkpt lat="42.98113" lon="1.08274">
        <ele>703</ele>
        <time>2022-10-21T15:38:33.000Z</time>
      </trkpt>
      <trkpt lat="42.98106" lon="1.08266">
        <ele>705</ele>
        <time>2022-10-21T15:38:38.000Z</time>
      </trkpt>
      <trkpt lat="42.98098" lon="1.08257">
        <ele>706.4</ele>
        <time>2022-10-21T15:38:45.000Z</time>
      </trkpt>
      <trkpt lat="42.98093" lon="1.08246">
        <ele>707</ele>
        <time>2022-10-21T15:38:50.000Z</time>
      </trkpt>
      <trkpt lat="42.98085" lon="1.08238">
        <ele>707.2</ele>
        <time>2022-10-21T15:38:56.000Z</time>
      </trkpt>
      <trkpt lat="42.98075" lon="1.08235">
        <ele>707.8</ele>
        <time>2022-10-21T15:39:01.000Z</time>
      </trkpt>
      <trkpt lat="42.98069" lon="1.08226">
        <ele>708.5</ele>
        <time>2022-10-21T15:39:05.000Z</time>
      </trkpt>
      <trkpt lat="42.9806" lon="1.08219">
        <ele>708.4</ele>
        <time>2022-10-21T15:39:11.000Z</time>
      </trkpt>
      <trkpt lat="42.98052" lon="1.0821">
        <ele>708.1</ele>
        <time>2022-10-21T15:39:16.000Z</time>
      </trkpt>
      <trkpt lat="42.98044" lon="1.08204">
        <ele>708.2</ele>
        <time>2022-10-21T15:39:19.000Z</time>
      </trkpt>
      <trkpt lat="42.98038" lon="1.08194">
        <ele>706.8</ele>
        <time>2022-10-21T15:39:22.000Z</time>
      </trkpt>
      <trkpt lat="42.98031" lon="1.08181">
        <ele>706.1</ele>
        <time>2022-10-21T15:39:25.000Z</time>
      </trkpt>
      <trkpt lat="42.98024" lon="1.0817">
        <ele>705.5</ele>
        <time>2022-10-21T15:39:28.000Z</time>
      </trkpt>
      <trkpt lat="42.98015" lon="1.0816">
        <ele>705.2</ele>
        <time>2022-10-21T15:39:32.000Z</time>
      </trkpt>
      <trkpt lat="42.98009" lon="1.08147">
        <ele>703</ele>
        <time>2022-10-21T15:39:35.000Z</time>
      </trkpt>
      <trkpt lat="42.98003" lon="1.08132">
        <ele>701.1</ele>
        <time>2022-10-21T15:39:38.000Z</time>
      </trkpt>
      <trkpt lat="42.97994" lon="1.0812">
        <ele>700.7</ele>
        <time>2022-10-21T15:39:41.000Z</time>
      </trkpt>
      <trkpt lat="42.97986" lon="1.08107">
        <ele>699.8</ele>
        <time>2022-10-21T15:39:44.000Z</time>
      </trkpt>
      <trkpt lat="42.97979" lon="1.08094">
        <ele>696.8</ele>
        <time>2022-10-21T15:39:47.000Z</time>
      </trkpt>
      <trkpt lat="42.97973" lon="1.08084">
        <ele>694.8</ele>
        <time>2022-10-21T15:39:50.000Z</time>
      </trkpt>
      <trkpt lat="42.97965" lon="1.08073">
        <ele>693.3</ele>
        <time>2022-10-21T15:39:53.000Z</time>
      </trkpt>
      <trkpt lat="42.97959" lon="1.08063">
        <ele>692.8</ele>
        <time>2022-10-21T15:39:55.000Z</time>
      </trkpt>
      <trkpt lat="42.9795" lon="1.08054">
        <ele>689.1</ele>
        <time>2022-10-21T15:39:58.000Z</time>
      </trkpt>
      <trkpt lat="42.97944" lon="1.08045">
        <ele>687.8</ele>
        <time>2022-10-21T15:40:02.000Z</time>
      </trkpt>
      <trkpt lat="42.97937" lon="1.08035">
        <ele>685</ele>
        <time>2022-10-21T15:40:06.000Z</time>
      </trkpt>
      <trkpt lat="42.97929" lon="1.08027">
        <ele>682.6</ele>
        <time>2022-10-21T15:40:10.000Z</time>
      </trkpt>
      <trkpt lat="42.97922" lon="1.08018">
        <ele>679.7</ele>
        <time>2022-10-21T15:40:14.000Z</time>
      </trkpt>
      <trkpt lat="42.97916" lon="1.08003">
        <ele>677.5</ele>
        <time>2022-10-21T15:40:17.000Z</time>
      </trkpt>
      <trkpt lat="42.97916" lon="1.07984">
        <ele>676.6</ele>
        <time>2022-10-21T15:40:19.000Z</time>
      </trkpt>
      <trkpt lat="42.97919" lon="1.07966">
        <ele>674.9</ele>
        <time>2022-10-21T15:40:21.000Z</time>
      </trkpt>
      <trkpt lat="42.9792" lon="1.0795">
        <ele>675</ele>
        <time>2022-10-21T15:40:24.000Z</time>
      </trkpt>
      <trkpt lat="42.97922" lon="1.07935">
        <ele>675.7</ele>
        <time>2022-10-21T15:40:29.000Z</time>
      </trkpt>
      <trkpt lat="42.97924" lon="1.07921">
        <ele>675.9</ele>
        <time>2022-10-21T15:40:34.000Z</time>
      </trkpt>
      <trkpt lat="42.97923" lon="1.07906">
        <ele>674.6</ele>
        <time>2022-10-21T15:40:38.000Z</time>
      </trkpt>
      <trkpt lat="42.97921" lon="1.07893">
        <ele>674.4</ele>
        <time>2022-10-21T15:40:41.000Z</time>
      </trkpt>
      <trkpt lat="42.97917" lon="1.07878">
        <ele>673.9</ele>
        <time>2022-10-21T15:40:44.000Z</time>
      </trkpt>
      <trkpt lat="42.97915" lon="1.07865">
        <ele>672.8</ele>
        <time>2022-10-21T15:40:47.000Z</time>
      </trkpt>
      <trkpt lat="42.97912" lon="1.07851">
        <ele>671.3</ele>
        <time>2022-10-21T15:40:52.000Z</time>
      </trkpt>
      <trkpt lat="42.97909" lon="1.07837">
        <ele>670.4</ele>
        <time>2022-10-21T15:40:56.000Z</time>
      </trkpt>
      <trkpt lat="42.97905" lon="1.07825">
        <ele>669.3</ele>
        <time>2022-10-21T15:41:00.000Z</time>
      </trkpt>
      <trkpt lat="42.979" lon="1.07813">
        <ele>667.6</ele>
        <time>2022-10-21T15:41:05.000Z</time>
      </trkpt>
      <trkpt lat="42.97894" lon="1.07802">
        <ele>666.2</ele>
        <time>2022-10-21T15:41:10.000Z</time>
      </trkpt>
      <trkpt lat="42.97885" lon="1.0779">
        <ele>665.5</ele>
        <time>2022-10-21T15:41:14.000Z</time>
      </trkpt>
      <trkpt lat="42.97873" lon="1.07785">
        <ele>664.1</ele>
        <time>2022-10-21T15:41:17.000Z</time>
      </trkpt>
      <trkpt lat="42.97863" lon="1.07784">
        <ele>664.2</ele>
        <time>2022-10-21T15:41:19.000Z</time>
      </trkpt>
      <trkpt lat="42.97854" lon="1.07783">
        <ele>663.7</ele>
        <time>2022-10-21T15:41:21.000Z</time>
      </trkpt>
      <trkpt lat="42.97843" lon="1.07784">
        <ele>663.8</ele>
        <time>2022-10-21T15:41:24.000Z</time>
      </trkpt>
      <trkpt lat="42.97831" lon="1.07781">
        <ele>664</ele>
        <time>2022-10-21T15:41:28.000Z</time>
      </trkpt>
      <trkpt lat="42.97821" lon="1.07781">
        <ele>664.1</ele>
        <time>2022-10-21T15:41:31.000Z</time>
      </trkpt>
      <trkpt lat="42.97811" lon="1.07781">
        <ele>663.8</ele>
        <time>2022-10-21T15:41:34.000Z</time>
      </trkpt>
      <trkpt lat="42.97801" lon="1.07779">
        <ele>664</ele>
        <time>2022-10-21T15:41:37.000Z</time>
      </trkpt>
      <trkpt lat="42.97792" lon="1.07777">
        <ele>664.8</ele>
        <time>2022-10-21T15:41:40.000Z</time>
      </trkpt>
      <trkpt lat="42.97781" lon="1.07775">
        <ele>665.4</ele>
        <time>2022-10-21T15:41:44.000Z</time>
      </trkpt>
      <trkpt lat="42.97769" lon="1.07774">
        <ele>666</ele>
        <time>2022-10-21T15:41:48.000Z</time>
      </trkpt>
      <trkpt lat="42.97758" lon="1.07775">
        <ele>666.5</ele>
        <time>2022-10-21T15:41:52.000Z</time>
      </trkpt>
      <trkpt lat="42.97748" lon="1.07777">
        <ele>667.2</ele>
        <time>2022-10-21T15:41:56.000Z</time>
      </trkpt>
      <trkpt lat="42.97737" lon="1.07782">
        <ele>669.4</ele>
        <time>2022-10-21T15:42:01.000Z</time>
      </trkpt>
      <trkpt lat="42.97728" lon="1.07787">
        <ele>670.8</ele>
        <time>2022-10-21T15:42:06.000Z</time>
      </trkpt>
      <trkpt lat="42.9772" lon="1.07793">
        <ele>672.1</ele>
        <time>2022-10-21T15:42:11.000Z</time>
      </trkpt>
      <trkpt lat="42.97711" lon="1.07799">
        <ele>672.5</ele>
        <time>2022-10-21T15:42:16.000Z</time>
      </trkpt>
      <trkpt lat="42.97702" lon="1.07806">
        <ele>673.2</ele>
        <time>2022-10-21T15:42:21.000Z</time>
      </trkpt>
      <trkpt lat="42.97693" lon="1.07813">
        <ele>673.7</ele>
        <time>2022-10-21T15:42:26.000Z</time>
      </trkpt>
      <trkpt lat="42.97684" lon="1.0782">
        <ele>674.1</ele>
        <time>2022-10-21T15:42:31.000Z</time>
      </trkpt>
      <trkpt lat="42.97675" lon="1.07827">
        <ele>674.6</ele>
        <time>2022-10-21T15:42:36.000Z</time>
      </trkpt>
      <trkpt lat="42.97666" lon="1.07835">
        <ele>676</ele>
        <time>2022-10-21T15:42:41.000Z</time>
      </trkpt>
      <trkpt lat="42.97658" lon="1.07839">
        <ele>676.5</ele>
        <time>2022-10-21T15:42:46.000Z</time>
      </trkpt>
      <trkpt lat="42.97648" lon="1.07844">
        <ele>678.5</ele>
        <time>2022-10-21T15:42:52.000Z</time>
      </trkpt>
      <trkpt lat="42.9764" lon="1.07852">
        <ele>679.6</ele>
        <time>2022-10-21T15:42:58.000Z</time>
      </trkpt>
      <trkpt lat="42.97632" lon="1.07858">
        <ele>680.6</ele>
        <time>2022-10-21T15:43:04.000Z</time>
      </trkpt>
      <trkpt lat="42.97623" lon="1.07865">
        <ele>681.9</ele>
        <time>2022-10-21T15:43:10.000Z</time>
      </trkpt>
      <trkpt lat="42.97614" lon="1.07871">
        <ele>683.1</ele>
        <time>2022-10-21T15:43:16.000Z</time>
      </trkpt>
      <trkpt lat="42.97605" lon="1.07878">
        <ele>684.2</ele>
        <time>2022-10-21T15:43:22.000Z</time>
      </trkpt>
      <trkpt lat="42.97595" lon="1.07885">
        <ele>685.1</ele>
        <time>2022-10-21T15:43:28.000Z</time>
      </trkpt>
      <trkpt lat="42.97587" lon="1.0789">
        <ele>686</ele>
        <time>2022-10-21T15:43:33.000Z</time>
      </trkpt>
      <trkpt lat="42.97578" lon="1.07896">
        <ele>686.8</ele>
        <time>2022-10-21T15:43:38.000Z</time>
      </trkpt>
      <trkpt lat="42.9757" lon="1.07902">
        <ele>687.2</ele>
        <time>2022-10-21T15:43:43.000Z</time>
      </trkpt>
      <trkpt lat="42.9756" lon="1.07905">
        <ele>687.8</ele>
        <time>2022-10-21T15:43:48.000Z</time>
      </trkpt>
      <trkpt lat="42.97551" lon="1.07908">
        <ele>688.1</ele>
        <time>2022-10-21T15:43:53.000Z</time>
      </trkpt>
      <trkpt lat="42.97541" lon="1.07912">
        <ele>689.2</ele>
        <time>2022-10-21T15:43:58.000Z</time>
      </trkpt>
      <trkpt lat="42.97533" lon="1.07917">
        <ele>690.2</ele>
        <time>2022-10-21T15:44:03.000Z</time>
      </trkpt>
      <trkpt lat="42.97523" lon="1.0792">
        <ele>690.7</ele>
        <time>2022-10-21T15:44:09.000Z</time>
      </trkpt>
      <trkpt lat="42.97514" lon="1.07921">
        <ele>690.9</ele>
        <time>2022-10-21T15:44:13.000Z</time>
      </trkpt>
      <trkpt lat="42.97504" lon="1.07923">
        <ele>690.8</ele>
        <time>2022-10-21T15:44:16.000Z</time>
      </trkpt>
      <trkpt lat="42.97496" lon="1.07927">
        <ele>690.9</ele>
        <time>2022-10-21T15:44:19.000Z</time>
      </trkpt>
      <trkpt lat="42.97485" lon="1.07934">
        <ele>690.7</ele>
        <time>2022-10-21T15:44:23.000Z</time>
      </trkpt>
      <trkpt lat="42.97477" lon="1.07945">
        <ele>690.5</ele>
        <time>2022-10-21T15:44:27.000Z</time>
      </trkpt>
      <trkpt lat="42.97471" lon="1.07955">
        <ele>691.1</ele>
        <time>2022-10-21T15:44:30.000Z</time>
      </trkpt>
      <trkpt lat="42.97463" lon="1.07965">
        <ele>691</ele>
        <time>2022-10-21T15:44:34.000Z</time>
      </trkpt>
      <trkpt lat="42.97455" lon="1.07975">
        <ele>691.2</ele>
        <time>2022-10-21T15:44:38.000Z</time>
      </trkpt>
      <trkpt lat="42.97447" lon="1.07984">
        <ele>691.2</ele>
        <time>2022-10-21T15:44:42.000Z</time>
      </trkpt>
      <trkpt lat="42.9744" lon="1.07997">
        <ele>690.9</ele>
        <time>2022-10-21T15:44:45.000Z</time>
      </trkpt>
      <trkpt lat="42.97434" lon="1.08011">
        <ele>690.2</ele>
        <time>2022-10-21T15:44:48.000Z</time>
      </trkpt>
      <trkpt lat="42.97428" lon="1.08024">
        <ele>689.7</ele>
        <time>2022-10-21T15:44:51.000Z</time>
      </trkpt>
      <trkpt lat="42.97422" lon="1.08035">
        <ele>690</ele>
        <time>2022-10-21T15:44:54.000Z</time>
      </trkpt>
      <trkpt lat="42.97417" lon="1.08049">
        <ele>691</ele>
        <time>2022-10-21T15:44:58.000Z</time>
      </trkpt>
      <trkpt lat="42.97413" lon="1.08061">
        <ele>691.1</ele>
        <time>2022-10-21T15:45:02.000Z</time>
      </trkpt>
      <trkpt lat="42.97409" lon="1.08072">
        <ele>691.8</ele>
        <time>2022-10-21T15:45:06.000Z</time>
      </trkpt>
      <trkpt lat="42.97406" lon="1.08084">
        <ele>692.5</ele>
        <time>2022-10-21T15:45:10.000Z</time>
      </trkpt>
      <trkpt lat="42.97403" lon="1.08097">
        <ele>693.1</ele>
        <time>2022-10-21T15:45:14.000Z</time>
      </trkpt>
      <trkpt lat="42.97398" lon="1.0811">
        <ele>694.5</ele>
        <time>2022-10-21T15:45:19.000Z</time>
      </trkpt>
      <trkpt lat="42.97393" lon="1.08123">
        <ele>695.6</ele>
        <time>2022-10-21T15:45:24.000Z</time>
      </trkpt>
      <trkpt lat="42.97389" lon="1.08136">
        <ele>696.6</ele>
        <time>2022-10-21T15:45:29.000Z</time>
      </trkpt>
      <trkpt lat="42.97383" lon="1.08149">
        <ele>697.8</ele>
        <time>2022-10-21T15:45:34.000Z</time>
      </trkpt>
      <trkpt lat="42.97377" lon="1.08161">
        <ele>698.8</ele>
        <time>2022-10-21T15:45:39.000Z</time>
      </trkpt>
      <trkpt lat="42.97372" lon="1.08174">
        <ele>699.6</ele>
        <time>2022-10-21T15:45:44.000Z</time>
      </trkpt>
      <trkpt lat="42.97367" lon="1.08186">
        <ele>700.8</ele>
        <time>2022-10-21T15:45:49.000Z</time>
      </trkpt>
      <trkpt lat="42.97361" lon="1.08198">
        <ele>701.7</ele>
        <time>2022-10-21T15:45:54.000Z</time>
      </trkpt>
      <trkpt lat="42.97356" lon="1.08211">
        <ele>703.1</ele>
        <time>2022-10-21T15:45:59.000Z</time>
      </trkpt>
      <trkpt lat="42.9735" lon="1.08223">
        <ele>703.6</ele>
        <time>2022-10-21T15:46:04.000Z</time>
      </trkpt>
      <trkpt lat="42.97341" lon="1.08232">
        <ele>703.6</ele>
        <time>2022-10-21T15:46:09.000Z</time>
      </trkpt>
      <trkpt lat="42.97332" lon="1.08241">
        <ele>704.4</ele>
        <time>2022-10-21T15:46:14.000Z</time>
      </trkpt>
      <trkpt lat="42.97325" lon="1.08249">
        <ele>704.9</ele>
        <time>2022-10-21T15:46:18.000Z</time>
      </trkpt>
      <trkpt lat="42.97317" lon="1.08256">
        <ele>705.4</ele>
        <time>2022-10-21T15:46:22.000Z</time>
      </trkpt>
      <trkpt lat="42.97308" lon="1.08265">
        <ele>706.6</ele>
        <time>2022-10-21T15:46:27.000Z</time>
      </trkpt>
      <trkpt lat="42.973" lon="1.08274">
        <ele>708</ele>
        <time>2022-10-21T15:46:32.000Z</time>
      </trkpt>
      <trkpt lat="42.97292" lon="1.08284">
        <ele>709</ele>
        <time>2022-10-21T15:46:37.000Z</time>
      </trkpt>
      <trkpt lat="42.97284" lon="1.08294">
        <ele>710</ele>
        <time>2022-10-21T15:46:42.000Z</time>
      </trkpt>
      <trkpt lat="42.97276" lon="1.08303">
        <ele>711</ele>
        <time>2022-10-21T15:46:47.000Z</time>
      </trkpt>
      <trkpt lat="42.97267" lon="1.08313">
        <ele>712.3</ele>
        <time>2022-10-21T15:46:52.000Z</time>
      </trkpt>
      <trkpt lat="42.9726" lon="1.08322">
        <ele>713.9</ele>
        <time>2022-10-21T15:46:58.000Z</time>
      </trkpt>
      <trkpt lat="42.97251" lon="1.08329">
        <ele>714.9</ele>
        <time>2022-10-21T15:47:04.000Z</time>
      </trkpt>
      <trkpt lat="42.97243" lon="1.08338">
        <ele>715.4</ele>
        <time>2022-10-21T15:47:10.000Z</time>
      </trkpt>
      <trkpt lat="42.97235" lon="1.08344">
        <ele>715.5</ele>
        <time>2022-10-21T15:47:16.000Z</time>
      </trkpt>
      <trkpt lat="42.97227" lon="1.08352">
        <ele>715.1</ele>
        <time>2022-10-21T15:47:22.000Z</time>
      </trkpt>
      <trkpt lat="42.97224" lon="1.08366">
        <ele>714.3</ele>
        <time>2022-10-21T15:47:28.000Z</time>
      </trkpt>
      <trkpt lat="42.97226" lon="1.08381">
        <ele>714.2</ele>
        <time>2022-10-21T15:47:33.000Z</time>
      </trkpt>
      <trkpt lat="42.97229" lon="1.08393">
        <ele>714.3</ele>
        <time>2022-10-21T15:47:38.000Z</time>
      </trkpt>
      <trkpt lat="42.97232" lon="1.08405">
        <ele>715.7</ele>
        <time>2022-10-21T15:47:44.000Z</time>
      </trkpt>
      <trkpt lat="42.97225" lon="1.08412">
        <ele>714.9</ele>
        <time>2022-10-21T15:47:52.000Z</time>
      </trkpt>
      <trkpt lat="42.97216" lon="1.08419">
        <ele>713.1</ele>
        <time>2022-10-21T15:48:03.000Z</time>
      </trkpt>
      <trkpt lat="42.97207" lon="1.0842">
        <ele>709.8</ele>
        <time>2022-10-21T15:48:10.000Z</time>
      </trkpt>
      <trkpt lat="42.97198" lon="1.08417">
        <ele>705.5</ele>
        <time>2022-10-21T15:48:15.000Z</time>
      </trkpt>
      <trkpt lat="42.97194" lon="1.0843">
        <ele>702.5</ele>
        <time>2022-10-21T15:48:21.000Z</time>
      </trkpt>
      <trkpt lat="42.97185" lon="1.08436">
        <ele>697.6</ele>
        <time>2022-10-21T15:48:28.000Z</time>
      </trkpt>
      <trkpt lat="42.97174" lon="1.08434">
        <ele>695.2</ele>
        <time>2022-10-21T15:48:33.000Z</time>
      </trkpt>
      <trkpt lat="42.97165" lon="1.08426">
        <ele>693.4</ele>
        <time>2022-10-21T15:48:37.000Z</time>
      </trkpt>
      <trkpt lat="42.97159" lon="1.08415">
        <ele>692.2</ele>
        <time>2022-10-21T15:48:42.000Z</time>
      </trkpt>
      <trkpt lat="42.97151" lon="1.08407">
        <ele>690.8</ele>
        <time>2022-10-21T15:48:49.000Z</time>
      </trkpt>
      <trkpt lat="42.97152" lon="1.08422">
        <ele>687.8</ele>
        <time>2022-10-21T15:48:55.000Z</time>
      </trkpt>
      <trkpt lat="42.97154" lon="1.08437">
        <ele>685.6</ele>
        <time>2022-10-21T15:49:00.000Z</time>
      </trkpt>
      <trkpt lat="42.97157" lon="1.08452">
        <ele>683.4</ele>
        <time>2022-10-21T15:49:05.000Z</time>
      </trkpt>
      <trkpt lat="42.9716" lon="1.08465">
        <ele>679.7</ele>
        <time>2022-10-21T15:49:10.000Z</time>
      </trkpt>
      <trkpt lat="42.9716" lon="1.0848">
        <ele>674.9</ele>
        <time>2022-10-21T15:49:14.000Z</time>
      </trkpt>
      <trkpt lat="42.97165" lon="1.08493">
        <ele>671.7</ele>
        <time>2022-10-21T15:49:18.000Z</time>
      </trkpt>
      <trkpt lat="42.97172" lon="1.08503">
        <ele>670.2</ele>
        <time>2022-10-21T15:49:22.000Z</time>
      </trkpt>
      <trkpt lat="42.97179" lon="1.08513">
        <ele>668.7</ele>
        <time>2022-10-21T15:49:26.000Z</time>
      </trkpt>
      <trkpt lat="42.97183" lon="1.08525">
        <ele>666</ele>
        <time>2022-10-21T15:49:30.000Z</time>
      </trkpt>
      <trkpt lat="42.9719" lon="1.08534">
        <ele>664</ele>
        <time>2022-10-21T15:49:34.000Z</time>
      </trkpt>
      <trkpt lat="42.97196" lon="1.08544">
        <ele>663</ele>
        <time>2022-10-21T15:49:39.000Z</time>
      </trkpt>
      <trkpt lat="42.97202" lon="1.08557">
        <ele>660.9</ele>
        <time>2022-10-21T15:49:43.000Z</time>
      </trkpt>
      <trkpt lat="42.97206" lon="1.08572">
        <ele>658.2</ele>
        <time>2022-10-21T15:49:48.000Z</time>
      </trkpt>
      <trkpt lat="42.97212" lon="1.08582">
        <ele>656.5</ele>
        <time>2022-10-21T15:49:52.000Z</time>
      </trkpt>
      <trkpt lat="42.9722" lon="1.08592">
        <ele>654.8</ele>
        <time>2022-10-21T15:49:56.000Z</time>
      </trkpt>
      <trkpt lat="42.97225" lon="1.08603">
        <ele>653.2</ele>
        <time>2022-10-21T15:50:01.000Z</time>
      </trkpt>
      <trkpt lat="42.97229" lon="1.08617">
        <ele>650.5</ele>
        <time>2022-10-21T15:50:05.000Z</time>
      </trkpt>
      <trkpt lat="42.97232" lon="1.08632">
        <ele>647.1</ele>
        <time>2022-10-21T15:50:10.000Z</time>
      </trkpt>
      <trkpt lat="42.97236" lon="1.08646">
        <ele>644.5</ele>
        <time>2022-10-21T15:50:15.000Z</time>
      </trkpt>
      <trkpt lat="42.97244" lon="1.08657">
        <ele>642.7</ele>
        <time>2022-10-21T15:50:20.000Z</time>
      </trkpt>
      <trkpt lat="42.9725" lon="1.08666">
        <ele>641.8</ele>
        <time>2022-10-21T15:50:24.000Z</time>
      </trkpt>
      <trkpt lat="42.97257" lon="1.08674">
        <ele>640.8</ele>
        <time>2022-10-21T15:50:28.000Z</time>
      </trkpt>
      <trkpt lat="42.97258" lon="1.08687">
        <ele>638.1</ele>
        <time>2022-10-21T15:50:33.000Z</time>
      </trkpt>
      <trkpt lat="42.97249" lon="1.0869">
        <ele>634.6</ele>
        <time>2022-10-21T15:50:39.000Z</time>
      </trkpt>
      <trkpt lat="42.9724" lon="1.08685">
        <ele>632.4</ele>
        <time>2022-10-21T15:50:43.000Z</time>
      </trkpt>
      <trkpt lat="42.97231" lon="1.08677">
        <ele>631.1</ele>
        <time>2022-10-21T15:50:47.000Z</time>
      </trkpt>
      <trkpt lat="42.97224" lon="1.08685">
        <ele>626.5</ele>
        <time>2022-10-21T15:50:55.000Z</time>
      </trkpt>
      <trkpt lat="42.97224" lon="1.087">
        <ele>622.5</ele>
        <time>2022-10-21T15:51:01.000Z</time>
      </trkpt>
      <trkpt lat="42.97229" lon="1.08713">
        <ele>620.3</ele>
        <time>2022-10-21T15:51:05.000Z</time>
      </trkpt>
      <trkpt lat="42.97234" lon="1.08724">
        <ele>618.6</ele>
        <time>2022-10-21T15:51:08.000Z</time>
      </trkpt>
      <trkpt lat="42.97235" lon="1.08739">
        <ele>614.6</ele>
        <time>2022-10-21T15:51:13.000Z</time>
      </trkpt>
      <trkpt lat="42.97238" lon="1.08752">
        <ele>611.4</ele>
        <time>2022-10-21T15:51:19.000Z</time>
      </trkpt>
      <trkpt lat="42.97238" lon="1.08765">
        <ele>609.2</ele>
        <time>2022-10-21T15:51:23.000Z</time>
      </trkpt>
      <trkpt lat="42.97243" lon="1.08779">
        <ele>605.8</ele>
        <time>2022-10-21T15:51:28.000Z</time>
      </trkpt>
      <trkpt lat="42.9725" lon="1.08794">
        <ele>603.6</ele>
        <time>2022-10-21T15:51:32.000Z</time>
      </trkpt>
      <trkpt lat="42.97256" lon="1.08809">
        <ele>602.8</ele>
        <time>2022-10-21T15:51:35.000Z</time>
      </trkpt>
      <trkpt lat="42.97261" lon="1.08821">
        <ele>601.2</ele>
        <time>2022-10-21T15:51:38.000Z</time>
      </trkpt>
      <trkpt lat="42.97265" lon="1.08835">
        <ele>600.2</ele>
        <time>2022-10-21T15:51:41.000Z</time>
      </trkpt>
      <trkpt lat="42.97273" lon="1.08844">
        <ele>600.4</ele>
        <time>2022-10-21T15:51:45.000Z</time>
      </trkpt>
      <trkpt lat="42.97279" lon="1.08858">
        <ele>598.4</ele>
        <time>2022-10-21T15:51:50.000Z</time>
      </trkpt>
      <trkpt lat="42.97282" lon="1.08872">
        <ele>596.3</ele>
        <time>2022-10-21T15:51:54.000Z</time>
      </trkpt>
      <trkpt lat="42.97285" lon="1.08884">
        <ele>593.8</ele>
        <time>2022-10-21T15:51:59.000Z</time>
      </trkpt>
      <trkpt lat="42.97286" lon="1.08898">
        <ele>589.9</ele>
        <time>2022-10-21T15:52:04.000Z</time>
      </trkpt>
      <trkpt lat="42.97286" lon="1.08911">
        <ele>587.4</ele>
        <time>2022-10-21T15:52:08.000Z</time>
      </trkpt>
      <trkpt lat="42.9728" lon="1.08925">
        <ele>585.1</ele>
        <time>2022-10-21T15:52:12.000Z</time>
      </trkpt>
      <trkpt lat="42.97272" lon="1.08931">
        <ele>584</ele>
        <time>2022-10-21T15:52:14.000Z</time>
      </trkpt>
      <trkpt lat="42.97263" lon="1.08936">
        <ele>584.1</ele>
        <time>2022-10-21T15:52:16.000Z</time>
      </trkpt>
      <trkpt lat="42.97254" lon="1.08929">
        <ele>584.4</ele>
        <time>2022-10-21T15:52:23.000Z</time>
      </trkpt>
      <trkpt lat="42.97243" lon="1.08927">
        <ele>583.6</ele>
        <time>2022-10-21T15:52:27.000Z</time>
      </trkpt>
      <trkpt lat="42.97234" lon="1.08929">
        <ele>584</ele>
        <time>2022-10-21T15:52:31.000Z</time>
      </trkpt>
      <trkpt lat="42.97223" lon="1.08924">
        <ele>583.1</ele>
        <time>2022-10-21T15:52:36.000Z</time>
      </trkpt>
      <trkpt lat="42.97213" lon="1.08923">
        <ele>581.6</ele>
        <time>2022-10-21T15:52:40.000Z</time>
      </trkpt>
      <trkpt lat="42.97204" lon="1.08928">
        <ele>580.1</ele>
        <time>2022-10-21T15:52:43.000Z</time>
      </trkpt>
      <trkpt lat="42.97195" lon="1.08931">
        <ele>580</ele>
        <time>2022-10-21T15:52:47.000Z</time>
      </trkpt>
      <trkpt lat="42.97183" lon="1.08933">
        <ele>579.2</ele>
        <time>2022-10-21T15:52:51.000Z</time>
      </trkpt>
      <trkpt lat="42.97173" lon="1.08933">
        <ele>578.2</ele>
        <time>2022-10-21T15:52:54.000Z</time>
      </trkpt>
      <trkpt lat="42.97164" lon="1.08936">
        <ele>578</ele>
        <time>2022-10-21T15:52:56.000Z</time>
      </trkpt>
      <trkpt lat="42.97154" lon="1.08942">
        <ele>577.1</ele>
        <time>2022-10-21T15:52:58.000Z</time>
      </trkpt>
      <trkpt lat="42.97146" lon="1.08949">
        <ele>576</ele>
        <time>2022-10-21T15:53:00.000Z</time>
      </trkpt>
      <trkpt lat="42.97138" lon="1.08958">
        <ele>575.9</ele>
        <time>2022-10-21T15:53:02.000Z</time>
      </trkpt>
      <trkpt lat="42.97129" lon="1.0897">
        <ele>575.6</ele>
        <time>2022-10-21T15:53:04.000Z</time>
      </trkpt>
      <trkpt lat="42.97119" lon="1.08983">
        <ele>573.6</ele>
        <time>2022-10-21T15:53:06.000Z</time>
      </trkpt>
      <trkpt lat="42.97109" lon="1.08995">
        <ele>572.2</ele>
        <time>2022-10-21T15:53:08.000Z</time>
      </trkpt>
      <trkpt lat="42.971" lon="1.09007">
        <ele>571.2</ele>
        <time>2022-10-21T15:53:10.000Z</time>
      </trkpt>
      <trkpt lat="42.97091" lon="1.09021">
        <ele>571</ele>
        <time>2022-10-21T15:53:12.000Z</time>
      </trkpt>
      <trkpt lat="42.97083" lon="1.09037">
        <ele>570.5</ele>
        <time>2022-10-21T15:53:14.000Z</time>
      </trkpt>
      <trkpt lat="42.97077" lon="1.09052">
        <ele>570.3</ele>
        <time>2022-10-21T15:53:16.000Z</time>
      </trkpt>
      <trkpt lat="42.97072" lon="1.09066">
        <ele>570.1</ele>
        <time>2022-10-21T15:53:18.000Z</time>
      </trkpt>
      <trkpt lat="42.9707" lon="1.09081">
        <ele>571.1</ele>
        <time>2022-10-21T15:53:21.000Z</time>
      </trkpt>
      <trkpt lat="42.97072" lon="1.09096">
        <ele>572.6</ele>
        <time>2022-10-21T15:53:26.000Z</time>
      </trkpt>
      <trkpt lat="42.97069" lon="1.09107">
        <ele>572.4</ele>
        <time>2022-10-21T15:53:32.000Z</time>
      </trkpt>
      <trkpt lat="42.97056" lon="1.09108">
        <ele>570.7</ele>
        <time>2022-10-21T15:53:36.000Z</time>
      </trkpt>
      <trkpt lat="42.97046" lon="1.09109">
        <ele>568.4</ele>
        <time>2022-10-21T15:53:39.000Z</time>
      </trkpt>
      <trkpt lat="42.97035" lon="1.09108">
        <ele>567.2</ele>
        <time>2022-10-21T15:53:41.000Z</time>
      </trkpt>
      <trkpt lat="42.97025" lon="1.09109">
        <ele>567.2</ele>
        <time>2022-10-21T15:53:45.000Z</time>
      </trkpt>
      <trkpt lat="42.97017" lon="1.09098">
        <ele>565.6</ele>
        <time>2022-10-21T15:53:48.000Z</time>
      </trkpt>
      <trkpt lat="42.97009" lon="1.09087">
        <ele>562.8</ele>
        <time>2022-10-21T15:53:50.000Z</time>
      </trkpt>
      <trkpt lat="42.97006" lon="1.09071">
        <ele>559.4</ele>
        <time>2022-10-21T15:53:53.000Z</time>
      </trkpt>
      <trkpt lat="42.97002" lon="1.09059">
        <ele>556.3</ele>
        <time>2022-10-21T15:53:56.000Z</time>
      </trkpt>
      <trkpt lat="42.96991" lon="1.09056">
        <ele>554.6</ele>
        <time>2022-10-21T15:53:59.000Z</time>
      </trkpt>
      <trkpt lat="42.9698" lon="1.09057">
        <ele>553.1</ele>
        <time>2022-10-21T15:54:01.000Z</time>
      </trkpt>
      <trkpt lat="42.96966" lon="1.09053">
        <ele>552.5</ele>
        <time>2022-10-21T15:54:03.000Z</time>
      </trkpt>
      <trkpt lat="42.96953" lon="1.0905">
        <ele>551.6</ele>
        <time>2022-10-21T15:54:05.000Z</time>
      </trkpt>
      <trkpt lat="42.96941" lon="1.09049">
        <ele>548.8</ele>
        <time>2022-10-21T15:54:07.000Z</time>
      </trkpt>
      <trkpt lat="42.96932" lon="1.0905">
        <ele>548.3</ele>
        <time>2022-10-21T15:54:09.000Z</time>
      </trkpt>
      <trkpt lat="42.96919" lon="1.09052">
        <ele>547</ele>
        <time>2022-10-21T15:54:12.000Z</time>
      </trkpt>
      <trkpt lat="42.96907" lon="1.09052">
        <ele>544</ele>
        <time>2022-10-21T15:54:15.000Z</time>
      </trkpt>
      <trkpt lat="42.96897" lon="1.0905">
        <ele>541.1</ele>
        <time>2022-10-21T15:54:19.000Z</time>
      </trkpt>
      <trkpt lat="42.9689" lon="1.09041">
        <ele>538.7</ele>
        <time>2022-10-21T15:54:23.000Z</time>
      </trkpt>
      <trkpt lat="42.96883" lon="1.0903">
        <ele>535.8</ele>
        <time>2022-10-21T15:54:26.000Z</time>
      </trkpt>
      <trkpt lat="42.96879" lon="1.09012">
        <ele>533.8</ele>
        <time>2022-10-21T15:54:29.000Z</time>
      </trkpt>
      <trkpt lat="42.96871" lon="1.09002">
        <ele>531.4</ele>
        <time>2022-10-21T15:54:32.000Z</time>
      </trkpt>
      <trkpt lat="42.96864" lon="1.08992">
        <ele>530.3</ele>
        <time>2022-10-21T15:54:34.000Z</time>
      </trkpt>
      <trkpt lat="42.96856" lon="1.08981">
        <ele>529.2</ele>
        <time>2022-10-21T15:54:36.000Z</time>
      </trkpt>
      <trkpt lat="42.9685" lon="1.0897">
        <ele>529</ele>
        <time>2022-10-21T15:54:38.000Z</time>
      </trkpt>
      <trkpt lat="42.96842" lon="1.0896">
        <ele>529.1</ele>
        <time>2022-10-21T15:54:40.000Z</time>
      </trkpt>
      <trkpt lat="42.96834" lon="1.0895">
        <ele>527.5</ele>
        <time>2022-10-21T15:54:43.000Z</time>
      </trkpt>
      <trkpt lat="42.96822" lon="1.08953">
        <ele>525.8</ele>
        <time>2022-10-21T15:54:49.000Z</time>
      </trkpt>
      <trkpt lat="42.96812" lon="1.08959">
        <ele>525</ele>
        <time>2022-10-21T15:54:52.000Z</time>
      </trkpt>
      <trkpt lat="42.96802" lon="1.08962">
        <ele>525</ele>
        <time>2022-10-21T15:54:55.000Z</time>
      </trkpt>
      <trkpt lat="42.9679" lon="1.08965">
        <ele>523.1</ele>
        <time>2022-10-21T15:54:58.000Z</time>
      </trkpt>
      <trkpt lat="42.9678" lon="1.08974">
        <ele>521.9</ele>
        <time>2022-10-21T15:55:01.000Z</time>
      </trkpt>
      <trkpt lat="42.96772" lon="1.08981">
        <ele>519.8</ele>
        <time>2022-10-21T15:55:03.000Z</time>
      </trkpt>
      <trkpt lat="42.96763" lon="1.08988">
        <ele>519</ele>
        <time>2022-10-21T15:55:05.000Z</time>
      </trkpt>
      <trkpt lat="42.96753" lon="1.08995">
        <ele>518.1</ele>
        <time>2022-10-21T15:55:07.000Z</time>
      </trkpt>
      <trkpt lat="42.96745" lon="1.09002">
        <ele>516.4</ele>
        <time>2022-10-21T15:55:09.000Z</time>
      </trkpt>
      <trkpt lat="42.96735" lon="1.09006">
        <ele>515.1</ele>
        <time>2022-10-21T15:55:11.000Z</time>
      </trkpt>
      <trkpt lat="42.96725" lon="1.09009">
        <ele>511.5</ele>
        <time>2022-10-21T15:55:13.000Z</time>
      </trkpt>
      <trkpt lat="42.96714" lon="1.09013">
        <ele>510.4</ele>
        <time>2022-10-21T15:55:15.000Z</time>
      </trkpt>
      <trkpt lat="42.96704" lon="1.09017">
        <ele>509.5</ele>
        <time>2022-10-21T15:55:17.000Z</time>
      </trkpt>
      <trkpt lat="42.96694" lon="1.09021">
        <ele>505.3</ele>
        <time>2022-10-21T15:55:19.000Z</time>
      </trkpt>
      <trkpt lat="42.96682" lon="1.09026">
        <ele>505.3</ele>
        <time>2022-10-21T15:55:21.000Z</time>
      </trkpt>
      <trkpt lat="42.96672" lon="1.09032">
        <ele>502.3</ele>
        <time>2022-10-21T15:55:23.000Z</time>
      </trkpt>
      <trkpt lat="42.96662" lon="1.09038">
        <ele>500.3</ele>
        <time>2022-10-21T15:55:26.000Z</time>
      </trkpt>
      <trkpt lat="42.96652" lon="1.09046">
        <ele>497.6</ele>
        <time>2022-10-21T15:55:29.000Z</time>
      </trkpt>
      <trkpt lat="42.96644" lon="1.09054">
        <ele>496.8</ele>
        <time>2022-10-21T15:55:31.000Z</time>
      </trkpt>
      <trkpt lat="42.96637" lon="1.09065">
        <ele>496</ele>
        <time>2022-10-21T15:55:33.000Z</time>
      </trkpt>
      <trkpt lat="42.96633" lon="1.09081">
        <ele>495.1</ele>
        <time>2022-10-21T15:55:35.000Z</time>
      </trkpt>
      <trkpt lat="42.96629" lon="1.09098">
        <ele>495.1</ele>
        <time>2022-10-21T15:55:37.000Z</time>
      </trkpt>
      <trkpt lat="42.96627" lon="1.09114">
        <ele>494.7</ele>
        <time>2022-10-21T15:55:39.000Z</time>
      </trkpt>
      <trkpt lat="42.96623" lon="1.09127">
        <ele>493.7</ele>
        <time>2022-10-21T15:55:41.000Z</time>
      </trkpt>
      <trkpt lat="42.96615" lon="1.09139">
        <ele>491.9</ele>
        <time>2022-10-21T15:55:44.000Z</time>
      </trkpt>
      <trkpt lat="42.96614" lon="1.09155">
        <ele>490.7</ele>
        <time>2022-10-21T15:55:47.000Z</time>
      </trkpt>
      <trkpt lat="42.96613" lon="1.0917">
        <ele>489.6</ele>
        <time>2022-10-21T15:55:50.000Z</time>
      </trkpt>
      <trkpt lat="42.96611" lon="1.09188">
        <ele>487.1</ele>
        <time>2022-10-21T15:55:53.000Z</time>
      </trkpt>
      <trkpt lat="42.96611" lon="1.092">
        <ele>486</ele>
        <time>2022-10-21T15:55:56.000Z</time>
      </trkpt>
      <trkpt lat="42.96616" lon="1.09212">
        <ele>483.9</ele>
        <time>2022-10-21T15:56:01.000Z</time>
      </trkpt>
      <trkpt lat="42.96611" lon="1.09224">
        <ele>481</ele>
        <time>2022-10-21T15:56:07.000Z</time>
      </trkpt>
      <trkpt lat="42.96606" lon="1.09237">
        <ele>479.3</ele>
        <time>2022-10-21T15:56:10.000Z</time>
      </trkpt>
      <trkpt lat="42.96601" lon="1.09251">
        <ele>478.7</ele>
        <time>2022-10-21T15:56:13.000Z</time>
      </trkpt>
      <trkpt lat="42.96598" lon="1.09268">
        <ele>476.5</ele>
        <time>2022-10-21T15:56:16.000Z</time>
      </trkpt>
      <trkpt lat="42.96595" lon="1.09281">
        <ele>474.9</ele>
        <time>2022-10-21T15:56:21.000Z</time>
      </trkpt>
      <trkpt lat="42.9659" lon="1.09291">
        <ele>471.7</ele>
        <time>2022-10-21T15:56:26.000Z</time>
      </trkpt>
      <trkpt lat="42.9658" lon="1.09296">
        <ele>468.5</ele>
        <time>2022-10-21T15:56:30.000Z</time>
      </trkpt>
      <trkpt lat="42.96572" lon="1.09301">
        <ele>466.1</ele>
        <time>2022-10-21T15:56:33.000Z</time>
      </trkpt>
      <trkpt lat="42.96562" lon="1.09309">
        <ele>463.6</ele>
        <time>2022-10-21T15:56:37.000Z</time>
      </trkpt>
      <trkpt lat="42.96553" lon="1.09314">
        <ele>459.3</ele>
        <time>2022-10-21T15:56:42.000Z</time>
      </trkpt>
      <trkpt lat="42.96543" lon="1.09318">
        <ele>456.8</ele>
        <time>2022-10-21T15:56:46.000Z</time>
      </trkpt>
      <trkpt lat="42.96534" lon="1.09327">
        <ele>454.6</ele>
        <time>2022-10-21T15:56:50.000Z</time>
      </trkpt>
      <trkpt lat="42.96527" lon="1.09338">
        <ele>452</ele>
        <time>2022-10-21T15:56:53.000Z</time>
      </trkpt>
      <trkpt lat="42.96526" lon="1.09352">
        <ele>450</ele>
        <time>2022-10-21T15:56:58.000Z</time>
      </trkpt>
      <trkpt lat="42.96521" lon="1.09339">
        <ele>448.2</ele>
        <time>2022-10-21T15:57:04.000Z</time>
      </trkpt>
      <trkpt lat="42.96512" lon="1.09333">
        <ele>445.3</ele>
        <time>2022-10-21T15:57:09.000Z</time>
      </trkpt>
      <trkpt lat="42.96503" lon="1.09337">
        <ele>443.4</ele>
        <time>2022-10-21T15:57:13.000Z</time>
      </trkpt>
      <trkpt lat="42.96493" lon="1.09342">
        <ele>442.7</ele>
        <time>2022-10-21T15:57:16.000Z</time>
      </trkpt>
      <trkpt lat="42.96481" lon="1.09348">
        <ele>441.9</ele>
        <time>2022-10-21T15:57:19.000Z</time>
      </trkpt>
      <trkpt lat="42.96473" lon="1.09354">
        <ele>441.1</ele>
        <time>2022-10-21T15:57:22.000Z</time>
      </trkpt>
      <trkpt lat="42.96463" lon="1.0935">
        <ele>440.9</ele>
        <time>2022-10-21T15:57:28.000Z</time>
      </trkpt>
      <trkpt lat="42.96455" lon="1.09338">
        <ele>440.6</ele>
        <time>2022-10-21T15:57:32.000Z</time>
      </trkpt>
      <trkpt lat="42.96446" lon="1.09329">
        <ele>440.4</ele>
        <time>2022-10-21T15:57:36.000Z</time>
      </trkpt>
      <trkpt lat="42.96438" lon="1.0934">
        <ele>439.7</ele>
        <time>2022-10-21T15:57:39.000Z</time>
      </trkpt>
      <trkpt lat="42.96432" lon="1.09356">
        <ele>440</ele>
        <time>2022-10-21T15:57:42.000Z</time>
      </trkpt>
      <trkpt lat="42.96426" lon="1.09371">
        <ele>439.3</ele>
        <time>2022-10-21T15:57:45.000Z</time>
      </trkpt>
      <trkpt lat="42.96424" lon="1.09385">
        <ele>439.7</ele>
        <time>2022-10-21T15:57:48.000Z</time>
      </trkpt>
      <trkpt lat="42.96424" lon="1.09399">
        <ele>439.5</ele>
        <time>2022-10-21T15:57:51.000Z</time>
      </trkpt>
      <trkpt lat="42.96425" lon="1.09412">
        <ele>439.3</ele>
        <time>2022-10-21T15:57:54.000Z</time>
      </trkpt>
      <trkpt lat="42.96425" lon="1.09426">
        <ele>439.1</ele>
        <time>2022-10-21T15:57:57.000Z</time>
      </trkpt>
      <trkpt lat="42.96424" lon="1.09438">
        <ele>439</ele>
        <time>2022-10-21T15:58:00.000Z</time>
      </trkpt>
      <trkpt lat="42.96422" lon="1.09451">
        <ele>438.8</ele>
        <time>2022-10-21T15:58:03.000Z</time>
      </trkpt>
      <trkpt lat="42.96417" lon="1.09463">
        <ele>438.5</ele>
        <time>2022-10-21T15:58:06.000Z</time>
      </trkpt>
      <trkpt lat="42.9641" lon="1.09475">
        <ele>439</ele>
        <time>2022-10-21T15:58:09.000Z</time>
      </trkpt>
      <trkpt lat="42.96403" lon="1.09484">
        <ele>439</ele>
        <time>2022-10-21T15:58:12.000Z</time>
      </trkpt>
      <trkpt lat="42.96392" lon="1.09481">
        <ele>439.2</ele>
        <time>2022-10-21T15:58:16.000Z</time>
      </trkpt>
      <trkpt lat="42.96387" lon="1.09496">
        <ele>438.5</ele>
        <time>2022-10-21T15:58:20.000Z</time>
      </trkpt>
      <trkpt lat="42.96387" lon="1.09512">
        <ele>438.1</ele>
        <time>2022-10-21T15:58:23.000Z</time>
      </trkpt>
      <trkpt lat="42.96386" lon="1.09529">
        <ele>438.2</ele>
        <time>2022-10-21T15:58:26.000Z</time>
      </trkpt>
      <trkpt lat="42.96381" lon="1.09539">
        <ele>437.9</ele>
        <time>2022-10-21T15:58:28.000Z</time>
      </trkpt>
      <trkpt lat="42.96374" lon="1.09549">
        <ele>437.8</ele>
        <time>2022-10-21T15:58:30.000Z</time>
      </trkpt>
      <trkpt lat="42.96367" lon="1.0956">
        <ele>438</ele>
        <time>2022-10-21T15:58:32.000Z</time>
      </trkpt>
      <trkpt lat="42.9636" lon="1.0957">
        <ele>437.5</ele>
        <time>2022-10-21T15:58:34.000Z</time>
      </trkpt>
      <trkpt lat="42.96353" lon="1.09578">
        <ele>437.2</ele>
        <time>2022-10-21T15:58:36.000Z</time>
      </trkpt>
      <trkpt lat="42.96345" lon="1.09585">
        <ele>437.4</ele>
        <time>2022-10-21T15:58:38.000Z</time>
      </trkpt>
      <trkpt lat="42.96335" lon="1.09597">
        <ele>437.4</ele>
        <time>2022-10-21T15:58:41.000Z</time>
      </trkpt>
      <trkpt lat="42.96332" lon="1.09614">
        <ele>436.9</ele>
        <time>2022-10-21T15:58:44.000Z</time>
      </trkpt>
      <trkpt lat="42.96337" lon="1.0963">
        <ele>436.9</ele>
        <time>2022-10-21T15:58:47.000Z</time>
      </trkpt>
      <trkpt lat="42.96345" lon="1.09644">
        <ele>436.7</ele>
        <time>2022-10-21T15:58:50.000Z</time>
      </trkpt>
      <trkpt lat="42.96352" lon="1.09658">
        <ele>436.4</ele>
        <time>2022-10-21T15:58:53.000Z</time>
      </trkpt>
      <trkpt lat="42.96354" lon="1.09672">
        <ele>436.6</ele>
        <time>2022-10-21T15:58:56.000Z</time>
      </trkpt>
      <trkpt lat="42.96348" lon="1.09685">
        <ele>436.1</ele>
        <time>2022-10-21T15:58:59.000Z</time>
      </trkpt>
      <trkpt lat="42.96339" lon="1.09697">
        <ele>435.5</ele>
        <time>2022-10-21T15:59:02.000Z</time>
      </trkpt>
      <trkpt lat="42.96332" lon="1.09707">
        <ele>435.8</ele>
        <time>2022-10-21T15:59:05.000Z</time>
      </trkpt>
      <trkpt lat="42.96325" lon="1.09718">
        <ele>435.8</ele>
        <time>2022-10-21T15:59:08.000Z</time>
      </trkpt>
      <trkpt lat="42.96318" lon="1.0973">
        <ele>435.6</ele>
        <time>2022-10-21T15:59:11.000Z</time>
      </trkpt>
      <trkpt lat="42.9631" lon="1.09743">
        <ele>436</ele>
        <time>2022-10-21T15:59:14.000Z</time>
      </trkpt>
      <trkpt lat="42.96301" lon="1.09757">
        <ele>436</ele>
        <time>2022-10-21T15:59:17.000Z</time>
      </trkpt>
      <trkpt lat="42.96294" lon="1.09766">
        <ele>435.9</ele>
        <time>2022-10-21T15:59:19.000Z</time>
      </trkpt>
      <trkpt lat="42.96287" lon="1.09775">
        <ele>435.6</ele>
        <time>2022-10-21T15:59:21.000Z</time>
      </trkpt>
      <trkpt lat="42.96281" lon="1.09784">
        <ele>435.8</ele>
        <time>2022-10-21T15:59:23.000Z</time>
      </trkpt>
      <trkpt lat="42.96272" lon="1.09797">
        <ele>435</ele>
        <time>2022-10-21T15:59:26.000Z</time>
      </trkpt>
      <trkpt lat="42.96264" lon="1.09812">
        <ele>435</ele>
        <time>2022-10-21T15:59:29.000Z</time>
      </trkpt>
      <trkpt lat="42.96259" lon="1.09824">
        <ele>434.7</ele>
        <time>2022-10-21T15:59:31.000Z</time>
      </trkpt>
      <trkpt lat="42.96262" lon="1.09841">
        <ele>434.2</ele>
        <time>2022-10-21T15:59:33.000Z</time>
      </trkpt>
      <trkpt lat="42.96269" lon="1.09854">
        <ele>433.7</ele>
        <time>2022-10-21T15:59:35.000Z</time>
      </trkpt>
      <trkpt lat="42.96277" lon="1.09866">
        <ele>433</ele>
        <time>2022-10-21T15:59:37.000Z</time>
      </trkpt>
      <trkpt lat="42.96286" lon="1.09877">
        <ele>432.7</ele>
        <time>2022-10-21T15:59:39.000Z</time>
      </trkpt>
      <trkpt lat="42.96294" lon="1.09888">
        <ele>432.5</ele>
        <time>2022-10-21T15:59:41.000Z</time>
      </trkpt>
      <trkpt lat="42.96301" lon="1.09898">
        <ele>433</ele>
        <time>2022-10-21T15:59:43.000Z</time>
      </trkpt>
      <trkpt lat="42.96306" lon="1.09909">
        <ele>432.7</ele>
        <time>2022-10-21T15:59:45.000Z</time>
      </trkpt>
      <trkpt lat="42.96312" lon="1.09924">
        <ele>433</ele>
        <time>2022-10-21T15:59:48.000Z</time>
      </trkpt>
      <trkpt lat="42.96318" lon="1.09939">
        <ele>432.9</ele>
        <time>2022-10-21T15:59:51.000Z</time>
      </trkpt>
      <trkpt lat="42.96323" lon="1.09955">
        <ele>432.8</ele>
        <time>2022-10-21T15:59:54.000Z</time>
      </trkpt>
      <trkpt lat="42.96325" lon="1.09967">
        <ele>432.8</ele>
        <time>2022-10-21T15:59:56.000Z</time>
      </trkpt>
      <trkpt lat="42.96326" lon="1.09979">
        <ele>432.8</ele>
        <time>2022-10-21T15:59:58.000Z</time>
      </trkpt>
      <trkpt lat="42.96327" lon="1.09992">
        <ele>432.7</ele>
        <time>2022-10-21T16:00:00.000Z</time>
      </trkpt>
      <trkpt lat="42.96329" lon="1.1001">
        <ele>432.4</ele>
        <time>2022-10-21T16:00:03.000Z</time>
      </trkpt>
      <trkpt lat="42.9633" lon="1.10023">
        <ele>432.1</ele>
        <time>2022-10-21T16:00:05.000Z</time>
      </trkpt>
      <trkpt lat="42.9633" lon="1.10036">
        <ele>432.2</ele>
        <time>2022-10-21T16:00:07.000Z</time>
      </trkpt>
      <trkpt lat="42.96331" lon="1.10048">
        <ele>432.4</ele>
        <time>2022-10-21T16:00:09.000Z</time>
      </trkpt>
      <trkpt lat="42.96332" lon="1.10062">
        <ele>432.2</ele>
        <time>2022-10-21T16:00:11.000Z</time>
      </trkpt>
      <trkpt lat="42.96332" lon="1.10076">
        <ele>432.2</ele>
        <time>2022-10-21T16:00:13.000Z</time>
      </trkpt>
      <trkpt lat="42.96333" lon="1.1009">
        <ele>432.3</ele>
        <time>2022-10-21T16:00:15.000Z</time>
      </trkpt>
      <trkpt lat="42.96335" lon="1.10104">
        <ele>432.3</ele>
        <time>2022-10-21T16:00:17.000Z</time>
      </trkpt>
      <trkpt lat="42.96339" lon="1.10116">
        <ele>432</ele>
        <time>2022-10-21T16:00:19.000Z</time>
      </trkpt>
      <trkpt lat="42.96344" lon="1.10128">
        <ele>431.7</ele>
        <time>2022-10-21T16:00:21.000Z</time>
      </trkpt>
      <trkpt lat="42.9635" lon="1.10139">
        <ele>432.1</ele>
        <time>2022-10-21T16:00:23.000Z</time>
      </trkpt>
      <trkpt lat="42.96356" lon="1.10148">
        <ele>432.1</ele>
        <time>2022-10-21T16:00:25.000Z</time>
      </trkpt>
      <trkpt lat="42.96364" lon="1.10156">
        <ele>432</ele>
        <time>2022-10-21T16:00:27.000Z</time>
      </trkpt>
      <trkpt lat="42.96373" lon="1.10163">
        <ele>431.7</ele>
        <time>2022-10-21T16:00:29.000Z</time>
      </trkpt>
      <trkpt lat="42.96381" lon="1.1017">
        <ele>431.8</ele>
        <time>2022-10-21T16:00:31.000Z</time>
      </trkpt>
      <trkpt lat="42.96388" lon="1.10176">
        <ele>431.9</ele>
        <time>2022-10-21T16:00:33.000Z</time>
      </trkpt>
      <trkpt lat="42.96399" lon="1.10187">
        <ele>431.8</ele>
        <time>2022-10-21T16:00:36.000Z</time>
      </trkpt>
      <trkpt lat="42.96405" lon="1.10195">
        <ele>431.9</ele>
        <time>2022-10-21T16:00:38.000Z</time>
      </trkpt>
      <trkpt lat="42.96411" lon="1.10205">
        <ele>431.5</ele>
        <time>2022-10-21T16:00:40.000Z</time>
      </trkpt>
      <trkpt lat="42.96421" lon="1.10217">
        <ele>431.5</ele>
        <time>2022-10-21T16:00:43.000Z</time>
      </trkpt>
      <trkpt lat="42.96431" lon="1.10228">
        <ele>431.8</ele>
        <time>2022-10-21T16:00:46.000Z</time>
      </trkpt>
      <trkpt lat="42.96438" lon="1.10236">
        <ele>431.5</ele>
        <time>2022-10-21T16:00:48.000Z</time>
      </trkpt>
      <trkpt lat="42.96443" lon="1.10247">
        <ele>431.4</ele>
        <time>2022-10-21T16:00:50.000Z</time>
      </trkpt>
      <trkpt lat="42.96447" lon="1.10262">
        <ele>431.1</ele>
        <time>2022-10-21T16:00:53.000Z</time>
      </trkpt>
      <trkpt lat="42.96452" lon="1.10278">
        <ele>431.1</ele>
        <time>2022-10-21T16:00:56.000Z</time>
      </trkpt>
      <trkpt lat="42.96454" lon="1.10295">
        <ele>431.2</ele>
        <time>2022-10-21T16:00:59.000Z</time>
      </trkpt>
      <trkpt lat="42.96449" lon="1.10307">
        <ele>432.1</ele>
        <time>2022-10-21T16:01:02.000Z</time>
      </trkpt>
      <trkpt lat="42.9644" lon="1.10315">
        <ele>432.5</ele>
        <time>2022-10-21T16:01:06.000Z</time>
      </trkpt>
      <trkpt lat="42.96433" lon="1.10323">
        <ele>432.8</ele>
        <time>2022-10-21T16:01:09.000Z</time>
      </trkpt>
      <trkpt lat="42.96429" lon="1.10335">
        <ele>432.7</ele>
        <time>2022-10-21T16:01:12.000Z</time>
      </trkpt>
      <trkpt lat="42.96429" lon="1.10351">
        <ele>433.3</ele>
        <time>2022-10-21T16:01:16.000Z</time>
      </trkpt>
      <trkpt lat="42.96432" lon="1.10366">
        <ele>434.1</ele>
        <time>2022-10-21T16:01:20.000Z</time>
      </trkpt>
      <trkpt lat="42.96435" lon="1.1038">
        <ele>434.7</ele>
        <time>2022-10-21T16:01:24.000Z</time>
      </trkpt>
      <trkpt lat="42.96438" lon="1.10395">
        <ele>434.7</ele>
        <time>2022-10-21T16:01:28.000Z</time>
      </trkpt>
      <trkpt lat="42.96443" lon="1.10409">
        <ele>435.1</ele>
        <time>2022-10-21T16:01:32.000Z</time>
      </trkpt>
      <trkpt lat="42.96448" lon="1.10423">
        <ele>435</ele>
        <time>2022-10-21T16:01:36.000Z</time>
      </trkpt>
      <trkpt lat="42.96454" lon="1.10433">
        <ele>435.2</ele>
        <time>2022-10-21T16:01:39.000Z</time>
      </trkpt>
      <trkpt lat="42.96458" lon="1.10448">
        <ele>436</ele>
        <time>2022-10-21T16:01:43.000Z</time>
      </trkpt>
      <trkpt lat="42.96464" lon="1.10462">
        <ele>436.3</ele>
        <time>2022-10-21T16:01:47.000Z</time>
      </trkpt>
      <trkpt lat="42.9647" lon="1.10475">
        <ele>437.1</ele>
        <time>2022-10-21T16:01:51.000Z</time>
      </trkpt>
      <trkpt lat="42.96474" lon="1.10486">
        <ele>437.3</ele>
        <time>2022-10-21T16:01:54.000Z</time>
      </trkpt>
      <trkpt lat="42.96481" lon="1.10502">
        <ele>436.9</ele>
        <time>2022-10-21T16:01:57.000Z</time>
      </trkpt>
      <trkpt lat="42.96486" lon="1.10514">
        <ele>436.8</ele>
        <time>2022-10-21T16:01:59.000Z</time>
      </trkpt>
      <trkpt lat="42.96491" lon="1.10528">
        <ele>436.2</ele>
        <time>2022-10-21T16:02:01.000Z</time>
      </trkpt>
      <trkpt lat="42.96495" lon="1.10545">
        <ele>434.5</ele>
        <time>2022-10-21T16:02:03.000Z</time>
      </trkpt>
      <trkpt lat="42.96498" lon="1.10563">
        <ele>434.1</ele>
        <time>2022-10-21T16:02:05.000Z</time>
      </trkpt>
      <trkpt lat="42.96502" lon="1.10582">
        <ele>434.1</ele>
        <time>2022-10-21T16:02:07.000Z</time>
      </trkpt>
      <trkpt lat="42.96506" lon="1.10599">
        <ele>433.6</ele>
        <time>2022-10-21T16:02:09.000Z</time>
      </trkpt>
      <trkpt lat="42.96511" lon="1.10614">
        <ele>434</ele>
        <time>2022-10-21T16:02:11.000Z</time>
      </trkpt>
      <trkpt lat="42.96515" lon="1.10628">
        <ele>433.3</ele>
        <time>2022-10-21T16:02:13.000Z</time>
      </trkpt>
      <trkpt lat="42.96521" lon="1.1064">
        <ele>433.3</ele>
        <time>2022-10-21T16:02:15.000Z</time>
      </trkpt>
      <trkpt lat="42.96525" lon="1.10652">
        <ele>433.2</ele>
        <time>2022-10-21T16:02:17.000Z</time>
      </trkpt>
      <trkpt lat="42.9653" lon="1.10664">
        <ele>433.1</ele>
        <time>2022-10-21T16:02:19.000Z</time>
      </trkpt>
      <trkpt lat="42.96536" lon="1.10679">
        <ele>432.8</ele>
        <time>2022-10-21T16:02:22.000Z</time>
      </trkpt>
      <trkpt lat="42.9654" lon="1.10695">
        <ele>432.8</ele>
        <time>2022-10-21T16:02:25.000Z</time>
      </trkpt>
      <trkpt lat="42.96543" lon="1.10711">
        <ele>433</ele>
        <time>2022-10-21T16:02:28.000Z</time>
      </trkpt>
      <trkpt lat="42.96548" lon="1.10727">
        <ele>433.8</ele>
        <time>2022-10-21T16:02:31.000Z</time>
      </trkpt>
      <trkpt lat="42.96555" lon="1.10741">
        <ele>434.2</ele>
        <time>2022-10-21T16:02:34.000Z</time>
      </trkpt>
      <trkpt lat="42.96561" lon="1.10756">
        <ele>434.9</ele>
        <time>2022-10-21T16:02:37.000Z</time>
      </trkpt>
      <trkpt lat="42.96562" lon="1.10769">
        <ele>435.8</ele>
        <time>2022-10-21T16:02:40.000Z</time>
      </trkpt>
      <trkpt lat="42.96555" lon="1.1078">
        <ele>436.6</ele>
        <time>2022-10-21T16:02:43.000Z</time>
      </trkpt>
      <trkpt lat="42.9655" lon="1.10791">
        <ele>437.2</ele>
        <time>2022-10-21T16:02:46.000Z</time>
      </trkpt>
      <trkpt lat="42.96546" lon="1.10806">
        <ele>438.4</ele>
        <time>2022-10-21T16:02:50.000Z</time>
      </trkpt>
      <trkpt lat="42.96547" lon="1.10822">
        <ele>439.5</ele>
        <time>2022-10-21T16:02:54.000Z</time>
      </trkpt>
      <trkpt lat="42.96555" lon="1.10833">
        <ele>440.4</ele>
        <time>2022-10-21T16:02:58.000Z</time>
      </trkpt>
      <trkpt lat="42.96562" lon="1.10842">
        <ele>440.2</ele>
        <time>2022-10-21T16:03:01.000Z</time>
      </trkpt>
      <trkpt lat="42.9657" lon="1.10851">
        <ele>440.8</ele>
        <time>2022-10-21T16:03:04.000Z</time>
      </trkpt>
      <trkpt lat="42.96577" lon="1.1086">
        <ele>441</ele>
        <time>2022-10-21T16:03:07.000Z</time>
      </trkpt>
      <trkpt lat="42.96585" lon="1.1087">
        <ele>441.6</ele>
        <time>2022-10-21T16:03:10.000Z</time>
      </trkpt>
      <trkpt lat="42.96594" lon="1.10879">
        <ele>441.7</ele>
        <time>2022-10-21T16:03:13.000Z</time>
      </trkpt>
      <trkpt lat="42.96602" lon="1.10886">
        <ele>442.3</ele>
        <time>2022-10-21T16:03:16.000Z</time>
      </trkpt>
      <trkpt lat="42.96611" lon="1.10895">
        <ele>442.6</ele>
        <time>2022-10-21T16:03:20.000Z</time>
      </trkpt>
      <trkpt lat="42.96621" lon="1.10903">
        <ele>442.5</ele>
        <time>2022-10-21T16:03:23.000Z</time>
      </trkpt>
      <trkpt lat="42.96631" lon="1.10914">
        <ele>442.8</ele>
        <time>2022-10-21T16:03:26.000Z</time>
      </trkpt>
      <trkpt lat="42.9664" lon="1.10925">
        <ele>443</ele>
        <time>2022-10-21T16:03:29.000Z</time>
      </trkpt>
      <trkpt lat="42.96648" lon="1.10936">
        <ele>442.9</ele>
        <time>2022-10-21T16:03:32.000Z</time>
      </trkpt>
      <trkpt lat="42.96655" lon="1.10948">
        <ele>443.8</ele>
        <time>2022-10-21T16:03:35.000Z</time>
      </trkpt>
      <trkpt lat="42.96662" lon="1.10959">
        <ele>444.1</ele>
        <time>2022-10-21T16:03:38.000Z</time>
      </trkpt>
      <trkpt lat="42.96669" lon="1.10972">
        <ele>443.5</ele>
        <time>2022-10-21T16:03:41.000Z</time>
      </trkpt>
      <trkpt lat="42.96677" lon="1.10984">
        <ele>444</ele>
        <time>2022-10-21T16:03:44.000Z</time>
      </trkpt>
      <trkpt lat="42.96686" lon="1.10995">
        <ele>443.8</ele>
        <time>2022-10-21T16:03:47.000Z</time>
      </trkpt>
      <trkpt lat="42.96694" lon="1.11006">
        <ele>443.9</ele>
        <time>2022-10-21T16:03:50.000Z</time>
      </trkpt>
      <trkpt lat="42.96702" lon="1.11017">
        <ele>444.3</ele>
        <time>2022-10-21T16:03:53.000Z</time>
      </trkpt>
      <trkpt lat="42.96708" lon="1.1103">
        <ele>444.6</ele>
        <time>2022-10-21T16:03:56.000Z</time>
      </trkpt>
      <trkpt lat="42.96713" lon="1.11042">
        <ele>444.7</ele>
        <time>2022-10-21T16:03:59.000Z</time>
      </trkpt>
      <trkpt lat="42.96719" lon="1.11055">
        <ele>445.6</ele>
        <time>2022-10-21T16:04:02.000Z</time>
      </trkpt>
      <trkpt lat="42.96726" lon="1.11066">
        <ele>445.8</ele>
        <time>2022-10-21T16:04:05.000Z</time>
      </trkpt>
      <trkpt lat="42.96734" lon="1.11079">
        <ele>445.8</ele>
        <time>2022-10-21T16:04:09.000Z</time>
      </trkpt>
      <trkpt lat="42.96741" lon="1.11089">
        <ele>446.2</ele>
        <time>2022-10-21T16:04:12.000Z</time>
      </trkpt>
      <trkpt lat="42.9675" lon="1.11101">
        <ele>446</ele>
        <time>2022-10-21T16:04:15.000Z</time>
      </trkpt>
      <trkpt lat="42.96757" lon="1.11111">
        <ele>445.7</ele>
        <time>2022-10-21T16:04:17.000Z</time>
      </trkpt>
      <trkpt lat="42.96763" lon="1.11121">
        <ele>446</ele>
        <time>2022-10-21T16:04:19.000Z</time>
      </trkpt>
      <trkpt lat="42.96771" lon="1.11134">
        <ele>445.8</ele>
        <time>2022-10-21T16:04:21.000Z</time>
      </trkpt>
      <trkpt lat="42.96778" lon="1.11147">
        <ele>444.8</ele>
        <time>2022-10-21T16:04:23.000Z</time>
      </trkpt>
      <trkpt lat="42.96785" lon="1.1116">
        <ele>444.6</ele>
        <time>2022-10-21T16:04:25.000Z</time>
      </trkpt>
      <trkpt lat="42.9679" lon="1.11173">
        <ele>444.6</ele>
        <time>2022-10-21T16:04:27.000Z</time>
      </trkpt>
      <trkpt lat="42.96795" lon="1.11185">
        <ele>444.3</ele>
        <time>2022-10-21T16:04:29.000Z</time>
      </trkpt>
      <trkpt lat="42.96801" lon="1.11197">
        <ele>445.5</ele>
        <time>2022-10-21T16:04:31.000Z</time>
      </trkpt>
      <trkpt lat="42.96808" lon="1.11207">
        <ele>444.7</ele>
        <time>2022-10-21T16:04:33.000Z</time>
      </trkpt>
      <trkpt lat="42.96814" lon="1.11218">
        <ele>444.3</ele>
        <time>2022-10-21T16:04:35.000Z</time>
      </trkpt>
      <trkpt lat="42.96819" lon="1.11229">
        <ele>444.3</ele>
        <time>2022-10-21T16:04:37.000Z</time>
      </trkpt>
      <trkpt lat="42.96826" lon="1.11244">
        <ele>444.3</ele>
        <time>2022-10-21T16:04:40.000Z</time>
      </trkpt>
      <trkpt lat="42.96834" lon="1.11257">
        <ele>444.3</ele>
        <time>2022-10-21T16:04:43.000Z</time>
      </trkpt>
      <trkpt lat="42.96842" lon="1.11271">
        <ele>444.6</ele>
        <time>2022-10-21T16:04:46.000Z</time>
      </trkpt>
      <trkpt lat="42.96849" lon="1.11285">
        <ele>444.5</ele>
        <time>2022-10-21T16:04:49.000Z</time>
      </trkpt>
      <trkpt lat="42.96856" lon="1.11299">
        <ele>444.4</ele>
        <time>2022-10-21T16:04:52.000Z</time>
      </trkpt>
      <trkpt lat="42.96862" lon="1.11312">
        <ele>445.1</ele>
        <time>2022-10-21T16:04:55.000Z</time>
      </trkpt>
      <trkpt lat="42.96869" lon="1.11326">
        <ele>444.9</ele>
        <time>2022-10-21T16:04:58.000Z</time>
      </trkpt>
      <trkpt lat="42.96875" lon="1.11342">
        <ele>445.1</ele>
        <time>2022-10-21T16:05:01.000Z</time>
      </trkpt>
      <trkpt lat="42.96881" lon="1.11358">
        <ele>445.1</ele>
        <time>2022-10-21T16:05:04.000Z</time>
      </trkpt>
      <trkpt lat="42.96885" lon="1.1137">
        <ele>444.6</ele>
        <time>2022-10-21T16:05:06.000Z</time>
      </trkpt>
      <trkpt lat="42.96891" lon="1.11384">
        <ele>444.8</ele>
        <time>2022-10-21T16:05:09.000Z</time>
      </trkpt>
      <trkpt lat="42.96897" lon="1.11399">
        <ele>445.1</ele>
        <time>2022-10-21T16:05:12.000Z</time>
      </trkpt>
      <trkpt lat="42.96903" lon="1.11413">
        <ele>444.8</ele>
        <time>2022-10-21T16:05:15.000Z</time>
      </trkpt>
      <trkpt lat="42.96907" lon="1.11427">
        <ele>445.1</ele>
        <time>2022-10-21T16:05:18.000Z</time>
      </trkpt>
      <trkpt lat="42.9691" lon="1.11442">
        <ele>445.2</ele>
        <time>2022-10-21T16:05:21.000Z</time>
      </trkpt>
      <trkpt lat="42.96915" lon="1.11456">
        <ele>445.1</ele>
        <time>2022-10-21T16:05:24.000Z</time>
      </trkpt>
      <trkpt lat="42.96918" lon="1.1147">
        <ele>445.2</ele>
        <time>2022-10-21T16:05:27.000Z</time>
      </trkpt>
      <trkpt lat="42.96922" lon="1.11482">
        <ele>445</ele>
        <time>2022-10-21T16:05:30.000Z</time>
      </trkpt>
      <trkpt lat="42.96925" lon="1.11496">
        <ele>445.4</ele>
        <time>2022-10-21T16:05:33.000Z</time>
      </trkpt>
      <trkpt lat="42.96928" lon="1.1151">
        <ele>445.4</ele>
        <time>2022-10-21T16:05:36.000Z</time>
      </trkpt>
      <trkpt lat="42.96928" lon="1.11524">
        <ele>445.4</ele>
        <time>2022-10-21T16:05:39.000Z</time>
      </trkpt>
      <trkpt lat="42.96931" lon="1.11539">
        <ele>445</ele>
        <time>2022-10-21T16:05:42.000Z</time>
      </trkpt>
      <trkpt lat="42.96938" lon="1.11554">
        <ele>445.2</ele>
        <time>2022-10-21T16:05:45.000Z</time>
      </trkpt>
      <trkpt lat="42.96941" lon="1.11568">
        <ele>445.5</ele>
        <time>2022-10-21T16:05:48.000Z</time>
      </trkpt>
      <trkpt lat="42.96945" lon="1.11582">
        <ele>445.6</ele>
        <time>2022-10-21T16:05:51.000Z</time>
      </trkpt>
      <trkpt lat="42.96948" lon="1.11597">
        <ele>446.2</ele>
        <time>2022-10-21T16:05:54.000Z</time>
      </trkpt>
      <trkpt lat="42.9695" lon="1.11613">
        <ele>445.9</ele>
        <time>2022-10-21T16:05:57.000Z</time>
      </trkpt>
      <trkpt lat="42.96951" lon="1.11629">
        <ele>445.6</ele>
        <time>2022-10-21T16:06:00.000Z</time>
      </trkpt>
      <trkpt lat="42.96953" lon="1.11646">
        <ele>445</ele>
        <time>2022-10-21T16:06:03.000Z</time>
      </trkpt>
      <trkpt lat="42.96957" lon="1.11663">
        <ele>445.3</ele>
        <time>2022-10-21T16:06:06.000Z</time>
      </trkpt>
      <trkpt lat="42.96958" lon="1.11678">
        <ele>445.7</ele>
        <time>2022-10-21T16:06:09.000Z</time>
      </trkpt>
      <trkpt lat="42.96961" lon="1.11697">
        <ele>445.8</ele>
        <time>2022-10-21T16:06:12.000Z</time>
      </trkpt>
      <trkpt lat="42.96964" lon="1.11711">
        <ele>445.7</ele>
        <time>2022-10-21T16:06:14.000Z</time>
      </trkpt>
      <trkpt lat="42.96966" lon="1.11724">
        <ele>445.4</ele>
        <time>2022-10-21T16:06:16.000Z</time>
      </trkpt>
      <trkpt lat="42.96968" lon="1.11737">
        <ele>445.6</ele>
        <time>2022-10-21T16:06:18.000Z</time>
      </trkpt>
      <trkpt lat="42.9697" lon="1.11749">
        <ele>446</ele>
        <time>2022-10-21T16:06:20.000Z</time>
      </trkpt>
      <trkpt lat="42.96974" lon="1.11761">
        <ele>445.8</ele>
        <time>2022-10-21T16:06:22.000Z</time>
      </trkpt>
      <trkpt lat="42.96978" lon="1.11772">
        <ele>446</ele>
        <time>2022-10-21T16:06:24.000Z</time>
      </trkpt>
      <trkpt lat="42.96982" lon="1.11789">
        <ele>446.1</ele>
        <time>2022-10-21T16:06:27.000Z</time>
      </trkpt>
      <trkpt lat="42.96986" lon="1.11805">
        <ele>446.2</ele>
        <time>2022-10-21T16:06:30.000Z</time>
      </trkpt>
      <trkpt lat="42.96991" lon="1.1182">
        <ele>446.1</ele>
        <time>2022-10-21T16:06:33.000Z</time>
      </trkpt>
      <trkpt lat="42.96996" lon="1.11835">
        <ele>446.7</ele>
        <time>2022-10-21T16:06:36.000Z</time>
      </trkpt>
      <trkpt lat="42.96999" lon="1.1185">
        <ele>446.3</ele>
        <time>2022-10-21T16:06:39.000Z</time>
      </trkpt>
      <trkpt lat="42.97002" lon="1.11867">
        <ele>446</ele>
        <time>2022-10-21T16:06:42.000Z</time>
      </trkpt>
      <trkpt lat="42.97004" lon="1.11881">
        <ele>445.5</ele>
        <time>2022-10-21T16:06:45.000Z</time>
      </trkpt>
      <trkpt lat="42.97008" lon="1.11896">
        <ele>445.3</ele>
        <time>2022-10-21T16:06:48.000Z</time>
      </trkpt>
      <trkpt lat="42.97012" lon="1.11909">
        <ele>445.5</ele>
        <time>2022-10-21T16:06:51.000Z</time>
      </trkpt>
      <trkpt lat="42.97015" lon="1.11924">
        <ele>445.5</ele>
        <time>2022-10-21T16:06:54.000Z</time>
      </trkpt>
      <trkpt lat="42.97019" lon="1.1194">
        <ele>445.5</ele>
        <time>2022-10-21T16:06:57.000Z</time>
      </trkpt>
      <trkpt lat="42.97024" lon="1.11955">
        <ele>445.9</ele>
        <time>2022-10-21T16:07:00.000Z</time>
      </trkpt>
      <trkpt lat="42.97029" lon="1.1197">
        <ele>445.7</ele>
        <time>2022-10-21T16:07:03.000Z</time>
      </trkpt>
      <trkpt lat="42.97033" lon="1.11985">
        <ele>445.9</ele>
        <time>2022-10-21T16:07:06.000Z</time>
      </trkpt>
      <trkpt lat="42.97037" lon="1.11999">
        <ele>445.9</ele>
        <time>2022-10-21T16:07:09.000Z</time>
      </trkpt>
      <trkpt lat="42.97042" lon="1.12013">
        <ele>445.9</ele>
        <time>2022-10-21T16:07:12.000Z</time>
      </trkpt>
      <trkpt lat="42.97045" lon="1.12026">
        <ele>445.7</ele>
        <time>2022-10-21T16:07:15.000Z</time>
      </trkpt>
      <trkpt lat="42.97046" lon="1.12041">
        <ele>445.4</ele>
        <time>2022-10-21T16:07:18.000Z</time>
      </trkpt>
      <trkpt lat="42.9705" lon="1.12054">
        <ele>445.7</ele>
        <time>2022-10-21T16:07:21.000Z</time>
      </trkpt>
      <trkpt lat="42.97054" lon="1.12066">
        <ele>446.1</ele>
        <time>2022-10-21T16:07:25.000Z</time>
      </trkpt>
      <trkpt lat="42.9706" lon="1.12077">
        <ele>446.2</ele>
        <time>2022-10-21T16:07:28.000Z</time>
      </trkpt>
      <trkpt lat="42.97067" lon="1.12089">
        <ele>446.6</ele>
        <time>2022-10-21T16:07:31.000Z</time>
      </trkpt>
      <trkpt lat="42.97074" lon="1.121">
        <ele>446.4</ele>
        <time>2022-10-21T16:07:34.000Z</time>
      </trkpt>
      <trkpt lat="42.97083" lon="1.12113">
        <ele>446</ele>
        <time>2022-10-21T16:07:37.000Z</time>
      </trkpt>
      <trkpt lat="42.97088" lon="1.12126">
        <ele>446</ele>
        <time>2022-10-21T16:07:40.000Z</time>
      </trkpt>
      <trkpt lat="42.97096" lon="1.12139">
        <ele>446.4</ele>
        <time>2022-10-21T16:07:43.000Z</time>
      </trkpt>
      <trkpt lat="42.97105" lon="1.12153">
        <ele>446.5</ele>
        <time>2022-10-21T16:07:46.000Z</time>
      </trkpt>
      <trkpt lat="42.97113" lon="1.12165">
        <ele>446.4</ele>
        <time>2022-10-21T16:07:49.000Z</time>
      </trkpt>
      <trkpt lat="42.9712" lon="1.12175">
        <ele>446.4</ele>
        <time>2022-10-21T16:07:52.000Z</time>
      </trkpt>
      <trkpt lat="42.97127" lon="1.12185">
        <ele>446</ele>
        <time>2022-10-21T16:07:55.000Z</time>
      </trkpt>
      <trkpt lat="42.97134" lon="1.12196">
        <ele>445.9</ele>
        <time>2022-10-21T16:07:58.000Z</time>
      </trkpt>
      <trkpt lat="42.97143" lon="1.12207">
        <ele>445.8</ele>
        <time>2022-10-21T16:08:01.000Z</time>
      </trkpt>
      <trkpt lat="42.97151" lon="1.12216">
        <ele>445.7</ele>
        <time>2022-10-21T16:08:04.000Z</time>
      </trkpt>
      <trkpt lat="42.97158" lon="1.12225">
        <ele>446.2</ele>
        <time>2022-10-21T16:08:07.000Z</time>
      </trkpt>
      <trkpt lat="42.97167" lon="1.12233">
        <ele>446.7</ele>
        <time>2022-10-21T16:08:10.000Z</time>
      </trkpt>
      <trkpt lat="42.97176" lon="1.1224">
        <ele>446.8</ele>
        <time>2022-10-21T16:08:13.000Z</time>
      </trkpt>
      <trkpt lat="42.97185" lon="1.12247">
        <ele>446.5</ele>
        <time>2022-10-21T16:08:16.000Z</time>
      </trkpt>
      <trkpt lat="42.97194" lon="1.12255">
        <ele>446.4</ele>
        <time>2022-10-21T16:08:19.000Z</time>
      </trkpt>
      <trkpt lat="42.97205" lon="1.12262">
        <ele>446.6</ele>
        <time>2022-10-21T16:08:22.000Z</time>
      </trkpt>
      <trkpt lat="42.97215" lon="1.12271">
        <ele>446.7</ele>
        <time>2022-10-21T16:08:25.000Z</time>
      </trkpt>
      <trkpt lat="42.97226" lon="1.12279">
        <ele>446</ele>
        <time>2022-10-21T16:08:28.000Z</time>
      </trkpt>
      <trkpt lat="42.97238" lon="1.12285">
        <ele>446.6</ele>
        <time>2022-10-21T16:08:31.000Z</time>
      </trkpt>
      <trkpt lat="42.97249" lon="1.12292">
        <ele>446.4</ele>
        <time>2022-10-21T16:08:34.000Z</time>
      </trkpt>
      <trkpt lat="42.9726" lon="1.12298">
        <ele>446.7</ele>
        <time>2022-10-21T16:08:37.000Z</time>
      </trkpt>
      <trkpt lat="42.9727" lon="1.12306">
        <ele>446.3</ele>
        <time>2022-10-21T16:08:40.000Z</time>
      </trkpt>
      <trkpt lat="42.9728" lon="1.12314">
        <ele>446.3</ele>
        <time>2022-10-21T16:08:43.000Z</time>
      </trkpt>
      <trkpt lat="42.9729" lon="1.12322">
        <ele>446.9</ele>
        <time>2022-10-21T16:08:46.000Z</time>
      </trkpt>
      <trkpt lat="42.97299" lon="1.1233">
        <ele>446.9</ele>
        <time>2022-10-21T16:08:49.000Z</time>
      </trkpt>
      <trkpt lat="42.97309" lon="1.1234">
        <ele>446.2</ele>
        <time>2022-10-21T16:08:52.000Z</time>
      </trkpt>
      <trkpt lat="42.97319" lon="1.1235">
        <ele>446.8</ele>
        <time>2022-10-21T16:08:55.000Z</time>
      </trkpt>
      <trkpt lat="42.97329" lon="1.12359">
        <ele>446.5</ele>
        <time>2022-10-21T16:08:58.000Z</time>
      </trkpt>
      <trkpt lat="42.97338" lon="1.12368">
        <ele>446.5</ele>
        <time>2022-10-21T16:09:01.000Z</time>
      </trkpt>
      <trkpt lat="42.97348" lon="1.12378">
        <ele>446.2</ele>
        <time>2022-10-21T16:09:04.000Z</time>
      </trkpt>
      <trkpt lat="42.97357" lon="1.12388">
        <ele>446.4</ele>
        <time>2022-10-21T16:09:07.000Z</time>
      </trkpt>
      <trkpt lat="42.97366" lon="1.12397">
        <ele>446.6</ele>
        <time>2022-10-21T16:09:10.000Z</time>
      </trkpt>
      <trkpt lat="42.97374" lon="1.12406">
        <ele>446.9</ele>
        <time>2022-10-21T16:09:13.000Z</time>
      </trkpt>
      <trkpt lat="42.9738" lon="1.12416">
        <ele>447.4</ele>
        <time>2022-10-21T16:09:16.000Z</time>
      </trkpt>
      <trkpt lat="42.97387" lon="1.12426">
        <ele>447.4</ele>
        <time>2022-10-21T16:09:19.000Z</time>
      </trkpt>
      <trkpt lat="42.97395" lon="1.12434">
        <ele>446.9</ele>
        <time>2022-10-21T16:09:22.000Z</time>
      </trkpt>
      <trkpt lat="42.97402" lon="1.12441">
        <ele>447</ele>
        <time>2022-10-21T16:09:24.000Z</time>
      </trkpt>
      <trkpt lat="42.9741" lon="1.12451">
        <ele>447</ele>
        <time>2022-10-21T16:09:27.000Z</time>
      </trkpt>
      <trkpt lat="42.97418" lon="1.12461">
        <ele>447.2</ele>
        <time>2022-10-21T16:09:30.000Z</time>
      </trkpt>
      <trkpt lat="42.97425" lon="1.12471">
        <ele>447.2</ele>
        <time>2022-10-21T16:09:33.000Z</time>
      </trkpt>
      <trkpt lat="42.97432" lon="1.12482">
        <ele>447.6</ele>
        <time>2022-10-21T16:09:36.000Z</time>
      </trkpt>
      <trkpt lat="42.9744" lon="1.12492">
        <ele>447.3</ele>
        <time>2022-10-21T16:09:39.000Z</time>
      </trkpt>
      <trkpt lat="42.9745" lon="1.12501">
        <ele>446.7</ele>
        <time>2022-10-21T16:09:42.000Z</time>
      </trkpt>
      <trkpt lat="42.97458" lon="1.12512">
        <ele>447.3</ele>
        <time>2022-10-21T16:09:45.000Z</time>
      </trkpt>
      <trkpt lat="42.97465" lon="1.12523">
        <ele>447.9</ele>
        <time>2022-10-21T16:09:48.000Z</time>
      </trkpt>
      <trkpt lat="42.97471" lon="1.12534">
        <ele>447.6</ele>
        <time>2022-10-21T16:09:51.000Z</time>
      </trkpt>
      <trkpt lat="42.97477" lon="1.12544">
        <ele>447.9</ele>
        <time>2022-10-21T16:09:54.000Z</time>
      </trkpt>
      <trkpt lat="42.97482" lon="1.12554">
        <ele>448.3</ele>
        <time>2022-10-21T16:09:57.000Z</time>
      </trkpt>
      <trkpt lat="42.97487" lon="1.12569">
        <ele>448.2</ele>
        <time>2022-10-21T16:10:01.000Z</time>
      </trkpt>
      <trkpt lat="42.97491" lon="1.12581">
        <ele>447.9</ele>
        <time>2022-10-21T16:10:04.000Z</time>
      </trkpt>
      <trkpt lat="42.97499" lon="1.12592">
        <ele>448.5</ele>
        <time>2022-10-21T16:10:07.000Z</time>
      </trkpt>
      <trkpt lat="42.97508" lon="1.12601">
        <ele>448.6</ele>
        <time>2022-10-21T16:10:10.000Z</time>
      </trkpt>
      <trkpt lat="42.97515" lon="1.12611">
        <ele>448.1</ele>
        <time>2022-10-21T16:10:13.000Z</time>
      </trkpt>
      <trkpt lat="42.97521" lon="1.12621">
        <ele>448.4</ele>
        <time>2022-10-21T16:10:16.000Z</time>
      </trkpt>
      <trkpt lat="42.97529" lon="1.12633">
        <ele>448</ele>
        <time>2022-10-21T16:10:19.000Z</time>
      </trkpt>
      <trkpt lat="42.97536" lon="1.12644">
        <ele>447.4</ele>
        <time>2022-10-21T16:10:22.000Z</time>
      </trkpt>
      <trkpt lat="42.97545" lon="1.12656">
        <ele>447.8</ele>
        <time>2022-10-21T16:10:25.000Z</time>
      </trkpt>
      <trkpt lat="42.97553" lon="1.12664">
        <ele>449.6</ele>
        <time>2022-10-21T16:10:29.000Z</time>
      </trkpt>
      <trkpt lat="42.97561" lon="1.12673">
        <ele>448.2</ele>
        <time>2022-10-21T16:10:38.000Z</time>
      </trkpt>
      <trkpt lat="42.97568" lon="1.12681">
        <ele>447.5</ele>
        <time>2022-10-21T16:10:42.000Z</time>
      </trkpt>
      <trkpt lat="42.97578" lon="1.12691">
        <ele>446.7</ele>
        <time>2022-10-21T16:10:46.000Z</time>
      </trkpt>
      <trkpt lat="42.97588" lon="1.12696">
        <ele>444.7</ele>
        <time>2022-10-21T16:10:49.000Z</time>
      </trkpt>
      <trkpt lat="42.97596" lon="1.12699">
        <ele>443.9</ele>
        <time>2022-10-21T16:10:51.000Z</time>
      </trkpt>
      <trkpt lat="42.97605" lon="1.12702">
        <ele>441.9</ele>
        <time>2022-10-21T16:10:53.000Z</time>
      </trkpt>
      <trkpt lat="42.97616" lon="1.12704">
        <ele>440.3</ele>
        <time>2022-10-21T16:10:55.000Z</time>
      </trkpt>
      <trkpt lat="42.97627" lon="1.12706">
        <ele>438</ele>
        <time>2022-10-21T16:10:57.000Z</time>
      </trkpt>
      <trkpt lat="42.97641" lon="1.12711">
        <ele>436.4</ele>
        <time>2022-10-21T16:10:59.000Z</time>
      </trkpt>
      <trkpt lat="42.97656" lon="1.12718">
        <ele>434.8</ele>
        <time>2022-10-21T16:11:01.000Z</time>
      </trkpt>
      <trkpt lat="42.97666" lon="1.12723">
        <ele>433.7</ele>
        <time>2022-10-21T16:11:03.000Z</time>
      </trkpt>
      <trkpt lat="42.97677" lon="1.12731">
        <ele>432.5</ele>
        <time>2022-10-21T16:11:05.000Z</time>
      </trkpt>
      <trkpt lat="42.97688" lon="1.12744">
        <ele>431.5</ele>
        <time>2022-10-21T16:11:07.000Z</time>
      </trkpt>
      <trkpt lat="42.97696" lon="1.12758">
        <ele>431.4</ele>
        <time>2022-10-21T16:11:09.000Z</time>
      </trkpt>
      <trkpt lat="42.97701" lon="1.12768">
        <ele>431.7</ele>
        <time>2022-10-21T16:11:11.000Z</time>
      </trkpt>
      <trkpt lat="42.97711" lon="1.12779">
        <ele>430.1</ele>
        <time>2022-10-21T16:11:14.000Z</time>
      </trkpt>
      <trkpt lat="42.97719" lon="1.12787">
        <ele>429.5</ele>
        <time>2022-10-21T16:11:16.000Z</time>
      </trkpt>
      <trkpt lat="42.97726" lon="1.12796">
        <ele>429.7</ele>
        <time>2022-10-21T16:11:18.000Z</time>
      </trkpt>
      <trkpt lat="42.97736" lon="1.12804">
        <ele>429.1</ele>
        <time>2022-10-21T16:11:20.000Z</time>
      </trkpt>
      <trkpt lat="42.97749" lon="1.12814">
        <ele>426.4</ele>
        <time>2022-10-21T16:11:22.000Z</time>
      </trkpt>
      <trkpt lat="42.97763" lon="1.12828">
        <ele>424.5</ele>
        <time>2022-10-21T16:11:24.000Z</time>
      </trkpt>
      <trkpt lat="42.9777" lon="1.12837">
        <ele>422.8</ele>
        <time>2022-10-21T16:11:25.000Z</time>
      </trkpt>
      <trkpt lat="42.97777" lon="1.12848">
        <ele>421.5</ele>
        <time>2022-10-21T16:11:26.000Z</time>
      </trkpt>
      <trkpt lat="42.97783" lon="1.12858">
        <ele>420.8</ele>
        <time>2022-10-21T16:11:27.000Z</time>
      </trkpt>
      <trkpt lat="42.9779" lon="1.12869">
        <ele>420.5</ele>
        <time>2022-10-21T16:11:28.000Z</time>
      </trkpt>
      <trkpt lat="42.97794" lon="1.12879">
        <ele>420.9</ele>
        <time>2022-10-21T16:11:29.000Z</time>
      </trkpt>
      <trkpt lat="42.97802" lon="1.12901">
        <ele>420.3</ele>
        <time>2022-10-21T16:11:31.000Z</time>
      </trkpt>
      <trkpt lat="42.97811" lon="1.12919">
        <ele>419.8</ele>
        <time>2022-10-21T16:11:33.000Z</time>
      </trkpt>
      <trkpt lat="42.97819" lon="1.12935">
        <ele>419.6</ele>
        <time>2022-10-21T16:11:35.000Z</time>
      </trkpt>
      <trkpt lat="42.97827" lon="1.12947">
        <ele>419.8</ele>
        <time>2022-10-21T16:11:37.000Z</time>
      </trkpt>
      <trkpt lat="42.97835" lon="1.12959">
        <ele>420.1</ele>
        <time>2022-10-21T16:11:39.000Z</time>
      </trkpt>
      <trkpt lat="42.97843" lon="1.12967">
        <ele>419.5</ele>
        <time>2022-10-21T16:11:41.000Z</time>
      </trkpt>
      <trkpt lat="42.9785" lon="1.12975">
        <ele>419.8</ele>
        <time>2022-10-21T16:11:43.000Z</time>
      </trkpt>
      <trkpt lat="42.97859" lon="1.12985">
        <ele>420.5</ele>
        <time>2022-10-21T16:11:46.000Z</time>
      </trkpt>
      <trkpt lat="42.97865" lon="1.12996">
        <ele>420.6</ele>
        <time>2022-10-21T16:11:49.000Z</time>
      </trkpt>
      <trkpt lat="42.97872" lon="1.13008">
        <ele>420.8</ele>
        <time>2022-10-21T16:11:52.000Z</time>
      </trkpt>
      <trkpt lat="42.9788" lon="1.13019">
        <ele>421.1</ele>
        <time>2022-10-21T16:11:55.000Z</time>
      </trkpt>
      <trkpt lat="42.97886" lon="1.13031">
        <ele>421.3</ele>
        <time>2022-10-21T16:11:58.000Z</time>
      </trkpt>
      <trkpt lat="42.97892" lon="1.13044">
        <ele>421.3</ele>
        <time>2022-10-21T16:12:01.000Z</time>
      </trkpt>
      <trkpt lat="42.97896" lon="1.13055">
        <ele>421.5</ele>
        <time>2022-10-21T16:12:04.000Z</time>
      </trkpt>
      <trkpt lat="42.97902" lon="1.13069">
        <ele>422.2</ele>
        <time>2022-10-21T16:12:08.000Z</time>
      </trkpt>
      <trkpt lat="42.97908" lon="1.13081">
        <ele>422.1</ele>
        <time>2022-10-21T16:12:11.000Z</time>
      </trkpt>
      <trkpt lat="42.97916" lon="1.13093">
        <ele>421.8</ele>
        <time>2022-10-21T16:12:14.000Z</time>
      </trkpt>
      <trkpt lat="42.97923" lon="1.13104">
        <ele>421.3</ele>
        <time>2022-10-21T16:12:17.000Z</time>
      </trkpt>
      <trkpt lat="42.97931" lon="1.13115">
        <ele>421.7</ele>
        <time>2022-10-21T16:12:20.000Z</time>
      </trkpt>
      <trkpt lat="42.97938" lon="1.13124">
        <ele>421.4</ele>
        <time>2022-10-21T16:12:23.000Z</time>
      </trkpt>
      <trkpt lat="42.97949" lon="1.13135">
        <ele>421</ele>
        <time>2022-10-21T16:12:26.000Z</time>
      </trkpt>
      <trkpt lat="42.97955" lon="1.13147">
        <ele>421.7</ele>
        <time>2022-10-21T16:12:29.000Z</time>
      </trkpt>
      <trkpt lat="42.97961" lon="1.1316">
        <ele>421.9</ele>
        <time>2022-10-21T16:12:32.000Z</time>
      </trkpt>
      <trkpt lat="42.97969" lon="1.13172">
        <ele>422</ele>
        <time>2022-10-21T16:12:35.000Z</time>
      </trkpt>
      <trkpt lat="42.97978" lon="1.13183">
        <ele>421.5</ele>
        <time>2022-10-21T16:12:38.000Z</time>
      </trkpt>
      <trkpt lat="42.97987" lon="1.13196">
        <ele>421.3</ele>
        <time>2022-10-21T16:12:41.000Z</time>
      </trkpt>
      <trkpt lat="42.97996" lon="1.13209">
        <ele>421.8</ele>
        <time>2022-10-21T16:12:44.000Z</time>
      </trkpt>
      <trkpt lat="42.98006" lon="1.13221">
        <ele>421.5</ele>
        <time>2022-10-21T16:12:47.000Z</time>
      </trkpt>
      <trkpt lat="42.98014" lon="1.13236">
        <ele>421.7</ele>
        <time>2022-10-21T16:12:50.000Z</time>
      </trkpt>
      <trkpt lat="42.9802" lon="1.13246">
        <ele>422.1</ele>
        <time>2022-10-21T16:12:52.000Z</time>
      </trkpt>
      <trkpt lat="42.98026" lon="1.13256">
        <ele>421.8</ele>
        <time>2022-10-21T16:12:54.000Z</time>
      </trkpt>
      <trkpt lat="42.98033" lon="1.13265">
        <ele>422.2</ele>
        <time>2022-10-21T16:12:56.000Z</time>
      </trkpt>
      <trkpt lat="42.9804" lon="1.13274">
        <ele>422</ele>
        <time>2022-10-21T16:12:58.000Z</time>
      </trkpt>
      <trkpt lat="42.98047" lon="1.13283">
        <ele>422</ele>
        <time>2022-10-21T16:13:00.000Z</time>
      </trkpt>
      <trkpt lat="42.98056" lon="1.13291">
        <ele>421.8</ele>
        <time>2022-10-21T16:13:02.000Z</time>
      </trkpt>
      <trkpt lat="42.98066" lon="1.13299">
        <ele>421.5</ele>
        <time>2022-10-21T16:13:04.000Z</time>
      </trkpt>
      <trkpt lat="42.98073" lon="1.13308">
        <ele>421.1</ele>
        <time>2022-10-21T16:13:06.000Z</time>
      </trkpt>
      <trkpt lat="42.98083" lon="1.13314">
        <ele>420.8</ele>
        <time>2022-10-21T16:13:08.000Z</time>
      </trkpt>
      <trkpt lat="42.98094" lon="1.13318">
        <ele>420.8</ele>
        <time>2022-10-21T16:13:10.000Z</time>
      </trkpt>
      <trkpt lat="42.98105" lon="1.13325">
        <ele>420.2</ele>
        <time>2022-10-21T16:13:12.000Z</time>
      </trkpt>
      <trkpt lat="42.98116" lon="1.13331">
        <ele>419.7</ele>
        <time>2022-10-21T16:13:14.000Z</time>
      </trkpt>
      <trkpt lat="42.98126" lon="1.13338">
        <ele>419.6</ele>
        <time>2022-10-21T16:13:16.000Z</time>
      </trkpt>
      <trkpt lat="42.98137" lon="1.13345">
        <ele>419.2</ele>
        <time>2022-10-21T16:13:18.000Z</time>
      </trkpt>
      <trkpt lat="42.98147" lon="1.13352">
        <ele>419.1</ele>
        <time>2022-10-21T16:13:20.000Z</time>
      </trkpt>
      <trkpt lat="42.98157" lon="1.13358">
        <ele>419.4</ele>
        <time>2022-10-21T16:13:22.000Z</time>
      </trkpt>
      <trkpt lat="42.98166" lon="1.13365">
        <ele>419.1</ele>
        <time>2022-10-21T16:13:24.000Z</time>
      </trkpt>
      <trkpt lat="42.98176" lon="1.13371">
        <ele>418.7</ele>
        <time>2022-10-21T16:13:26.000Z</time>
      </trkpt>
      <trkpt lat="42.98185" lon="1.13377">
        <ele>418.6</ele>
        <time>2022-10-21T16:13:28.000Z</time>
      </trkpt>
      <trkpt lat="42.98193" lon="1.13384">
        <ele>418.8</ele>
        <time>2022-10-21T16:13:30.000Z</time>
      </trkpt>
      <trkpt lat="42.98202" lon="1.1339">
        <ele>418.6</ele>
        <time>2022-10-21T16:13:32.000Z</time>
      </trkpt>
      <trkpt lat="42.9821" lon="1.13396">
        <ele>418.2</ele>
        <time>2022-10-21T16:13:34.000Z</time>
      </trkpt>
      <trkpt lat="42.98217" lon="1.13404">
        <ele>418.2</ele>
        <time>2022-10-21T16:13:36.000Z</time>
      </trkpt>
      <trkpt lat="42.98225" lon="1.13418">
        <ele>417.4</ele>
        <time>2022-10-21T16:13:39.000Z</time>
      </trkpt>
      <trkpt lat="42.98231" lon="1.13428">
        <ele>417.1</ele>
        <time>2022-10-21T16:13:41.000Z</time>
      </trkpt>
      <trkpt lat="42.98237" lon="1.13438">
        <ele>417.3</ele>
        <time>2022-10-21T16:13:43.000Z</time>
      </trkpt>
      <trkpt lat="42.98243" lon="1.13448">
        <ele>417.5</ele>
        <time>2022-10-21T16:13:45.000Z</time>
      </trkpt>
      <trkpt lat="42.9825" lon="1.13457">
        <ele>417.3</ele>
        <time>2022-10-21T16:13:47.000Z</time>
      </trkpt>
      <trkpt lat="42.98258" lon="1.13467">
        <ele>417.6</ele>
        <time>2022-10-21T16:13:49.000Z</time>
      </trkpt>
      <trkpt lat="42.98265" lon="1.13476">
        <ele>417.3</ele>
        <time>2022-10-21T16:13:51.000Z</time>
      </trkpt>
      <trkpt lat="42.98273" lon="1.13485">
        <ele>417.3</ele>
        <time>2022-10-21T16:13:53.000Z</time>
      </trkpt>
      <trkpt lat="42.98281" lon="1.13494">
        <ele>417.2</ele>
        <time>2022-10-21T16:13:55.000Z</time>
      </trkpt>
      <trkpt lat="42.98289" lon="1.13504">
        <ele>416.8</ele>
        <time>2022-10-21T16:13:57.000Z</time>
      </trkpt>
      <trkpt lat="42.98297" lon="1.13513">
        <ele>417</ele>
        <time>2022-10-21T16:13:59.000Z</time>
      </trkpt>
      <trkpt lat="42.98304" lon="1.13524">
        <ele>416.9</ele>
        <time>2022-10-21T16:14:01.000Z</time>
      </trkpt>
      <trkpt lat="42.98309" lon="1.13537">
        <ele>416.9</ele>
        <time>2022-10-21T16:14:03.000Z</time>
      </trkpt>
      <trkpt lat="42.98314" lon="1.1355">
        <ele>416.8</ele>
        <time>2022-10-21T16:14:05.000Z</time>
      </trkpt>
      <trkpt lat="42.9832" lon="1.13562">
        <ele>416.4</ele>
        <time>2022-10-21T16:14:07.000Z</time>
      </trkpt>
      <trkpt lat="42.98325" lon="1.13576">
        <ele>416.6</ele>
        <time>2022-10-21T16:14:09.000Z</time>
      </trkpt>
      <trkpt lat="42.9833" lon="1.1359">
        <ele>416.3</ele>
        <time>2022-10-21T16:14:11.000Z</time>
      </trkpt>
      <trkpt lat="42.98335" lon="1.13604">
        <ele>416.6</ele>
        <time>2022-10-21T16:14:13.000Z</time>
      </trkpt>
      <trkpt lat="42.9834" lon="1.13618">
        <ele>416.5</ele>
        <time>2022-10-21T16:14:15.000Z</time>
      </trkpt>
      <trkpt lat="42.98344" lon="1.13632">
        <ele>416.5</ele>
        <time>2022-10-21T16:14:17.000Z</time>
      </trkpt>
      <trkpt lat="42.9835" lon="1.13646">
        <ele>416.1</ele>
        <time>2022-10-21T16:14:19.000Z</time>
      </trkpt>
      <trkpt lat="42.98355" lon="1.13661">
        <ele>415.8</ele>
        <time>2022-10-21T16:14:21.000Z</time>
      </trkpt>
      <trkpt lat="42.98361" lon="1.13675">
        <ele>415.3</ele>
        <time>2022-10-21T16:14:23.000Z</time>
      </trkpt>
      <trkpt lat="42.98366" lon="1.13688">
        <ele>415.5</ele>
        <time>2022-10-21T16:14:25.000Z</time>
      </trkpt>
      <trkpt lat="42.98371" lon="1.13702">
        <ele>415.5</ele>
        <time>2022-10-21T16:14:27.000Z</time>
      </trkpt>
      <trkpt lat="42.98376" lon="1.13715">
        <ele>415.4</ele>
        <time>2022-10-21T16:14:29.000Z</time>
      </trkpt>
      <trkpt lat="42.98381" lon="1.13727">
        <ele>415.1</ele>
        <time>2022-10-21T16:14:31.000Z</time>
      </trkpt>
      <trkpt lat="42.98385" lon="1.13739">
        <ele>415.5</ele>
        <time>2022-10-21T16:14:33.000Z</time>
      </trkpt>
      <trkpt lat="42.9839" lon="1.13755">
        <ele>415.2</ele>
        <time>2022-10-21T16:14:36.000Z</time>
      </trkpt>
      <trkpt lat="42.98393" lon="1.13771">
        <ele>414.9</ele>
        <time>2022-10-21T16:14:39.000Z</time>
      </trkpt>
      <trkpt lat="42.98394" lon="1.13785">
        <ele>415</ele>
        <time>2022-10-21T16:14:42.000Z</time>
      </trkpt>
      <trkpt lat="42.98396" lon="1.138">
        <ele>414.9</ele>
        <time>2022-10-21T16:14:46.000Z</time>
        <extensions>
          <visugpx:TrkExtension xmlns:visugpx="https://www.visugpx.com/editgpx/">
            <visugpx:node>1</visugpx:node>
            </visugpx:TrkExtension>
        </extensions>
      </trkpt>
      <trkpt lat="42.98395" lon="1.13805">
        <ele>392.8</ele>
      </trkpt>
      <trkpt lat="42.98397" lon="1.13815">
        <ele>392.7</ele>
      </trkpt>
      <trkpt lat="42.984" lon="1.13828">
        <ele>392.6</ele>
      </trkpt>
      <trkpt lat="42.98409" lon="1.13855">
        <ele>392.3</ele>
      </trkpt>
      <trkpt lat="42.98415" lon="1.13871">
        <ele>392.1</ele>
      </trkpt>
      <trkpt lat="42.98422" lon="1.13885">
        <ele>392</ele>
        <extensions>
          <visugpx:TrkExtension xmlns:visugpx="https://www.visugpx.com/editgpx/">
            <visugpx:node>2</visugpx:node>
            </visugpx:TrkExtension>
        </extensions>
      </trkpt>
      <trkpt lat="42.98422" lon="1.13886">
        <ele>392</ele>
      </trkpt>
      <trkpt lat="42.98431" lon="1.13901">
        <ele>392</ele>
      </trkpt>
      <trkpt lat="42.98438" lon="1.13918">
        <ele>392</ele>
      </trkpt>
      <trkpt lat="42.98455" lon="1.13964">
        <ele>391</ele>
      </trkpt>
      <trkpt lat="42.98474" lon="1.14016">
        <ele>391.5</ele>
      </trkpt>
      <trkpt lat="42.98475" lon="1.1402">
        <ele>391.6</ele>
      </trkpt>
      <trkpt lat="42.98493" lon="1.14068">
        <ele>392</ele>
      </trkpt>
      <trkpt lat="42.98494" lon="1.14072">
        <ele>392</ele>
        <extensions>
          <visugpx:TrkExtension xmlns:visugpx="https://www.visugpx.com/editgpx/">
            <visugpx:node>3</visugpx:node>
            </visugpx:TrkExtension>
        </extensions>
      </trkpt>
      <trkpt lat="42.98493" lon="1.14068">
        <ele>392</ele>
      </trkpt>
      <trkpt lat="42.98548" lon="1.14031">
        <ele>389.6</ele>
      </trkpt>
      <trkpt lat="42.98564" lon="1.1402">
        <ele>388.8</ele>
      </trkpt>
      <trkpt lat="42.98574" lon="1.14014">
        <ele>389.5</ele>
      </trkpt>
      <trkpt lat="42.98579" lon="1.14011">
        <ele>390.1</ele>
      </trkpt>
      <trkpt lat="42.98582" lon="1.14009">
        <ele>390.6</ele>
        <extensions>
          <visugpx:TrkExtension xmlns:visugpx="https://www.visugpx.com/editgpx/">
            <visugpx:node>4</visugpx:node>
            </visugpx:TrkExtension>
        </extensions>
      </trkpt>
      <trkpt lat="42.98579" lon="1.14011">
        <ele>390.1</ele>
      </trkpt>
      <trkpt lat="42.9858" lon="1.14011">
        <ele>390.2</ele>
      </trkpt>
      <trkpt lat="42.98584" lon="1.14013">
        <ele>390.2</ele>
      </trkpt>
      <trkpt lat="42.98586" lon="1.14015">
        <ele>390</ele>
      </trkpt>
      <trkpt lat="42.98587" lon="1.14016">
        <ele>390</ele>
      </trkpt>
      <trkpt lat="42.98589" lon="1.1402">
        <ele>389.7</ele>
      </trkpt>
      <trkpt lat="42.98595" lon="1.14027">
        <ele>389.7</ele>
      </trkpt>
      <trkpt lat="42.98601" lon="1.14035">
        <ele>390.4</ele>
      </trkpt>
      <trkpt lat="42.98602" lon="1.14037">
        <ele>390.5</ele>
      </trkpt>
      <trkpt lat="42.98603" lon="1.1404">
        <ele>390.5</ele>
      </trkpt>
      <trkpt lat="42.98604" lon="1.14041">
        <ele>390.6</ele>
      </trkpt>
      <trkpt lat="42.98607" lon="1.14043">
        <ele>390.9</ele>
      </trkpt>
      <trkpt lat="42.98609" lon="1.14044">
        <ele>391.2</ele>
      </trkpt>
      <trkpt lat="42.98611" lon="1.14044">
        <ele>391.4</ele>
      </trkpt>
      <trkpt lat="42.98613" lon="1.14044">
        <ele>391.3</ele>
        <extensions>
          <visugpx:TrkExtension xmlns:visugpx="https://www.visugpx.com/editgpx/">
            <visugpx:node>5</visugpx:node>
            </visugpx:TrkExtension>
        </extensions>
      </trkpt>
      <trkpt lat="42.98615" lon="1.14043">
        <ele>391.3</ele>
      </trkpt>
      <trkpt lat="42.9862" lon="1.14043">
        <ele>391.1</ele>
      </trkpt>
      <trkpt lat="42.98626" lon="1.14041">
        <ele>391</ele>
      </trkpt>
      <trkpt lat="42.98636" lon="1.14038">
        <ele>390.7</ele>
      </trkpt>
      <trkpt lat="42.98651" lon="1.14032">
        <ele>390.8</ele>
      </trkpt>
      <trkpt lat="42.98667" lon="1.14025">
        <ele>391</ele>
        <extensions>
          <visugpx:TrkExtension xmlns:visugpx="https://www.visugpx.com/editgpx/">
            <visugpx:node>6</visugpx:node>
            </visugpx:TrkExtension>
        </extensions>
      </trkpt>
      <trkpt lat="42.98668" lon="1.14025">
        <ele>391</ele>
      </trkpt>
      <trkpt lat="42.98679" lon="1.14018">
        <ele>390.6</ele>
      </trkpt>
      <trkpt lat="42.98745" lon="1.13991">
        <ele>390.1</ele>
      </trkpt>
      <trkpt lat="42.98747" lon="1.1399">
        <ele>390</ele>
      </trkpt>
      <trkpt lat="42.98816" lon="1.13965">
        <ele>389.7</ele>
      </trkpt>
      <trkpt lat="42.9883" lon="1.1396">
        <ele>389.5</ele>
      </trkpt>
      <trkpt lat="42.98843" lon="1.13955">
        <ele>389.6</ele>
        <extensions>
          <visugpx:TrkExtension xmlns:visugpx="https://www.visugpx.com/editgpx/">
            <visugpx:node>7</visugpx:node>
            </visugpx:TrkExtension>
        </extensions>
      </trkpt>
      <trkpt lat="42.98844" lon="1.13955">
        <ele>389.6</ele>
      </trkpt>
      <trkpt lat="42.98842" lon="1.13949">
        <ele>389.8</ele>
      </trkpt>
      <trkpt lat="42.98841" lon="1.13946">
        <ele>389.9</ele>
      </trkpt>
      <trkpt lat="42.9884" lon="1.13943">
        <ele>390</ele>
      </trkpt>
      <trkpt lat="42.98839" lon="1.13938">
        <ele>390.2</ele>
      </trkpt>
      <trkpt lat="42.98838" lon="1.13935">
        <ele>390.3</ele>
        <extensions>
          <visugpx:TrkExtension xmlns:visugpx="https://www.visugpx.com/editgpx/">
            <visugpx:node>8</visugpx:node>
            </visugpx:TrkExtension>
        </extensions>
      </trkpt>
      <trkpt lat="42.98838" lon="1.13934">
        <ele>390.3</ele>
      </trkpt>
      <trkpt lat="42.98837" lon="1.13932">
        <ele>390.4</ele>
      </trkpt>
      <trkpt lat="42.98837" lon="1.1393">
        <ele>390.5</ele>
      </trkpt>
      <trkpt lat="42.98834" lon="1.13931">
        <ele>390.5</ele>
      </trkpt>
      <trkpt lat="42.98831" lon="1.13932">
        <ele>390.4</ele>
      </trkpt>
      <trkpt lat="42.98828" lon="1.13932">
        <ele>390.4</ele>
      </trkpt>
      <trkpt lat="42.98824" lon="1.13933">
        <ele>390.4</ele>
      </trkpt>
      <trkpt lat="42.98821" lon="1.13934">
        <ele>390.4</ele>
      </trkpt>
      <trkpt lat="42.98818" lon="1.13936">
        <ele>390.3</ele>
      </trkpt>
      <trkpt lat="42.98815" lon="1.13937">
        <ele>390.3</ele>
      </trkpt>
      <trkpt lat="42.98814" lon="1.13939">
        <ele>390.2</ele>
      </trkpt>
      <trkpt lat="42.98812" lon="1.13941">
        <ele>390.1</ele>
      </trkpt>
      <trkpt lat="42.98811" lon="1.13944">
        <ele>390</ele>
      </trkpt>
      <trkpt lat="42.98811" lon="1.13948">
        <ele>390</ele>
        <extensions>
          <visugpx:TrkExtension xmlns:visugpx="https://www.visugpx.com/editgpx/">
            <visugpx:node>9</visugpx:node>
            </visugpx:TrkExtension>
        </extensions>
      </trkpt>
      <trkpt lat="42.98812" lon="1.13953">
        <ele>389.9</ele>
      </trkpt>
      <trkpt lat="42.98792" lon="1.13956">
        <ele>390.3</ele>
      </trkpt>
      <trkpt lat="42.98787" lon="1.13956">
        <ele>390.4</ele>
      </trkpt>
      <trkpt lat="42.98779" lon="1.13956">
        <ele>390.6</ele>
      </trkpt>
      <trkpt lat="42.98735" lon="1.13972">
        <ele>390.5</ele>
      </trkpt>
      <trkpt lat="42.98734" lon="1.13972">
        <ele>390.6</ele>
        <extensions>
          <visugpx:TrkExtension xmlns:visugpx="https://www.visugpx.com/editgpx/">
            <visugpx:node>10</visugpx:node>
            </visugpx:TrkExtension>
        </extensions>
      </trkpt>
      <trkpt lat="42.98729" lon="1.13948">
        <ele>391</ele>
      </trkpt>
    </trkseg>
  </trk>
</gpx>